GFSGL_prec_cloud_003.txt.gz
Cloud_Cover
94 100 97 100 100 98 83 85 100 100 84 26 39 68 97 84 69 95 98 83 98 99 100 100 100 100 98 100 100 100 100 100 90 98 100 100 100 100 100 100 96 100 98
100 100 100 100 100 100 100 100 100 33 96 91 97 65 100 100 100 100 100 99 100 100 100 100 100 100 100 100 100 100 100 100 100 98 98 100 100 100 100 100 100 100 100
100 100 100 100 100 88 27 73 69 100 100 100 89 36 49 70 92 94 97 100 100 100 99 93 100 100 74 100 100 100 99 100 100 92 85 97 86 100 100 100 100 96 61
83 88 73 27 13 18 70 100 100 100 100 56 16 5 16 26 43 86 65 5 6 28 92 89 100 100 100 96 99 100 100 100 100 52 12 26 50 41 5 5 50 90 54
92 39 36 9 35 72 100 100 100 65 7 5 5 8 85 96 99 6 4 5 5 5 7 32 100 100 85 81 20 94 100 100 100 100 100 100 94 100 100 100 100 100 99
100 89 67 91 99 100 100 100 100 5 5 5 43 98 100 100 95 5 2 5 5 5 39 54 54 81 96 100 98 49 89 100 100 100 100 100 100 100 100 96 83 64 89
88 100 100 100 99 100 100 100 100 82 66 96 100 100 100 100 97 6 5 5 5 5 61 100 100 100 100 100 94 100 98 89 92 98 100 100 99 90 100 99 84 100 91
100 51 98 100 100 100 100 100 93 96 100 100 98 99 93 100 100 31 5 36 95 99 100 100 100 100 100 100 100 97 100 100 100 100 98 98 100 100 100 99 100 100 100
100 100 100 100 88 100 100 100 100 100 100 100 94 75 96 99 100 93 30 100 100 100 100 100 100 97 59 19 99 99 100 100 100 85 29 10 14 26 91 100 100 100 100
99 17 94 100 100 100 100 100 100 100 100 66 24 96 100 100 100 96 85 100 100 100 100 100 100 94 98 100 100 100 100 100 100 99 100 100 100 77 88 71 67 100 100
98 15 100 100 100 100 100 100 100 100 76 56 8 44 83 100 99 100 98 100 100 100 100 100 100 100 100 100 100 100 99 93 98 100 100 100 100 97 85 100 80 76 77
95 78 100 100 100 100 100 100 91 95 98 55 97 34 100 99 100 100 96 100 100 100 100 100 100 100 100 100 99 99 99 100 100 100 100 100 100 96 100 96 99 100 100
95 100 100 100 100 100 79 99 100 100 91 96 100 98 100 100 100 100 100 100 100 100 100 100 100 100 100 100 100 100 100 100 100 100 100 100 100 100 99 100 98 100 100
59 100 100 100 100 100 99 100 100 85 97 99 86 100 100 100 100 100 100 100 100 100 100 100 100 100 100 100 100 100 100 100 100 100 100 100 100 100 100 100 100 100 100
84 96 85 98 89 98 82 99 54 91 15 12 19 91 100 100 100 100 100 100 100 100 100 100 100 100 100 100 100 100 100 100 100 100 100 100 100 100 100 100 97 100 100
5 8 94 77 77 83 100 100 74 5 5 5 5 13 68 100 100 100 100 100 100 100 100 100 100 100 100 100 100 100 100 100 100 100 100 100 100 100 93 100 100 82 99
61 81 75 43 100 100 91 100 98 100 64 55 64 5 5 76 100 100 100 100 100 100 100 100 100 100 100 100 100 100 100 100 100 100 100 100 100 99 100 100 100 100 93
84 71 92 100 100 98 96 100 100 100 100 100 100 61 18 96 100 100 100 100 100 100 100 100 100 100 100 100 100 100 100 100 100 100 100 100 100 100 100 100 100 100 94
73 91 100 100 100 100 100 100 100 100 100 100 100 99 77 100 99 99 100 100 100 100 100 100 100 100 100 100 100 100 100 100 100 100 100 100 100 100 100 100 100 100 97
100 62 94 100 100 100 100 99 100 100 100 100 100 100 100 100 100 100 100 100 100 100 100 100 100 100 100 100 100 100 100 100 100 100 100 100 100 100 100 100 100 100 100
99 100 100 100 100 100 100 100 100 100 100 100 100 80 5 82 100 100 100 100 100 100 100 100 100 100 100 100 100 100 100 100 100 100 100 100 100 100 100 100 100 100 100
82 85 100 100 100 100 100 100 100 100 100 100 100 100 67 100 100 100 100 100 100 100 100 100 100 100 100 100 100 100 100 100 100 100 100 100 100 100 100 100 100 100 100
100 100 100 100 100 100 100 100 100 100 100 100 100 100 100 100 100 100 100 100 100 100 100 100 100 100 100 100 100 100 100 100 100 100 100 100 100 100 100 100 100 100 100
100 100 100 100 100 100 100 100 100 100 100 100 100 100 100 100 100 100 100 100 100 100 100 100 100 100 100 100 100 100 100 100 100 100 100 100 100 100 100 100 100 95 100
100 100 100 100 100 100 100 100 100 100 100 100 100 100 100 100 100 100 100 100 100 100 100 100 100 100 100 100 100 100 100 100 100 100 100 100 100 100 100 100 81 100 90
100 94 100 100 100 100 99 100 100 100 100 100 100 100 100 100 100 100 100 100 100 88 100 100 100 100 100 100 100 100 100 100 100 100 100 100 100 100 100 100 95 100 92

GFSGL_prec_cloud_006.txt.gz
Cloud_Cover
100 100 100 31 6 5 5 5 5 4 0 0 1 5 5 10 38 53 100 100 100 100 78 100 100 100 100 100 100 86 97 100 69 78 100 100 99 100 100 100 100 100 90
41 81 16 90 65 5 5 5 0 4 5 5 25 5 13 26 5 77 6 9 45 78 100 100 98 100 100 100 100 100 100 100 93 52 66 100 100 99 100 100 100 100 100
100 41 9 45 5 5 5 73 24 5 24 48 5 5 5 0 19 5 46 81 43 6 5 5 4 83 48 36 89 99 100 98 99 100 79 30 97 100 99 94 100 94 94
42 51 7 35 5 3 12 6 5 5 5 5 5 5 5 47 28 5 14 5 5 1 0 0 0 5 100 100 73 84 84 81 71 6 6 5 6 78 86 54 75 90 91
36 50 6 3 10 3 5 2 5 5 5 5 4 5 5 6 60 29 4 0 0 0 0 0 0 0 3 62 61 98 84 43 19 53 77 91 88 100 63 91 94 89 73
14 5 4 77 100 100 86 37 5 51 18 5 12 58 5 5 5 5 3 5 5 5 5 0 1 3 2 29 100 28 76 36 55 100 53 99 100 100 100 78 21 56 42
100 29 5 94 100 100 75 22 91 76 44 59 100 81 68 6 5 5 5 12 47 5 3 5 5 11 55 100 98 85 88 52 30 95 100 95 100 100 96 84 18 5 69
8 97 52 26 30 100 62 8 99 100 99 100 99 78 58 5 5 5 5 5 5 5 11 6 5 31 70 100 100 49 35 68 96 95 89 23 89 56 41 10 26 27 5
48 24 82 26 100 100 100 23 100 100 85 100 5 25 5 5 5 60 61 42 5 17 93 99 100 100 96 100 65 17 5 5 26 40 90 100 100 100 100 99 96 88 76
5 4 81 100 100 100 14 68 53 68 43 5 4 4 4 2 92 100 81 93 57 71 100 100 100 100 94 100 100 100 100 98 100 37 60 62 77 87 100 100 97 96 59
5 5 13 94 100 27 48 92 98 70 11 5 5 4 2 65 100 99 95 100 100 100 96 85 100 100 100 100 100 97 60 76 18 46 53 98 95 66 89 97 98 100 87
1 30 65 48 11 7 84 67 30 5 5 5 5 5 23 15 11 82 92 100 100 100 100 100 100 100 100 100 100 99 99 100 100 100 99 99 86 87 96 90 94 100 98
3 5 21 83 90 74 77 15 5 16 5 3 5 5 5 5 5 70 43 88 100 100 100 100 100 100 100 100 100 100 100 100 100 100 100 100 100 100 96 100 100 100 99
38 28 36 93 41 16 5 40 5 5 5 5 5 5 5 5 5 13 77 100 100 100 100 100 100 100 100 100 100 100 100 100 100 100 100 100 94 86 91 95 99 99 97
5 5 19 8 53 5 5 27 79 5 5 5 5 5 5 5 29 100 100 100 100 100 100 100 100 100 100 100 100 100 100 100 99 92 92 99 99 93 100 97 96 100 99
5 5 5 5 5 5 17 24 5 5 5 5 5 5 5 32 100 100 100 100 100 100 100 100 100 100 100 100 100 100 100 100 95 98 87 91 98 100 90 99 91 99 97
5 5 5 5 46 62 31 5 55 92 62 5 72 5 40 70 100 100 100 100 100 100 100 100 100 100 100 100 100 100 100 100 100 95 100 95 100 100 87 74 66 56 100
5 5 5 56 94 72 74 100 100 100 99 92 100 84 95 87 37 100 100 64 100 100 100 100 100 100 100 100 100 100 100 100 99 91 95 94 97 92 100 97 78 95 100
6 92 5 5 100 100 100 100 100 100 100 97 100 100 60 5 45 93 100 91 66 100 100 100 100 100 100 100 100 100 100 100 100 100 100 100 100 95 93 99 99 97 99
6 98 68 24 100 100 100 100 100 100 100 100 99 89 26 5 16 78 92 100 31 97 100 100 100 100 100 100 100 100 100 100 100 100 100 100 98 100 97 100 100 100 100
64 90 27 100 100 100 100 100 100 100 100 100 99 96 42 21 15 80 95 94 77 70 100 100 100 100 100 100 100 100 100 100 100 100 100 100 100 100 100 100 100 100 100
82 27 56 100 100 100 100 100 100 100 100 100 99 98 75 72 99 8 97 97 100 78 65 100 100 100 100 100 100 100 100 100 100 100 100 100 100 100 100 100 100 100 100
59 93 100 92 100 100 98 100 100 100 100 100 97 100 100 100 98 78 30 97 100 96 53 39 100 100 100 100 100 100 100 100 100 100 100 100 100 100 100 100 100 100 87
10 96 96 99 99 100 99 100 100 100 100 100 100 100 100 100 100 92 76 85 90 94 94 62 54 96 100 100 100 100 100 100 100 100 100 100 100 100 100 100 100 100 86
5 41 92 96 100 100 100 100 100 100 100 100 100 100 100 100 100 92 95 96 64 5 36 26 16 96 100 100 100 100 100 100 100 100 100 100 100 100 100 100 100 98 81
5 92 93 84 100 100 100 100 100 100 100 100 100 100 100 100 100 100 100 68 30 85 6 61 39 68 100 100 100 100 100 100 100 100 100 100 100 100 100 100 100 100 100

GFSGL_prec_cloud_009.txt.gz
Cloud_Cover
6 6 10 19 8 5 5 0 0 0 0 0 0 1 5 47 5 4 0 0 1 17 29 53 32 74 93 95 95 100 100 100 100 11 52 42 78 99 100 100 100 100 100
40 8 42 66 19 20 5 3 5 0 0 0 0 0 0 0 3 4 5 5 5 5 66 22 5 5 6 5 52 72 100 100 89 16 81 100 58 100 100 100 100 100 100
81 70 13 5 39 96 100 99 99 100 79 90 2 0 0 0 0 3 5 5 5 5 5 5 5 2 0 0 61 5 5 51 58 63 8 99 74 100 94 98 77 100 100
5 5 5 2 19 99 11 52 100 100 51 10 2 0 0 4 5 5 5 2 4 5 4 0 0 0 0 0 0 5 5 5 16 5 17 40 100 100 100 76 5 84 100
0 0 0 49 27 31 98 85 100 100 98 100 100 4 5 4 5 5 13 8 5 4 4 5 3 2 5 5 49 70 20 95 35 5 28 5 96 100 100 99 13 69 98
5 0 0 4 42 36 96 100 100 100 12 100 77 55 0 5 5 62 26 30 5 5 2 0 5 5 71 69 83 100 100 100 88 62 5 5 76 73 100 84 10 5 23
5 3 0 5 5 26 46 100 100 100 86 100 26 5 5 52 94 100 26 5 5 5 5 5 5 5 5 6 100 100 99 100 100 100 91 20 37 59 9 76 76 68 18
5 0 2 4 0 3 88 100 100 100 100 52 94 5 5 13 8 4 5 5 5 20 57 26 6 26 66 100 73 7 5 23 85 100 98 5 25 91 5 23 40 95 87
0 4 5 0 4 6 56 100 86 48 44 100 6 5 5 5 5 5 13 6 10 34 56 89 73 41 93 97 98 81 85 15 12 5 18 86 96 81 98 100 97 88 88
5 5 1 4 5 68 86 34 100 100 12 5 5 5 5 5 5 71 79 96 96 100 100 100 100 100 100 100 87 64 92 27 15 57 53 68 45 5 58 89 47 92 100
5 5 0 0 5 43 98 100 100 52 5 5 5 5 5 4 5 70 100 100 99 100 100 100 100 100 100 100 100 96 79 82 91 28 5 8 63 45 99 96 50 8 25
3 4 5 5 25 100 100 100 64 5 5 5 5 5 5 5 2 35 81 86 100 98 100 100 100 100 100 100 100 100 100 100 100 98 99 100 100 100 99 100 100 76 72
5 2 5 5 6 83 71 17 5 5 5 5 5 5 5 5 5 5 5 72 96 98 100 100 100 100 100 100 100 100 100 100 100 100 100 100 100 100 100 100 100 88 74
0 5 5 5 5 5 5 5 5 5 5 5 5 5 26 5 5 41 17 51 98 100 100 100 100 100 100 100 100 100 100 100 100 100 100 100 100 100 100 100 100 99 100
5 5 5 5 5 5 5 5 5 5 5 5 5 5 53 63 30 100 100 100 100 100 100 100 100 100 100 100 100 100 100 100 100 100 87 88 92 100 100 100 100 100 99
29 34 5 5 5 14 98 95 5 5 5 5 5 5 15 5 71 100 100 100 100 90 100 100 100 100 100 100 100 100 100 100 96 93 97 89 97 91 94 77 81 88 72
81 68 5 5 5 8 79 98 62 5 5 5 11 99 49 14 100 100 100 58 41 67 100 100 100 100 100 100 100 100 100 100 100 100 97 90 99 100 95 90 69 93 96
85 92 16 26 69 21 71 100 100 98 96 84 54 91 29 92 72 66 95 5 10 35 74 100 100 100 100 100 100 100 100 100 100 100 100 99 100 98 83 86 76 88 97
97 15 77 100 100 38 95 100 100 99 100 100 100 63 85 100 5 5 6 7 12 30 41 94 100 100 100 100 100 100 100 100 100 100 100 100 100 99 99 79 68 73 66
100 40 66 100 100 26 100 100 100 100 100 100 100 87 84 90 20 70 62 58 19 9 56 52 96 99 100 100 100 100 100 100 100 100 100 100 100 100 100 99 91 83 73
100 93 99 100 98 54 100 100 100 100 100 100 100 100 92 36 10 78 65 73 52 45 21 31 59 82 100 100 100 100 100 100 100 100 100 100 100 100 100 99 89 98 72
100 100 100 74 50 100 100 100 100 100 100 100 100 100 100 53 100 96 84 72 69 32 54 7 20 57 64 100 100 100 100 100 100 100 100 100 100 100 87 75 96 73 100
53 5 5 100 98 83 81 99 100 100 100 100 100 100 99 70 82 93 88 64 71 66 58 11 5 26 21 79 100 100 100 100 100 100 100 100 100 100 97 76 72 87 87
5 10 5 79 67 71 58 100 100 100 100 100 97 100 100 100 91 66 71 70 70 55 65 8 5 5 6 64 100 100 100 100 100 100 100 100 100 100 100 100 96 96 91
92 66 38 82 73 24 65 82 100 100 100 100 99 100 99 100 100 79 80 64 73 49 18 61 36 22 52 64 73 100 100 100 100 100 100 100 100 100 100 100 100 99 100
85 75 5 8 78 48 89 99 98 100 100 100 100 100 100 100 79 84 85 70 64 69 44 55 46 71 68 68 62 93 100 100 100 100 100 100 100 100 100 100 100 99 80

GFSGL_prec_cloud_012.txt.gz
Cloud_Cover
5 5 0 2 5 8 19 20 9 5 5 40 52 34 80 100 100 0 0 0 0 2 7 31 54 59 5 5 5 4 22 22 89 34 100 92 95 100 99 6 5 62 100
5 4 5 14 7 18 61 16 27 100 100 98 100 100 100 100 99 3 0 5 57 96 100 48 9 5 3 0 0 0 0 0 6 5 63 84 99 100 100 100 12 19 100
5 5 18 5 5 3 29 32 64 100 89 100 100 100 100 100 100 37 1 5 5 5 6 5 5 3 0 0 0 0 0 0 2 5 5 34 48 100 100 96 11 5 100
5 5 5 5 4 0 60 81 100 98 94 100 100 100 100 100 14 4 5 5 5 5 5 5 3 0 0 5 5 35 61 78 15 5 49 56 46 5 100 100 37 28 94
5 5 5 0 0 0 1 56 52 70 20 98 100 100 83 9 15 95 6 5 5 2 5 5 4 4 5 5 100 100 100 95 100 100 95 100 64 2 6 100 66 5 10
5 3 0 0 0 0 0 28 33 100 100 100 97 69 5 27 99 5 5 5 5 5 5 5 5 5 5 5 5 15 99 100 100 100 100 100 91 5 5 24 51 32 19
2 5 4 0 0 1 4 6 53 92 100 99 45 39 19 100 15 5 5 6 11 5 5 5 5 5 100 62 5 7 95 96 100 100 98 93 45 5 19 5 5 5 5
5 1 0 0 4 4 5 5 69 80 94 73 100 100 100 6 5 24 54 9 5 5 5 5 5 80 100 100 85 99 82 100 98 14 35 5 5 5 5 5 16 55 48
0 4 4 5 5 0 5 5 38 20 93 100 100 55 5 5 5 19 82 8 5 5 5 64 98 99 100 100 100 98 86 100 99 97 99 99 92 97 93 86 99 100 100
5 5 3 5 5 5 38 75 9 88 100 100 70 5 5 5 2 30 92 80 38 83 15 98 100 100 100 100 100 100 100 97 73 5 5 6 55 61 21 5 39 95 55
24 8 5 5 5 6 64 90 100 100 98 43 5 5 5 2 4 5 95 100 100 94 74 90 100 100 100 100 100 100 100 100 93 92 37 9 9 9 26 28 38 6 48
37 42 5 5 5 6 97 92 93 40 5 5 13 5 5 5 1 5 77 100 100 100 100 93 100 100 100 100 100 100 100 100 100 100 100 99 98 99 87 88 89 67 36
52 5 5 5 5 5 11 6 22 5 5 5 5 5 5 5 5 5 6 30 72 100 77 100 100 100 100 100 100 100 100 100 100 100 100 100 100 100 100 100 97 99 100
7 5 26 5 5 5 5 5 5 5 5 5 5 5 50 5 5 13 81 44 98 50 46 82 100 100 100 100 100 100 100 100 100 100 100 100 100 100 100 100 100 100 100
100 95 96 88 5 5 5 75 85 76 5 5 5 5 16 55 15 100 100 96 99 32 17 65 95 100 100 100 100 100 100 100 100 100 100 100 100 100 100 100 100 100 96
100 100 100 100 15 5 22 94 99 99 20 5 5 5 23 16 62 100 100 81 52 24 18 60 78 92 100 100 100 89 100 100 100 100 100 98 100 100 99 96 99 100 99
93 100 100 100 86 98 98 53 78 5 5 5 5 5 53 11 91 95 100 5 5 3 60 64 78 90 100 100 100 100 100 100 100 100 100 100 100 100 95 99 92 86 99
100 100 100 100 100 100 100 62 100 90 84 54 5 5 5 71 84 10 5 5 5 9 61 72 99 100 98 100 100 100 100 100 99 100 91 99 100 100 95 93 96 95 88
100 100 100 100 88 100 100 46 99 100 100 85 59 12 5 67 78 10 5 7 12 48 60 68 78 92 53 100 100 100 100 100 100 100 100 100 99 100 100 96 99 92 68
100 100 99 91 99 100 100 100 100 100 100 99 99 67 42 61 80 83 82 90 60 52 70 60 67 78 75 68 100 100 100 100 100 100 100 100 100 100 100 100 98 93 100
100 100 100 100 100 100 100 100 100 100 100 100 99 93 56 5 70 83 78 98 72 64 60 48 60 71 69 65 70 100 100 100 100 100 100 100 100 100 100 100 100 100 98
100 100 98 95 98 100 100 100 100 100 100 100 100 100 78 62 59 82 82 82 68 48 24 26 41 56 65 17 64 72 100 100 100 100 100 100 100 100 100 98 96 100 89
94 74 54 5 12 72 98 88 94 100 100 100 100 98 85 93 74 73 64 6 68 76 69 64 59 53 54 38 48 56 64 99 100 100 100 100 100 100 98 87 79 90 88
94 12 5 5 79 76 99 87 100 99 100 100 100 98 79 74 91 89 74 70 74 82 91 64 32 5 14 34 53 44 54 64 100 100 100 100 100 100 100 98 72 77 88
100 86 100 93 97 77 82 92 76 100 100 98 100 100 85 100 97 90 67 58 45 80 64 84 57 9 6 48 19 5 5 5 66 100 100 100 100 100 100 100 100 98 96
100 100 100 95 100 94 99 100 95 89 96 100 100 98 100 100 87 83 71 76 60 23 65 65 65 55 6 47 42 48 5 5 50 100 100 100 100 100 100 100 100 100 99

GFSGL_prec_cloud_015.txt.gz
Cloud_Cover
50 53 22 5 2 5 3 1 8 94 89 100 96 99 100 100 100 100 99 100 100 22 18 6 18 5 4 5 5 3 3 5 5 2 0 8 20 100 100 100 13 5 5
6 5 0 5 5 0 0 0 70 93 98 100 94 83 100 100 100 100 99 100 99 5 5 72 53 5 5 5 5 0 0 1 5 5 3 4 5 5 100 100 90 12 5
14 18 4 0 0 5 3 0 0 0 0 26 59 29 98 100 100 81 64 83 40 9 92 88 5 5 4 0 0 3 5 16 85 97 20 5 5 5 4 21 74 99 6
5 5 5 5 5 2 0 0 0 4 68 68 68 99 100 100 97 6 4 89 10 5 5 5 5 5 5 2 5 5 75 100 100 100 69 40 33 37 5 3 3 4 89
5 5 5 5 5 0 0 0 3 74 100 26 10 71 100 47 97 5 97 6 5 5 5 5 5 5 53 31 64 82 100 87 89 100 100 100 99 56 5 20 5 4 36
5 5 5 5 3 0 0 5 5 5 5 86 41 95 6 98 11 99 5 5 5 16 66 80 5 5 5 71 85 99 100 100 100 100 76 100 100 78 50 5 5 5 5
16 11 5 5 5 0 5 3 5 5 14 21 5 6 61 90 37 9 34 5 6 61 74 29 11 53 51 34 71 100 100 100 100 100 100 100 100 100 95 27 5 5 5
33 5 5 4 2 7 24 5 5 5 18 10 25 99 100 23 5 5 40 5 5 5 5 5 63 81 94 100 100 100 100 100 100 100 100 100 32 44 80 5 5 5 33
94 12 0 0 5 95 5 5 25 21 93 58 98 100 16 5 3 8 51 52 5 5 62 5 98 100 95 100 100 100 100 100 96 79 63 99 100 100 98 87 96 100 100
3 0 4 5 100 5 5 5 100 90 99 99 69 34 5 5 2 7 77 44 40 77 9 5 55 100 100 100 100 100 100 100 97 94 76 5 28 5 37 86 13 14 66
0 0 5 88 62 5 5 62 72 89 75 92 93 5 5 4 3 5 82 70 79 98 87 59 79 100 100 100 100 100 100 100 100 100 100 90 58 29 5 5 5 5 8
0 5 86 97 91 5 5 5 43 96 100 59 23 5 5 5 2 5 81 100 100 98 88 78 100 100 100 100 100 100 100 100 100 100 100 100 100 100 95 92 96 91 80
5 53 100 99 70 10 5 5 5 5 5 82 5 34 5 5 5 5 46 84 47 57 6 100 98 99 100 100 100 100 100 100 100 100 100 100 100 100 100 100 100 100 100
86 100 100 97 100 79 23 5 6 81 100 94 14 31 52 5 5 10 99 73 19 5 5 7 5 86 100 89 93 100 100 100 100 100 100 100 100 100 100 100 100 100 100
100 100 97 99 100 95 64 48 100 100 100 87 5 5 58 64 5 89 98 78 40 36 24 44 53 85 94 96 100 100 100 100 100 100 100 100 100 100 100 100 100 100 100
100 97 96 94 98 100 63 71 98 100 100 8 5 11 48 16 15 99 93 28 17 4 5 81 93 81 97 100 100 100 98 96 100 100 100 100 100 100 100 100 100 100 100
100 100 60 99 100 96 97 100 100 89 100 70 5 5 5 8 28 7 14 5 5 5 62 75 100 99 92 100 100 100 100 100 75 100 100 100 100 100 100 100 100 96 91
100 100 99 100 100 100 100 100 99 79 100 53 38 5 5 6 51 5 5 5 5 8 68 81 100 100 90 89 100 100 100 100 100 96 100 99 88 99 94 100 100 100 100
100 100 100 100 100 100 100 100 100 100 100 100 75 17 36 9 9 21 57 14 13 44 55 63 76 100 86 76 88 99 100 100 100 100 100 100 98 94 76 84 82 96 100
100 100 100 100 100 100 100 100 100 100 100 100 92 77 65 58 5 34 100 100 92 59 61 58 12 72 76 74 92 100 85 100 100 100 100 100 100 100 100 100 95 95 81
100 100 100 100 99 91 46 82 92 99 100 100 72 90 32 69 21 65 68 90 99 76 62 18 53 60 71 68 67 83 68 85 100 100 100 100 100 100 100 100 100 100 100
99 100 100 100 100 97 70 91 100 99 94 100 69 100 92 100 71 69 58 64 64 48 56 45 34 14 56 42 50 97 64 63 76 100 100 100 100 100 100 100 100 100 100
100 100 100 100 82 54 94 90 94 99 74 100 100 98 94 98 79 94 69 60 72 60 55 73 70 50 41 59 58 62 67 55 60 73 100 100 100 100 100 100 100 100 100
100 100 100 100 81 84 90 81 93 83 98 100 100 100 100 88 96 98 83 69 64 58 73 91 68 11 5 41 59 78 65 59 70 62 62 100 100 100 100 100 100 100 100
100 100 100 100 100 100 98 99 95 85 87 98 100 100 100 100 100 100 99 87 74 66 63 81 82 41 6 5 15 19 33 5 5 5 55 70 95 100 100 100 100 100 100
100 100 100 100 100 100 100 96 100 100 100 100 100 100 100 100 100 96 84 93 100 65 57 66 57 9 5 21 6 26 5 5 5 5 48 63 64 100 100 100 100 100 100

GFSGL_prec_cloud_018.txt.gz
Cloud_Cover
100 91 72 5 5 5 5 5 2 0 0 0 2 84 100 94 98 5 28 49 87 29 0 5 5 5 5 5 5 5 3 4 5 1 0 0 0 0 0 4 92 74 9
92 57 5 5 5 30 7 2 0 4 2 0 44 100 100 40 5 64 54 74 5 3 5 5 5 5 5 1 1 5 0 4 5 91 5 5 5 0 74 5 5 98 81
86 5 6 87 36 5 3 2 5 1 1 5 92 96 5 46 88 100 63 5 5 5 5 5 5 5 5 5 5 5 5 5 11 100 85 5 5 5 2 33 4 0 0
5 5 8 5 5 4 5 5 2 0 2 5 95 44 81 100 100 100 12 5 5 4 5 5 5 5 5 8 46 64 44 83 96 73 61 99 88 11 88 99 34 3 0
5 5 5 5 5 13 5 6 4 1 5 93 99 78 97 100 99 5 5 5 5 5 5 7 5 59 100 100 100 99 100 100 100 100 100 98 92 92 99 100 95 45 4
7 36 8 16 20 42 36 5 0 4 52 99 46 92 100 65 5 80 6 5 5 5 6 5 5 5 29 100 83 100 100 100 100 94 78 88 100 83 100 100 100 98 5
79 42 13 44 81 59 6 0 1 59 83 26 9 10 19 14 79 18 13 5 5 5 5 5 13 76 25 49 32 87 100 100 100 100 100 100 100 99 99 99 100 96 37
96 100 99 69 69 5 3 0 36 94 5 66 96 88 96 80 5 5 5 5 5 5 5 8 41 68 52 99 98 100 100 100 100 100 100 88 76 100 99 100 99 85 77
100 99 84 89 5 5 0 7 100 44 83 98 99 85 16 22 5 5 5 5 5 5 9 5 97 98 66 100 100 100 100 100 100 100 100 100 97 100 100 100 94 83 75
100 100 84 15 5 5 5 41 5 88 74 10 5 8 62 5 0 5 43 56 31 44 14 19 32 100 100 100 100 91 100 100 100 100 98 95 83 97 72 42 46 99 97
100 50 9 5 5 34 24 58 5 61 73 77 84 67 5 1 4 5 96 100 77 91 59 32 66 98 100 100 100 94 100 100 100 100 100 98 93 95 36 5 5 5 11
46 5 4 5 73 86 98 5 5 5 13 84 60 19 5 5 5 5 99 98 96 81 7 15 93 100 92 96 100 100 100 100 100 100 100 100 97 91 96 93 70 48 38
8 5 5 5 75 98 91 27 18 9 65 87 93 68 5 5 5 5 7 91 7 5 5 23 19 5 61 46 97 100 100 100 100 100 100 100 100 100 100 100 100 100 100
5 5 5 50 95 84 93 81 57 18 100 100 100 79 52 5 5 5 78 79 5 5 5 8 5 5 7 42 66 100 100 100 100 100 100 100 100 100 100 100 100 100 100
14 8 85 93 80 98 91 77 7 78 98 99 100 49 65 82 17 31 100 54 5 5 24 33 15 12 29 92 66 84 100 92 96 100 100 100 100 100 100 100 100 100 100
86 79 100 92 98 99 96 69 57 30 36 88 94 46 53 8 5 66 85 9 5 5 5 80 100 100 85 96 100 84 100 100 91 100 100 100 99 100 100 100 100 100 100
58 100 100 99 98 100 98 100 99 80 56 70 86 81 23 8 5 92 7 5 5 5 31 68 100 100 99 63 90 82 100 100 100 100 100 100 100 100 100 100 88 100 100
92 100 100 100 100 100 100 100 100 89 39 99 93 93 58 58 82 61 9 5 5 5 35 65 88 99 99 60 84 98 68 100 100 100 99 98 100 100 100 97 94 100 95
100 100 100 100 100 100 99 100 100 87 90 100 92 70 64 54 94 72 58 36 36 46 6 5 53 47 89 56 85 100 83 55 100 100 100 100 99 100 100 90 90 52 42
89 100 100 99 100 100 98 65 76 100 100 100 100 86 81 76 78 16 86 100 97 69 60 19 5 9 61 69 86 100 92 63 38 95 100 100 100 100 100 99 80 87 5
100 100 100 99 93 100 100 96 70 81 82 100 92 99 63 77 66 72 58 80 99 88 65 53 49 46 28 60 28 87 81 99 39 10 100 100 100 100 100 100 100 100 100
100 100 100 97 100 99 95 80 74 74 86 76 80 99 95 100 100 99 73 60 55 58 59 48 38 14 15 9 32 98 98 100 74 58 46 93 100 100 100 100 100 100 100
100 100 100 100 100 100 89 66 86 91 100 100 82 86 100 100 100 100 100 91 68 69 65 68 71 64 47 40 39 16 74 46 6 96 99 76 94 100 100 100 100 100 100
100 100 100 100 100 100 100 91 99 100 88 78 78 96 96 86 100 100 100 100 98 85 71 59 61 56 48 46 55 61 5 53 63 11 70 100 99 85 100 100 100 100 100
100 100 100 100 100 100 100 100 100 100 97 85 100 100 100 100 100 100 100 100 100 99 85 100 63 47 8 5 14 5 34 67 8 5 5 88 100 80 17 100 100 100 100
100 100 100 100 100 100 100 100 100 100 100 100 100 100 100 100 100 100 100 100 100 98 92 85 97 57 13 9 5 11 47 9 5 5 24 73 75 17 5 19 83 100 100

GFSGL_prec_cloud_021.txt.gz
Cloud_Cover
100 100 9 5 5 5 35 44 5 5 5 4 5 5 5 5 100 76 31 25 55 86 7 4 4 5 7 81 93 76 60 77 81 2 5 5 5 10 44 6 4 5 5
100 72 22 85 38 5 5 5 5 5 5 4 5 5 5 96 93 5 14 89 99 90 5 5 5 8 5 80 100 100 100 100 100 97 52 76 100 100 100 100 16 82 100
65 77 48 5 5 5 5 10 5 5 5 5 5 9 84 98 85 99 98 100 100 17 7 5 5 74 42 60 98 100 100 100 100 100 64 100 100 100 100 100 100 100 100
18 8 5 5 22 41 40 5 14 14 5 5 6 28 68 53 100 100 100 99 6 5 5 5 5 5 5 77 100 100 100 100 100 100 100 100 100 100 100 100 100 100 100
5 5 5 24 69 68 6 96 89 5 5 1 6 5 13 97 100 100 78 77 25 5 5 2 5 5 58 94 100 100 100 100 100 100 100 100 100 100 100 100 100 99 97
5 18 52 100 98 100 100 100 7 30 4 5 5 5 6 16 68 83 5 5 4 0 0 2 5 5 84 100 100 100 100 100 100 100 100 100 100 100 100 100 100 100 100
57 83 100 100 100 100 100 38 100 25 0 16 5 5 49 91 60 5 5 5 4 5 5 7 75 100 100 100 100 98 100 98 100 99 100 100 100 100 100 100 100 100 100
100 100 100 100 100 99 48 34 14 0 1 6 5 5 52 49 5 5 5 4 5 5 10 94 100 100 100 100 100 100 100 100 100 100 100 100 100 100 100 100 100 100 100
100 100 100 100 97 28 50 5 5 4 4 5 5 5 5 5 5 5 3 5 24 51 94 100 100 100 100 100 100 100 100 100 100 86 95 99 100 100 100 100 100 100 100
100 100 100 92 33 49 72 25 5 5 5 5 15 56 5 5 5 2 5 94 100 100 100 30 99 100 100 100 100 100 100 100 100 99 100 100 100 100 99 94 100 100 100
100 100 90 100 91 100 97 5 5 5 5 5 15 42 5 5 4 4 5 98 100 100 77 5 44 99 98 100 100 100 100 100 100 100 100 100 100 100 100 100 100 100 100
98 86 99 96 100 78 5 5 5 5 5 5 61 74 5 5 5 5 5 88 94 98 99 5 56 75 25 58 99 100 100 100 100 100 100 100 100 100 100 100 100 100 89
100 99 100 100 21 6 37 20 5 5 5 57 94 54 5 5 5 5 5 8 79 46 87 6 5 5 5 5 52 84 100 100 100 100 100 100 100 100 100 100 100 100 99
100 100 100 5 47 78 88 75 55 41 5 5 41 77 68 5 27 5 46 97 72 36 17 3 4 5 1 20 9 68 94 100 100 100 100 100 100 100 100 100 100 100 100
100 100 100 8 65 58 94 71 70 48 5 71 86 69 82 68 27 5 54 99 89 55 4 5 5 5 1 5 5 7 84 95 100 100 100 100 100 100 100 100 100 100 100
100 100 91 88 56 74 83 56 60 9 5 5 5 6 19 5 5 5 59 58 5 5 5 5 5 5 5 5 5 5 41 86 97 100 100 100 100 100 100 100 100 100 100
100 100 100 64 98 98 88 82 82 85 11 5 5 23 54 8 5 6 91 59 5 5 5 9 63 6 5 5 5 5 5 6 99 100 100 100 100 100 100 100 100 100 100
97 100 66 74 100 100 100 97 97 100 100 59 5 32 17 45 92 86 93 99 93 74 15 5 15 62 20 5 5 5 5 5 24 68 100 100 100 100 100 100 100 100 100
100 94 98 100 100 96 99 100 71 75 81 31 43 76 9 5 55 97 98 99 98 100 100 71 65 57 60 29 22 6 46 5 6 48 57 100 100 95 100 100 100 100 82
92 99 100 98 100 97 100 100 54 52 66 82 97 82 6 24 66 86 86 98 100 93 96 100 74 70 87 81 86 76 20 40 5 5 37 69 99 100 100 100 100 100 100
100 100 98 100 100 99 99 100 90 53 79 78 90 67 14 20 71 91 98 100 100 100 95 92 98 88 90 92 76 70 13 38 49 5 5 17 97 92 100 100 100 100 100
100 100 100 98 99 100 100 100 94 19 52 74 84 69 42 88 77 85 84 92 96 99 95 88 85 84 88 82 96 98 47 24 68 5 5 5 72 80 72 100 100 100 100
100 97 96 96 100 97 100 100 96 73 54 68 85 99 85 73 79 72 74 30 77 91 86 95 95 81 81 83 88 55 68 25 97 69 5 5 61 73 57 72 100 100 100
100 100 99 100 100 99 100 100 100 77 86 81 98 100 100 98 96 100 87 52 28 75 96 100 100 68 44 83 94 63 5 36 98 90 5 5 67 73 60 7 89 100 100
100 100 92 94 98 96 100 100 100 100 100 98 99 100 100 100 100 100 100 100 100 99 92 100 100 96 57 72 58 20 5 52 46 25 5 11 89 89 75 5 63 63 100
99 96 100 99 97 100 100 100 100 98 99 89 92 92 96 100 100 100 100 100 100 100 99 86 99 99 59 87 52 9 5 21 18 5 5 5 17 5 16 5 55 83 54

GFSGL_prec_cloud_024.txt.gz
Cloud_Cover
100 100 26 70 84 73 58 40 5 5 5 5 5 5 5 42 95 81 46 90 88 99 100 100 100 100 100 100 100 100 100 100 98 5 100 100 100 100 100 89 100 100 100
100 81 56 75 86 5 5 5 5 5 5 5 6 40 44 82 87 100 100 82 90 100 100 100 100 100 67 98 100 100 100 100 100 100 100 100 100 100 100 100 100 100 100
97 71 74 42 5 5 5 5 9 6 52 54 96 52 76 92 69 23 97 100 100 99 100 95 79 5 5 5 5 83 100 100 100 100 100 100 100 100 100 100 100 100 100
93 100 86 21 11 58 24 18 14 81 93 99 49 46 15 49 97 90 84 100 100 100 68 5 5 5 5 5 16 95 100 100 100 100 100 100 100 100 100 100 100 100 100
100 94 90 99 91 53 53 21 88 97 39 22 75 85 84 64 36 32 87 97 95 15 5 2 2 4 5 72 97 97 100 100 100 100 100 100 100 100 100 100 100 100 100
100 100 100 98 78 73 93 73 84 86 71 48 46 95 75 82 5 5 9 20 5 5 4 0 2 5 87 16 96 93 90 100 100 100 100 100 100 100 100 100 100 100 100
100 100 76 56 91 93 100 100 99 98 65 6 94 81 87 90 5 5 4 1 5 5 4 5 5 31 100 100 100 100 100 100 100 96 100 100 100 100 100 100 100 100 100
93 79 69 75 100 100 100 98 87 100 99 100 100 94 82 39 5 5 3 4 5 5 5 7 53 30 100 83 100 100 100 100 100 100 100 100 100 100 100 100 100 100 100
100 100 100 100 100 96 100 82 100 100 100 100 100 94 80 93 5 5 0 6 75 54 44 75 33 5 100 94 100 100 100 100 100 100 88 72 28 38 77 92 100 100 100
99 100 100 100 92 98 100 100 100 100 100 100 93 69 34 61 5 5 2 24 89 94 83 79 18 28 45 98 100 100 100 100 100 100 100 100 100 100 99 99 100 100 100
100 100 100 100 100 100 90 100 94 90 96 63 5 33 80 6 42 5 3 10 93 81 77 91 56 18 22 62 70 100 96 100 100 100 100 100 100 100 100 100 100 100 100
100 100 100 100 100 98 100 100 99 91 92 94 81 34 95 86 53 27 5 5 13 93 94 100 59 4 5 5 38 21 64 87 100 100 100 100 100 100 100 100 99 99 100
100 100 100 100 100 100 100 100 98 100 100 100 100 100 100 100 100 86 5 5 26 90 92 14 5 5 5 3 5 25 25 91 100 100 100 100 100 100 100 100 100 100 100
100 100 100 100 100 100 100 100 100 100 100 100 100 100 100 100 100 100 100 100 100 100 99 12 6 5 5 5 18 8 5 7 96 100 100 100 100 100 100 100 100 100 100
100 100 100 100 100 100 100 100 100 100 93 98 100 100 100 100 100 97 42 91 98 80 5 86 96 68 5 5 5 5 16 5 21 100 100 100 100 100 100 100 100 100 100
100 100 100 100 100 99 100 100 99 77 31 5 5 5 5 17 10 5 5 17 81 5 47 100 100 100 99 43 26 5 20 5 5 34 100 100 100 100 100 100 100 100 100
100 100 100 100 100 100 100 100 99 98 90 37 39 12 5 6 37 21 30 75 92 51 89 100 100 100 99 69 5 6 6 5 5 5 53 100 100 100 100 100 100 100 100
100 99 100 100 100 100 100 97 100 100 100 100 94 92 52 5 5 26 37 90 100 100 81 100 100 100 100 95 20 5 5 34 86 5 48 88 100 100 100 100 100 100 100
100 100 100 100 100 82 100 85 90 100 100 100 100 100 95 6 5 5 63 100 100 100 100 100 100 100 100 100 99 100 94 80 41 43 92 87 100 100 100 100 100 100 100
100 100 91 81 100 83 100 100 100 100 100 100 100 100 100 100 86 97 97 98 100 100 100 100 100 100 100 100 100 100 98 100 100 78 49 70 100 100 97 100 100 100 100
89 86 75 74 100 99 98 100 100 100 100 100 99 85 88 82 100 100 100 100 100 100 100 100 100 100 100 100 100 100 100 100 100 100 99 8 77 100 100 95 100 84 90
72 100 99 100 94 99 98 100 100 100 100 100 89 100 100 80 84 83 93 96 100 94 100 100 100 100 100 100 100 100 100 100 100 100 100 25 96 100 100 97 92 100 97
100 97 89 88 100 98 93 100 100 100 100 98 100 100 100 100 99 98 84 81 92 100 93 99 99 100 100 100 99 100 100 100 100 100 100 100 100 100 100 100 100 87 100
84 100 100 93 100 100 100 100 100 100 100 100 100 97 97 100 97 97 98 100 100 100 100 98 100 100 93 96 100 100 100 98 100 99 99 69 97 100 100 100 100 92 83
99 100 98 100 100 100 100 100 100 100 100 100 100 100 100 100 100 100 100 100 100 100 100 100 100 98 96 93 93 98 100 64 54 92 100 92 100 100 100 97 96 100 100
99 98 87 94 100 100 100 100 100 100 100 100 100 100 100 100 100 100 100 100 100 100 100 100 100 100 98 90 100 97 99 65 17 6 92 100 100 99 100 100 84 89 100

GFSGL_prec_cloud_027.txt.gz
Cloud_Cover
5 22 91 100 100 21 81 36 98 80 5 5 5 5 5 8 29 5 11 5 11 76 92 23 72 100 94 89 100 41 100 98 63 2 26 96 98 94 100 76 90 35 22
41 52 100 100 75 78 76 83 100 12 5 5 5 6 40 48 17 68 82 23 98 100 100 88 100 100 100 48 5 7 5 5 78 8 13 100 100 100 92 100 100 100 96
39 93 100 83 100 99 82 100 64 5 9 5 5 21 72 75 100 98 90 100 98 85 92 96 99 97 5 5 19 5 5 50 100 70 65 98 94 100 74 98 99 75 100
76 100 100 70 61 41 91 95 14 31 42 51 52 19 87 95 98 100 100 75 94 100 99 100 61 15 5 5 5 5 61 100 100 100 100 100 100 97 100 99 93 78 100
84 100 100 87 92 82 100 71 91 100 100 58 63 50 58 100 100 42 56 60 88 100 92 9 16 5 0 1 5 85 100 100 100 100 99 75 98 100 100 100 100 100 67
100 100 90 88 100 100 100 100 100 100 100 100 77 97 88 100 96 61 45 5 5 6 5 5 5 27 81 5 88 86 54 99 99 100 100 100 100 100 100 100 100 100 91
100 99 94 100 100 100 100 100 100 100 77 43 76 99 84 99 21 4 6 0 5 10 9 5 14 12 94 64 74 93 99 94 90 71 97 100 100 100 99 97 99 100 100
100 100 100 100 96 100 100 100 100 100 93 97 100 100 100 100 54 17 5 0 11 62 74 77 67 78 70 5 5 70 80 100 100 100 100 96 99 70 69 100 99 96 85
100 100 100 100 100 100 100 100 100 100 100 100 100 100 100 99 46 98 5 5 44 78 99 76 41 12 18 4 5 74 80 94 100 94 37 21 5 5 21 95 100 100 100
100 100 98 99 100 100 100 100 100 100 100 100 100 100 99 99 100 5 5 5 66 98 98 69 100 5 5 5 12 65 97 99 39 72 73 98 100 100 100 93 100 100 99
100 100 100 100 100 100 100 100 100 100 100 94 100 77 98 100 93 92 5 5 63 94 73 74 99 24 3 5 5 69 83 23 72 100 100 100 100 100 100 96 100 100 100
100 100 100 100 100 100 100 100 100 100 100 100 100 95 100 97 58 11 5 5 4 55 96 95 91 6 3 5 5 7 1 28 99 100 100 100 100 100 100 92 100 100 100
100 100 100 100 100 100 100 100 100 100 100 100 100 100 100 88 90 96 5 5 5 49 97 51 5 5 5 5 5 5 7 100 82 100 100 100 100 95 98 90 97 98 100
100 100 100 100 100 100 100 100 100 100 100 100 100 100 97 98 99 100 64 81 84 95 97 98 23 5 10 22 78 100 100 99 65 98 100 100 100 100 100 100 96 100 100
100 100 100 100 100 100 100 100 100 93 94 99 100 100 95 86 88 52 82 100 100 100 10 36 99 100 99 100 100 100 100 100 100 16 100 100 100 100 100 100 100 99 100
100 100 100 100 100 100 99 89 81 100 100 81 8 5 9 5 5 5 22 13 23 50 65 98 92 100 97 100 100 100 100 100 100 96 100 100 100 100 100 99 100 100 100
100 100 100 100 95 92 99 100 100 100 93 6 5 7 5 10 41 5 6 5 58 99 87 98 100 100 97 100 100 100 100 100 24 100 100 100 100 100 100 100 100 100 100
98 93 100 98 100 100 99 100 100 98 79 67 84 52 5 5 25 6 12 80 100 100 99 99 100 100 99 100 100 100 100 100 100 100 100 100 100 100 100 100 100 100 100
92 100 100 100 85 96 100 100 91 98 100 94 98 96 40 23 63 55 73 90 93 100 100 100 92 100 97 100 100 98 100 100 92 89 100 100 100 100 100 100 100 100 92
83 91 98 89 89 100 100 88 96 100 100 100 100 100 100 100 96 91 89 100 99 100 100 99 99 98 100 100 96 100 100 100 100 100 100 100 100 100 100 100 100 100 100
82 89 100 100 100 91 99 100 100 100 100 100 100 100 98 100 94 100 100 100 100 95 99 93 100 100 100 91 97 100 100 100 100 100 100 100 100 100 100 100 100 100 100
44 94 100 100 88 44 26 98 100 100 98 100 100 100 100 100 100 100 98 100 100 99 98 99 100 100 100 97 100 100 100 100 100 100 100 100 100 100 100 100 100 100 99
100 98 91 100 60 12 8 99 100 100 100 100 100 100 100 100 100 100 100 100 100 100 97 98 100 100 100 99 99 96 100 100 100 100 100 100 100 100 100 100 100 100 100
92 96 83 100 100 23 81 98 100 100 100 100 100 100 100 100 100 100 100 100 100 100 100 100 100 100 100 100 100 100 100 100 100 99 89 100 100 100 100 100 100 100 100
100 93 100 100 41 51 76 99 100 100 100 100 100 100 100 100 100 100 100 100 100 100 100 100 100 100 100 100 100 100 100 100 100 100 100 100 100 100 99 100 100 100 99
99 100 100 100 53 89 88 82 100 100 100 100 100 100 100 100 100 100 100 100 100 100 100 100 100 100 100 100 100 100 100 100 100 100 65 100 100 100 100 100 98 100 100

GFSGL_prec_cloud_030.txt.gz
Cloud_Cover
12 5 5 8 89 100 96 100 100 99 80 5 84 100 100 100 100 100 18 5 5 29 94 84 100 100 98 58 6 6 5 18 5 1 0 0 4 3 0 0 0 0 0
47 5 12 30 100 82 95 100 100 77 45 80 88 100 74 100 84 5 5 5 48 100 79 90 73 91 18 31 5 4 0 0 0 3 5 5 5 0 4 5 5 5 5
5 6 93 100 100 100 73 99 85 66 99 100 96 34 50 26 46 66 53 10 100 66 26 15 16 5 5 3 0 0 0 1 5 5 5 3 5 5 5 5 5 5 8
7 80 100 100 100 100 94 100 96 62 94 86 93 87 95 99 95 98 35 100 88 38 25 16 49 5 5 4 0 0 1 5 5 5 5 5 5 5 22 42 24 5 5
9 80 100 100 100 100 97 100 100 100 100 100 100 100 98 98 100 100 100 100 100 66 5 80 14 5 4 0 1 3 5 5 5 5 5 5 5 5 10 71 86 27 5
57 100 100 100 100 99 97 100 100 87 100 100 100 100 100 84 100 100 100 100 100 100 100 42 4 5 5 5 5 5 5 5 5 5 10 99 39 86 98 89 79 17 39
100 100 100 100 100 100 100 100 100 100 100 100 100 100 100 88 100 100 100 100 98 92 72 5 5 5 5 5 4 0 0 4 47 99 100 100 100 91 17 16 5 5 14
100 100 100 100 94 100 98 93 100 100 100 100 100 100 100 100 100 100 100 100 82 22 36 5 5 46 5 0 0 0 2 5 5 68 93 8 20 5 5 5 5 5 5
68 100 100 100 100 100 100 100 100 100 100 100 100 100 100 100 100 100 76 100 100 5 5 5 17 8 5 5 2 4 5 4 5 11 5 5 5 76 83 99 76 96 62
87 94 97 100 99 100 100 100 100 100 100 100 100 100 100 100 99 100 100 98 5 5 5 5 5 5 5 5 4 5 5 5 4 1 5 5 20 61 100 100 100 100 98
100 100 100 100 100 100 100 100 100 100 100 100 100 100 100 100 100 100 14 5 5 5 5 5 36 24 5 5 3 5 5 4 2 5 5 8 97 99 59 33 92 100 100
100 100 100 100 100 100 100 100 100 100 100 100 100 100 100 100 100 18 6 5 5 5 5 5 5 5 2 5 3 0 5 5 8 16 5 17 98 97 97 70 6 69 69
100 100 100 100 100 100 100 100 100 100 100 100 100 100 100 95 92 44 57 68 15 5 5 5 5 5 5 5 5 5 46 5 77 5 5 26 8 99 94 100 49 75 88
100 100 100 100 100 100 100 100 100 100 100 100 94 88 83 92 100 88 95 42 53 5 5 48 66 20 8 12 9 46 66 64 70 68 35 4 5 52 90 96 71 100 100
100 100 100 100 100 100 100 100 100 89 72 93 79 82 68 99 100 100 76 77 80 86 87 41 45 32 100 64 26 51 45 17 9 68 5 11 59 6 50 60 100 97 100
100 100 100 100 100 100 96 88 85 5 5 26 51 70 49 95 96 77 62 5 47 100 76 5 20 55 78 77 62 40 9 5 31 5 25 98 100 97 5 67 100 100 92
100 100 100 100 99 97 100 42 46 5 5 54 84 100 100 100 100 29 70 63 10 20 38 5 8 47 96 100 95 50 44 19 5 11 90 54 100 100 94 7 94 100 77
21 83 78 57 20 9 5 5 22 6 12 5 60 99 97 99 100 60 34 87 96 97 99 71 45 46 81 98 97 86 71 5 5 40 12 72 100 100 100 99 22 100 99
5 5 16 34 81 9 36 78 97 47 47 53 97 89 77 94 100 98 97 96 96 97 69 80 49 55 65 97 83 89 71 76 48 5 5 82 100 100 92 100 84 38 100
5 5 8 60 39 100 100 100 81 74 78 86 93 99 100 99 100 100 100 99 96 57 34 41 99 93 99 100 96 84 94 89 67 81 93 61 100 79 32 99 100 74 53
8 20 6 96 99 49 99 62 39 73 84 100 83 72 100 100 100 100 100 100 100 100 92 73 92 82 84 89 100 94 97 100 100 83 41 54 81 11 12 100 100 100 14
25 20 11 61 96 98 65 21 8 23 46 98 87 99 100 100 100 100 100 100 100 100 100 81 89 93 100 99 100 100 100 96 100 99 47 5 28 24 77 100 98 100 99
97 100 99 100 91 80 98 45 11 32 30 73 100 100 100 100 100 100 100 100 100 100 100 100 97 96 97 100 99 100 100 98 98 99 58 8 5 45 97 21 86 98 86
5 7 46 48 98 100 100 100 66 16 24 79 100 100 100 100 100 100 100 100 100 100 100 100 100 100 100 100 90 98 100 96 100 95 47 54 10 37 65 90 19 79 100
9 9 91 82 82 100 100 100 89 97 51 100 100 100 100 100 100 100 100 100 100 100 100 100 100 100 100 100 100 94 100 100 100 100 88 44 12 15 77 5 5 5 31
89 100 100 98 84 50 100 100 100 100 95 94 100 100 100 100 100 100 100 100 100 100 100 100 100 100 100 100 100 100 100 100 100 100 100 100 100 63 32 38 81 39 5

GFSGL_prec_cloud_033.txt.gz
Cloud_Cover
5 5 7 83 87 100 99 99 100 100 100 100 96 100 55 39 41 71 5 66 86 90 99 100 78 95 100 98 80 90 99 5 4 0 0 0 0 0 0 0 0 0 0
5 4 4 5 84 90 100 100 100 100 97 52 62 6 5 5 5 69 35 68 75 94 100 100 100 100 100 53 21 1 0 0 0 0 0 0 0 0 0 0 0 0 1
5 14 46 95 100 100 100 100 100 89 75 98 45 11 65 89 79 92 46 28 100 100 100 100 100 100 100 92 49 4 0 0 0 3 0 0 0 0 0 1 0 1 3
79 81 98 100 100 100 100 100 100 100 100 89 92 98 100 93 97 100 99 100 100 100 100 100 100 100 100 100 93 0 0 0 1 5 5 1 4 2 5 12 45 5 2
100 100 100 100 100 100 98 96 100 99 100 97 100 100 100 99 100 100 100 100 100 100 100 100 100 100 100 100 1 0 0 4 5 5 5 5 5 14 94 79 8 2 2
64 100 100 100 79 100 34 100 100 100 100 100 100 100 100 100 100 100 100 100 100 100 100 100 100 100 100 68 0 3 5 5 5 57 5 63 50 99 62 5 5 5 26
85 88 100 100 100 87 94 100 100 100 100 100 100 100 100 100 100 100 100 100 100 100 100 100 100 100 67 5 5 5 0 0 0 3 5 94 94 84 8 5 5 21 75
100 100 100 96 100 100 100 100 100 100 100 100 100 100 100 100 100 100 100 100 100 100 100 100 100 8 5 5 5 0 0 0 0 3 93 15 16 42 89 89 69 76 27
96 92 96 100 100 99 100 100 100 100 100 100 100 100 100 100 100 100 100 100 100 100 100 65 5 5 5 5 5 5 4 2 0 4 0 5 5 9 84 100 93 91 71
99 97 97 99 100 100 100 100 100 100 100 100 100 100 100 100 100 100 100 100 100 84 5 5 5 5 5 5 5 5 7 2 4 2 0 2 5 5 53 94 100 99 100
91 100 100 100 100 100 100 100 100 100 100 100 100 100 100 100 100 100 87 29 42 26 5 5 5 5 5 5 5 5 5 2 5 5 5 2 5 5 5 5 70 100 100
100 100 96 99 97 100 100 100 100 100 100 100 100 100 100 100 28 16 65 8 5 5 5 5 5 46 14 5 5 5 5 5 5 5 5 5 5 5 5 5 5 5 76
81 96 88 76 99 100 100 100 100 100 100 100 100 100 76 5 46 61 97 83 85 68 5 5 5 5 8 17 10 5 6 5 5 41 29 5 5 5 5 44 48 86 49
100 21 82 100 97 100 96 89 89 96 100 86 60 12 5 31 69 92 98 100 92 54 5 8 22 9 5 23 96 97 55 40 22 59 21 10 5 5 5 6 84 100 100
22 49 14 5 5 5 0 0 5 5 5 15 5 33 84 92 75 88 95 97 80 89 31 31 99 49 16 98 100 100 93 60 11 5 15 6 5 5 5 5 23 100 94
54 13 8 2 0 0 4 5 5 5 0 5 5 52 77 78 100 100 77 65 69 98 97 98 98 71 23 11 81 70 71 75 55 27 5 23 40 47 5 5 5 67 100
8 5 5 0 0 5 5 5 5 4 1 0 0 5 72 99 100 99 100 100 100 100 81 44 94 33 38 46 97 68 81 85 54 54 11 5 54 8 10 7 5 5 100
3 0 1 5 5 5 5 5 5 5 5 5 5 5 5 100 100 100 100 100 96 97 77 57 59 54 6 14 5 51 54 66 68 50 11 7 62 62 68 39 44 63 33
5 5 5 19 86 91 97 100 100 78 5 5 5 9 66 96 31 95 96 100 100 91 98 91 96 56 34 34 18 50 100 72 51 58 35 32 64 94 54 19 79 20 15
74 71 77 89 95 88 38 11 55 100 83 48 21 5 18 100 94 100 100 100 100 100 99 100 100 78 46 21 65 95 100 72 66 74 58 69 78 53 6 38 77 85 16
62 42 26 79 99 89 76 84 92 100 97 28 28 5 30 99 31 89 98 100 100 100 100 100 100 88 96 64 88 62 67 100 85 57 54 59 76 6 9 50 88 61 90
47 5 5 5 5 34 74 100 100 83 67 100 74 24 59 92 68 100 100 100 99 100 100 100 100 100 100 87 82 90 88 73 89 76 36 15 52 6 42 69 69 61 24
5 33 71 95 96 72 70 19 83 84 100 100 99 33 77 79 92 100 100 100 100 100 100 100 100 100 100 100 93 93 80 77 100 91 99 59 62 52 64 38 27 71 67
100 98 100 89 100 100 92 79 91 100 100 100 100 100 100 98 100 100 100 100 100 100 100 100 100 100 100 100 97 75 87 85 100 100 100 97 92 67 60 48 18 14 69
80 100 98 100 100 100 100 100 93 92 100 100 100 100 86 88 94 97 100 100 100 100 100 100 100 100 100 100 100 92 76 100 100 100 100 100 100 72 85 21 67 5 43
94 100 94 100 100 100 100 100 100 100 100 100 100 100 100 81 72 90 96 100 100 100 100 100 100 100 100 100 100 100 100 100 100 100 100 100 100 94 48 65 30 58 32

GFSGL_prec_cloud_036.txt.gz
Cloud_Cover
0 4 19 74 100 100 100 100 100 100 84 100 100 100 78 92 96 66 100 91 74 82 82 100 66 67 100 66 72 87 88 100 66 27 5 2 0 0 0 0 0 0 0
3 5 10 55 69 100 99 100 45 96 100 100 99 87 31 22 15 92 97 100 100 100 100 100 100 100 100 100 100 100 100 100 81 0 1 0 0 0 0 2 0 0 1
6 94 85 68 94 93 100 6 5 100 65 66 73 91 70 65 30 98 98 84 95 100 100 100 100 100 100 100 100 100 100 42 5 3 1 0 0 0 0 1 4 5 0
71 37 40 80 96 99 61 27 40 96 66 56 68 66 98 96 89 77 73 74 80 96 100 100 100 100 100 100 100 99 50 4 0 5 5 5 5 1 5 5 32 5 0
100 100 99 99 82 64 16 100 100 100 80 100 100 96 100 100 100 100 100 100 100 100 100 100 100 100 100 100 44 3 0 3 5 5 5 5 5 5 13 9 13 5 2
8 100 100 100 100 100 100 100 100 100 100 100 100 100 100 100 100 100 100 100 100 100 100 100 100 100 73 100 2 1 5 5 5 66 5 5 6 70 26 38 6 48 87
30 97 100 100 95 34 98 100 90 100 100 100 100 99 100 100 100 100 100 100 100 100 100 100 100 100 30 3 5 5 5 4 0 5 6 17 66 5 48 70 81 96 90
100 100 100 100 100 100 100 100 100 100 96 100 100 100 100 100 100 100 100 100 100 100 100 100 82 3 5 5 5 5 5 1 0 0 5 4 4 38 96 99 100 97 70
40 95 100 100 100 100 100 100 81 100 100 100 100 100 100 100 100 100 100 100 100 94 17 79 83 4 0 5 5 5 5 5 5 2 5 5 5 5 48 100 90 96 87
15 72 99 100 100 100 100 100 100 96 88 56 97 100 100 93 5 21 98 100 100 87 51 83 5 0 5 5 5 5 5 5 5 5 5 1 0 2 3 36 94 100 100
100 100 100 100 100 100 100 100 83 95 92 70 6 5 5 1 5 5 12 94 98 100 17 10 5 4 1 5 9 6 5 25 84 5 5 5 5 5 1 5 5 45 94
100 100 100 100 100 100 92 62 83 24 5 5 5 5 5 5 5 5 5 93 100 81 57 98 48 6 5 5 28 68 94 79 61 10 21 9 5 5 5 5 5 5 6
100 100 100 100 100 100 79 94 94 5 5 5 3 5 5 5 5 5 9 51 92 76 88 82 99 7 5 15 63 44 65 30 64 98 84 6 32 8 5 5 0 5 67
100 100 100 100 100 99 89 31 5 5 5 5 5 5 5 5 5 5 35 63 16 100 97 93 85 79 9 14 54 19 5 62 100 100 99 44 67 5 5 5 5 5 46
100 100 100 90 83 89 61 28 5 5 1 5 4 1 5 5 5 14 89 72 87 69 99 86 95 95 74 26 87 56 6 74 100 100 89 64 76 55 25 5 7 5 36
100 100 94 79 65 43 70 54 5 0 0 2 3 3 0 2 4 5 40 67 100 100 100 78 100 100 100 42 66 52 6 40 76 70 92 97 87 72 70 11 5 13 5
100 100 99 97 97 89 42 24 49 3 5 5 39 28 48 5 5 5 74 100 100 100 100 72 100 100 78 97 90 81 28 10 45 46 57 100 54 67 70 59 53 56 5
100 100 100 100 100 94 84 46 46 89 88 49 99 100 100 99 5 7 38 98 100 100 100 99 100 100 91 95 73 98 82 72 88 70 62 67 61 71 78 67 39 100 86
78 99 100 85 99 100 100 100 100 100 100 100 91 42 100 100 6 5 75 86 99 96 100 100 100 100 100 97 82 92 84 65 59 99 100 100 62 74 77 51 71 82 92
100 100 58 44 5 5 5 5 8 35 97 100 100 76 99 100 59 97 63 100 100 88 100 100 100 100 100 100 100 100 99 100 99 100 100 100 85 93 65 26 59 96 87
100 57 12 58 100 91 98 100 100 81 52 16 92 99 100 100 57 83 64 25 96 97 100 100 100 100 100 100 100 100 100 99 100 100 90 94 97 82 51 50 71 87 85
34 96 98 97 96 97 99 100 100 100 100 100 100 82 60 100 100 100 76 85 97 89 100 100 100 100 100 100 100 100 100 100 100 99 92 99 92 71 60 65 80 74 56
50 64 98 80 74 97 100 100 100 100 100 98 100 100 100 100 100 100 100 100 100 100 100 100 100 100 100 100 100 100 100 100 100 100 97 100 100 97 71 79 60 79 61
80 100 49 88 100 100 100 100 100 100 100 100 100 100 100 100 100 100 100 76 90 89 100 100 100 100 100 100 100 100 100 100 100 100 100 92 88 98 79 62 66 62 21
98 98 72 100 100 100 100 100 100 100 100 100 100 100 100 100 100 100 100 98 62 21 72 100 100 100 100 100 100 100 100 100 100 100 100 100 100 90 95 77 60 50 21
85 97 93 99 100 100 100 100 100 100 100 100 100 100 100 100 100 100 100 100 96 64 50 100 100 100 100 100 100 100 100 100 100 100 100 100 100 100 100 80 87 75 73

GFSGL_prec_cloud_039.txt.gz
Cloud_Cover
0 0 5 5 10 24 100 100 100 91 87 42 61 100 100 100 100 98 100 100 100 100 92 100 87 79 88 100 100 100 100 85 89 98 100 100 18 0 0 0 0 0 1
0 3 4 15 9 48 100 14 64 57 74 58 100 100 100 97 98 100 100 100 100 33 15 83 100 100 100 100 83 99 100 100 100 100 33 5 0 0 0 4 0 0 0
24 63 15 38 51 80 93 98 100 99 92 98 100 100 100 100 88 100 94 80 28 79 90 65 96 100 100 100 100 100 100 100 87 43 3 0 5 0 0 1 5 0 2
50 6 37 51 52 90 100 100 100 96 100 100 100 100 100 100 100 97 64 90 82 45 68 100 100 100 100 100 98 23 3 2 1 5 5 3 5 2 5 5 5 5 0
17 87 82 63 100 100 100 94 100 97 89 100 100 100 100 100 95 72 100 78 15 45 99 100 100 83 9 5 5 0 0 5 5 5 5 4 5 5 11 5 5 5 5
66 5 46 85 100 100 100 100 100 100 100 100 100 100 100 100 100 90 86 22 64 63 45 89 82 65 5 5 5 1 5 5 5 45 5 5 5 5 5 14 22 98 94
8 64 21 93 100 100 100 100 100 100 100 100 100 100 100 100 100 98 19 5 5 77 97 87 74 5 75 99 15 5 5 5 5 5 5 5 5 5 31 88 97 100 100
5 36 94 95 100 100 100 100 100 100 100 100 100 100 100 100 99 21 72 58 15 69 77 70 93 64 39 50 5 5 5 5 5 5 3 5 5 5 10 72 96 73 26
70 96 100 100 100 100 100 100 100 100 100 100 100 100 100 72 35 100 53 5 85 27 89 99 82 30 5 5 5 5 5 5 5 5 5 5 5 5 5 5 5 96 93
95 100 100 100 100 100 100 100 100 100 100 100 100 87 66 100 100 35 4 5 5 59 99 89 99 48 5 5 5 5 5 5 5 5 5 5 5 5 5 5 5 100 100
100 100 100 100 100 100 100 100 100 100 100 100 78 100 100 100 45 5 5 5 5 46 97 84 62 89 5 5 5 5 5 6 12 6 5 5 12 6 5 5 5 5 99
100 100 100 91 84 98 100 100 100 100 100 100 100 100 100 42 45 4 5 5 5 77 39 32 84 98 28 22 5 5 5 5 5 78 94 58 35 18 5 5 5 5 11
96 99 98 95 100 100 100 100 100 94 100 85 100 99 38 52 7 5 5 5 14 76 86 38 91 100 98 100 75 53 16 5 19 91 29 6 5 5 9 5 5 5 5
33 9 71 97 71 19 72 46 74 99 83 100 97 8 47 5 5 5 6 52 89 93 46 70 73 100 100 100 81 70 77 28 25 24 18 21 8 34 85 7 58 5 38
5 8 5 5 5 9 86 98 95 99 100 100 43 23 5 5 5 5 56 8 7 11 95 100 100 100 100 100 75 93 96 94 78 67 56 21 5 75 60 47 46 40 78
5 5 5 5 10 88 99 100 100 100 100 100 80 100 71 28 57 82 58 81 5 6 100 84 98 100 100 100 100 91 88 72 43 11 5 5 18 96 53 54 62 82 97
17 37 31 85 100 100 100 100 90 100 100 100 53 5 98 65 79 100 100 100 59 52 100 100 93 95 100 100 100 100 92 94 69 54 12 9 93 94 74 69 70 78 74
38 50 100 100 100 100 96 72 95 66 46 6 23 20 5 20 73 98 96 95 63 100 100 100 100 88 100 100 100 100 100 100 91 64 52 90 100 100 77 74 62 97 100
100 100 100 99 86 41 62 92 94 96 99 95 36 5 5 5 41 85 100 100 94 100 100 100 100 97 100 100 100 100 100 100 94 89 83 66 100 100 96 72 68 58 97
100 100 100 99 95 96 98 100 99 88 99 100 100 100 69 71 96 86 100 98 82 100 100 100 89 86 100 100 100 100 100 100 100 99 66 61 98 100 94 71 76 93 83
100 95 32 74 95 56 72 100 100 100 100 100 100 100 100 100 100 100 98 100 99 100 100 100 87 100 100 100 100 100 100 100 100 100 96 84 98 97 100 54 53 73 89
43 100 35 5 73 100 100 100 100 100 100 100 90 100 100 99 100 97 98 100 100 100 100 100 100 100 100 100 100 100 100 100 100 100 100 87 92 100 100 100 81 82 67
94 81 7 18 96 100 100 100 100 100 100 100 100 100 100 100 100 100 100 100 100 100 100 100 97 99 100 100 100 100 100 100 100 100 100 100 99 90 100 88 98 86 77
89 61 56 60 100 99 100 100 100 100 100 100 100 100 100 100 100 100 100 100 100 100 97 99 100 100 100 100 100 100 100 100 100 100 100 100 100 100 99 98 96 78 69
77 76 77 88 100 100 100 100 99 100 100 100 100 100 100 100 100 100 100 100 100 100 100 98 100 95 100 100 100 100 100 100 100 100 100 100 100 100 100 98 99 100 98
43 44 84 90 96 81 93 100 100 100 100 100 100 100 100 100 100 100 100 100 100 100 100 100 94 84 100 100 100 100 100 100 100 100 100 100 100 100 100 100 100 95 100

GFSGL_prec_cloud_042.txt.gz
Cloud_Cover
7 2 2 27 81 83 100 100 100 100 100 98 78 100 100 100 97 100 90 100 100 67 5 5 26 8 5 5 4 4 5 48 32 0 0 0 0 0 0 0 0 0 0
82 5 92 84 94 96 99 83 84 100 100 100 100 100 100 100 98 100 100 94 85 38 79 63 5 5 22 5 5 3 0 5 5 0 0 0 0 0 0 0 0 0 0
33 55 95 100 99 99 94 82 86 100 100 100 95 100 96 94 100 100 96 98 89 86 100 27 78 98 78 5 5 5 5 5 0 3 0 0 0 0 0 0 4 4 2
2 22 41 36 17 79 100 74 100 100 96 100 93 100 100 100 100 100 100 100 100 100 100 100 100 89 5 5 5 5 5 5 0 1 5 4 0 0 3 5 5 1 4
4 23 7 5 5 61 96 100 100 99 97 100 91 100 100 97 100 94 100 100 100 100 100 100 82 65 5 89 90 39 71 5 4 5 5 4 0 2 1 5 5 5 5
67 81 50 51 100 100 97 46 28 100 100 100 100 100 100 100 100 100 100 100 100 100 96 68 100 100 99 99 14 73 86 46 5 5 5 5 4 2 5 5 41 100 97
100 93 91 100 100 100 100 100 100 99 100 100 100 100 100 100 100 100 100 100 100 84 80 91 98 96 93 100 69 84 42 5 5 5 5 4 5 5 5 54 97 99 95
64 98 85 92 100 100 100 100 100 100 100 100 100 100 100 100 100 100 100 100 66 94 52 91 98 92 76 100 80 5 5 5 5 5 5 5 5 5 5 5 10 35 34
82 78 86 100 100 100 100 100 100 100 100 100 100 100 100 100 100 100 100 32 47 83 57 75 96 87 96 100 65 5 5 5 5 5 2 5 5 30 9 5 5 56 91
56 59 78 100 100 100 100 100 100 100 100 100 100 100 100 100 100 100 44 40 41 5 5 5 89 98 98 100 84 29 5 5 5 5 5 5 5 5 5 5 5 75 100
82 100 100 100 100 100 100 95 94 80 98 85 61 95 100 100 100 90 67 20 5 5 6 100 100 96 100 100 99 50 33 5 68 5 6 29 5 5 5 5 5 5 52
100 100 100 100 100 100 83 43 12 43 35 7 65 100 100 100 77 86 26 5 5 5 16 34 91 95 93 100 97 31 92 71 99 90 94 79 5 5 5 5 5 5 5
100 100 100 100 78 86 89 33 12 5 5 75 99 100 100 55 32 6 5 2 4 20 14 5 13 80 98 100 100 98 100 69 93 100 100 62 5 30 5 6 5 45 5
100 100 99 56 70 51 7 5 6 12 64 100 100 71 5 5 5 5 5 49 9 78 77 36 15 77 96 100 97 100 100 89 94 100 100 28 23 33 5 50 36 56 63
82 80 26 24 14 5 5 20 53 53 53 37 15 23 55 29 16 86 96 100 100 99 100 100 100 100 100 87 100 100 100 94 94 100 100 86 34 5 5 74 6 12 81
75 44 53 41 27 33 35 78 32 21 11 5 5 11 5 37 7 10 50 100 99 100 100 99 100 87 86 92 100 100 100 98 98 98 100 86 54 22 15 58 5 63 55
84 70 16 19 5 6 5 43 81 53 12 5 5 5 5 5 5 5 8 10 82 100 100 100 100 100 100 100 95 100 100 100 90 100 100 94 54 44 66 5 9 66 5
12 12 19 16 6 37 42 81 83 100 89 5 5 71 78 91 90 64 6 10 96 100 100 100 100 100 100 100 100 99 100 100 100 100 100 100 77 57 46 12 9 68 5
28 49 59 38 59 10 12 6 42 78 100 95 34 5 39 52 9 67 16 96 98 100 97 100 100 100 100 100 100 98 100 100 100 100 100 100 100 94 70 64 52 60 47
54 72 52 59 44 47 84 95 100 100 100 100 100 100 100 91 60 90 100 99 89 97 100 100 100 100 100 100 91 100 100 100 100 100 100 100 100 100 48 70 77 69 9
100 98 51 65 62 94 96 100 100 100 100 100 100 100 100 100 100 100 100 100 100 100 100 100 100 100 100 100 96 100 100 100 100 100 100 100 100 100 82 94 90 87 38
99 65 34 23 74 93 94 87 100 99 100 100 100 100 100 100 100 100 100 100 100 100 100 100 100 100 100 100 91 100 100 100 100 100 100 100 100 100 100 87 95 92 57
99 72 51 26 59 41 50 62 100 86 100 100 100 100 100 100 100 100 100 100 100 100 100 100 100 100 100 100 94 100 100 100 100 100 100 100 100 100 100 98 92 92 76
98 54 40 21 65 25 53 70 95 38 82 100 100 100 100 100 100 100 100 100 100 100 100 100 100 100 100 100 93 100 100 100 100 100 100 100 100 100 100 100 100 97 80
59 89 97 95 100 97 66 21 79 7 60 98 100 100 100 100 100 100 100 100 100 100 100 100 100 100 100 99 76 91 100 100 100 100 100 100 100 100 100 100 100 100 93
80 19 37 90 33 35 11 65 80 30 46 99 96 99 100 100 100 100 100 100 100 100 100 100 100 100 100 100 100 100 98 100 100 100 100 100 100 100 100 100 100 100 100

GFSGL_prec_cloud_045.txt.gz
Cloud_Cover
78 64 61 88 100 100 100 100 100 100 100 100 100 100 100 100 100 100 100 100 100 96 58 99 100 93 20 5 5 5 5 47 58 5 5 5 0 0 0 0 0 0 0
87 51 96 100 100 100 100 100 100 100 100 100 100 100 100 100 100 100 100 100 100 99 100 84 95 65 10 5 13 17 5 5 5 5 5 5 5 4 0 0 0 0 0
93 100 100 100 100 100 100 100 100 100 100 91 100 100 100 100 100 100 100 100 99 100 90 87 61 41 29 62 38 6 5 5 5 5 5 5 5 5 2 0 0 2 0
97 100 100 99 100 100 100 85 84 87 100 100 100 100 100 93 100 100 100 100 100 100 96 100 98 76 97 100 69 5 5 5 13 8 5 5 5 5 5 0 1 0 0
17 58 100 100 94 54 22 78 100 98 75 100 100 100 100 100 100 100 100 100 100 100 100 99 97 100 100 100 14 50 58 5 39 85 66 5 5 5 0 0 5 1 5
4 9 55 72 9 90 100 100 100 100 92 99 100 100 100 100 100 100 100 88 100 100 100 100 100 100 100 94 64 74 90 56 56 100 89 14 5 5 0 5 5 5 5
0 4 73 98 100 100 100 94 100 98 100 100 100 100 100 100 100 100 100 100 100 100 100 100 100 98 43 82 54 87 94 99 8 7 71 33 89 6 2 5 38 61 66
5 5 23 67 71 89 100 100 99 100 100 100 99 100 100 100 92 92 91 89 73 72 91 100 54 5 25 89 79 83 100 78 54 5 5 5 37 1 6 83 100 95 86
6 5 6 34 87 97 100 100 100 100 100 74 89 91 57 59 7 28 60 65 37 98 74 70 4 4 5 16 74 98 61 97 8 5 5 5 5 4 22 83 100 98 88
10 68 93 100 100 94 100 100 100 99 54 82 60 66 32 11 9 40 52 29 92 78 39 2 0 0 5 52 38 65 80 9 84 5 5 5 5 5 5 5 83 100 100
100 97 96 89 100 100 100 89 83 43 77 36 47 53 67 70 77 58 64 47 9 5 5 5 5 1 5 15 88 98 99 100 83 69 60 10 26 5 34 81 77 99 100
57 95 94 80 22 7 37 46 66 80 78 90 74 90 74 42 50 44 6 5 5 28 5 5 5 5 5 5 76 90 95 100 100 99 95 92 84 56 58 88 75 85 100
71 6 5 10 11 18 37 49 90 51 56 80 35 27 32 78 78 55 5 5 95 99 78 5 5 5 73 30 98 95 100 100 100 100 98 97 82 73 100 33 38 88 98
9 53 13 5 5 10 9 55 28 12 14 5 15 31 26 22 38 75 100 75 22 33 52 97 100 99 96 100 100 100 100 100 100 100 100 100 100 89 100 71 97 100 99
5 15 27 64 48 21 7 5 5 5 5 5 5 5 9 5 14 36 39 34 67 92 83 98 100 100 100 100 100 100 100 100 100 100 100 100 100 100 100 95 96 97 100
33 36 26 7 24 6 5 18 50 5 5 5 5 6 52 47 32 30 7 58 66 41 22 100 100 100 100 100 100 100 100 100 100 100 100 100 100 100 100 100 98 100 100
40 37 41 47 42 5 5 5 5 5 5 55 37 51 80 99 94 69 55 90 24 18 46 11 86 100 94 98 100 100 100 100 100 100 100 100 100 100 100 98 100 100 100
68 27 58 42 5 5 5 5 5 5 5 5 43 46 87 100 99 100 100 6 72 95 100 73 70 89 97 100 100 100 100 100 100 100 100 100 100 100 100 99 100 99 100
80 53 45 47 5 5 5 5 5 5 23 5 5 5 60 91 90 97 98 100 100 100 100 100 100 100 100 100 100 100 100 100 100 100 100 100 100 100 100 100 99 81 65
76 59 72 59 5 33 46 5 5 59 33 51 68 94 94 72 97 100 100 100 100 100 100 100 74 100 100 100 100 100 100 100 100 100 100 100 100 100 100 100 95 100 94
95 84 90 70 80 66 18 57 72 94 84 85 100 100 91 100 100 100 100 100 100 100 100 100 100 100 100 100 100 100 100 100 100 100 100 100 100 100 100 100 100 95 100
100 100 94 97 77 68 14 28 99 94 70 85 96 90 86 100 100 100 100 100 100 100 100 100 100 100 100 100 100 100 100 100 100 100 100 100 100 100 100 100 100 100 99
100 100 95 90 67 52 54 70 73 81 76 86 97 90 100 100 100 100 100 100 100 100 100 100 100 100 100 100 100 100 100 100 100 100 100 100 100 100 100 100 100 100 100
100 100 97 78 88 100 94 51 71 13 40 77 99 100 100 100 100 100 100 100 100 100 100 100 100 100 100 100 100 100 100 100 100 100 100 100 100 100 100 100 100 100 100
100 100 90 100 100 90 77 94 65 74 86 95 100 100 100 100 100 100 100 100 100 100 90 100 100 100 100 100 100 100 100 100 100 100 100 100 100 100 100 100 100 100 100
100 100 100 99 100 100 95 83 78 87 98 100 100 100 100 100 100 100 100 100 100 98 100 99 100 100 100 100 100 100 100 100 100 100 100 100 100 100 100 100 100 100 100

GFSGL_prec_cloud_048.txt.gz
Cloud_Cover
5 88 100 100 100 100 100 100 100 100 100 100 100 100 100 98 100 100 100 100 100 100 100 96 100 96 100 100 100 100 100 100 96 83 72 98 100 84 66 5 5 0 0
2 22 56 100 100 100 100 100 100 100 100 100 100 100 100 96 100 100 100 100 100 100 100 100 100 100 99 100 100 100 100 100 100 80 94 89 100 100 99 22 5 0 0
7 26 72 100 100 100 100 100 100 100 100 100 100 100 100 100 100 100 100 100 100 100 100 100 100 100 100 100 100 100 100 100 100 100 100 100 100 100 100 88 5 0 0
49 88 95 100 100 100 100 100 100 100 100 100 100 100 100 100 100 100 100 100 100 100 100 100 100 100 100 100 100 100 100 100 100 100 100 100 100 100 100 82 5 0 0
77 99 98 99 99 100 89 84 77 80 93 100 100 100 100 100 100 100 100 100 100 100 100 100 93 100 100 100 100 75 100 100 100 100 100 100 100 100 100 100 17 1 0
36 31 69 88 97 85 48 28 5 8 74 35 45 81 100 100 100 100 100 100 100 100 99 74 65 91 100 100 74 50 37 97 99 100 100 100 100 100 100 100 14 4 4
0 0 11 52 27 40 18 5 39 55 89 100 100 96 100 100 100 100 98 59 82 98 97 100 100 100 98 86 44 6 14 91 71 64 100 100 100 100 100 98 5 5 5
2 0 0 1 5 25 38 80 89 89 100 100 100 100 100 100 88 12 14 58 75 98 74 81 97 100 77 20 5 23 52 93 82 72 70 62 100 100 100 54 5 59 66
5 5 5 5 5 34 36 72 98 100 100 100 100 100 60 51 5 5 5 12 34 67 89 84 75 14 5 10 19 10 6 95 71 96 19 100 5 5 5 8 16 89 98
5 5 27 68 81 98 100 100 100 85 57 91 49 48 5 5 5 6 11 82 94 10 7 30 16 5 10 11 5 5 50 22 100 100 65 7 46 44 35 33 53 100 100
47 70 93 99 83 100 100 97 89 100 72 69 15 5 5 5 37 8 9 33 41 14 20 5 16 62 6 4 5 5 5 58 99 99 100 100 99 100 100 94 100 100 100
79 72 86 100 100 100 100 100 94 53 39 11 5 22 28 56 30 28 7 5 6 56 94 65 67 86 98 76 87 8 61 80 98 100 100 100 100 100 100 100 100 100 100
99 100 100 98 96 100 100 77 8 5 5 7 19 5 5 5 5 5 5 12 78 10 28 27 19 85 100 100 100 100 100 100 100 100 100 100 100 100 100 99 100 100 100
85 72 89 89 79 48 5 29 62 94 66 93 46 5 5 5 6 86 16 5 5 5 5 5 8 69 79 73 100 91 81 100 100 100 100 100 100 100 100 100 100 100 100
39 33 30 9 23 5 8 58 23 8 5 5 5 5 5 6 51 67 88 70 44 26 75 11 5 9 5 26 88 84 100 100 100 100 100 100 100 100 100 100 100 100 100
5 5 16 22 14 98 83 6 12 5 5 5 5 5 34 85 92 97 100 100 95 62 76 86 27 8 5 5 27 100 100 100 100 100 100 100 100 100 100 100 100 100 100
5 5 23 60 68 81 68 75 53 5 5 29 10 49 78 74 80 71 94 86 60 35 99 98 79 94 100 99 100 100 100 100 100 100 100 100 100 100 100 100 100 100 100
76 77 89 81 58 30 45 5 5 5 5 5 14 5 5 52 63 80 90 47 50 93 100 100 100 100 100 82 94 100 100 100 100 100 100 100 100 100 100 100 100 100 100
84 100 88 74 40 5 5 5 5 11 10 5 5 5 52 25 95 100 100 100 100 100 100 100 100 100 100 92 100 100 100 100 100 100 100 100 100 100 100 100 100 100 100
100 100 96 95 74 53 30 36 52 75 35 38 36 95 96 40 97 100 100 100 100 100 100 100 100 100 100 100 100 100 100 100 100 100 100 100 100 100 100 100 100 100 100
100 100 100 94 100 100 94 99 94 74 63 62 94 100 57 88 100 100 100 100 100 100 100 100 100 100 100 100 100 100 100 100 100 100 100 100 100 100 100 100 100 100 100
100 100 100 100 100 100 97 84 84 88 80 90 100 98 81 100 100 100 100 100 100 100 100 100 100 100 100 100 100 100 100 100 100 100 100 100 100 100 100 100 100 100 100
100 100 100 100 100 100 97 100 100 100 100 100 100 100 100 100 100 100 100 100 100 100 100 100 100 100 100 100 100 100 100 100 100 100 100 100 100 100 100 100 100 100 100
100 100 96 100 100 94 100 100 100 81 93 100 100 100 100 100 100 100 100 100 100 100 100 100 100 100 100 100 100 100 100 100 100 100 100 100 100 100 100 100 100 100 100
100 100 100 100 100 100 100 100 100 100 100 100 100 100 100 100 100 100 100 100 100 100 100 100 100 100 100 100 100 100 100 100 100 100 100 100 100 100 100 100 100 100 100
100 100 100 100 100 100 100 100 100 100 100 100 100 100 100 100 100 100 100 100 100 100 100 100 100 100 100 100 100 100 100 100 100 100 100 100 100 100 100 100 100 100 100

GFSGL_prec_cloud_051.txt.gz
Cloud_Cover
83 100 100 99 95 100 90 95 100 100 100 100 100 100 100 100 100 100 100 100 100 100 100 100 100 100 100 100 93 88 100 100 100 100 100 100 100 50 45 28 93 21 57
27 64 100 97 100 100 100 100 100 100 100 100 100 100 100 100 100 100 100 100 100 100 100 100 100 100 100 100 100 100 100 100 98 96 100 100 97 77 9 6 10 14 65
100 100 100 100 100 100 100 100 100 100 100 100 100 100 100 100 100 100 100 100 100 100 100 100 100 96 100 98 100 100 100 96 100 100 66 89 22 53 61 12 78 71 6
93 100 94 100 100 100 100 100 100 100 100 100 100 100 100 100 100 100 100 100 100 100 100 100 100 100 94 92 100 100 100 100 99 49 61 27 16 59 78 73 39 96 100
82 65 95 100 100 100 100 100 100 100 100 100 100 100 100 100 89 100 100 100 100 100 100 100 100 76 97 100 100 100 100 100 80 32 10 5 70 90 96 100 64 46 46
83 69 60 55 83 80 78 78 90 73 85 74 50 55 100 100 42 66 100 100 100 100 89 84 100 99 100 100 100 100 100 97 99 63 5 5 7 92 36 76 100 82 96
5 3 0 1 1 2 5 5 45 52 59 86 100 93 88 100 100 100 98 91 98 100 72 45 79 94 99 100 93 34 55 11 5 5 5 5 15 66 21 100 100 99 97
5 5 5 5 15 23 40 62 75 87 92 100 100 100 100 96 96 42 92 88 60 20 22 60 52 76 66 30 7 8 5 5 5 24 5 4 15 17 74 100 98 53 5
5 20 60 68 75 69 86 98 100 100 95 78 95 100 100 66 94 92 21 10 7 16 73 97 46 5 37 36 23 5 5 5 5 84 35 78 9 64 99 100 73 100 5
5 5 5 26 49 100 80 71 100 100 100 95 22 85 75 62 9 5 8 77 23 7 68 74 61 33 28 6 75 30 5 5 5 5 94 10 10 23 64 100 56 96 81
9 19 40 87 89 51 99 88 44 65 96 87 98 96 100 99 98 100 99 25 57 28 9 10 19 34 5 87 90 100 93 34 6 5 46 93 82 93 38 83 100 100 100
74 79 99 100 99 97 81 97 100 54 58 18 81 51 64 54 73 42 5 8 5 5 5 25 8 5 4 2 24 57 94 100 100 100 100 98 100 100 89 100 96 26 27
99 29 68 60 76 71 69 74 46 58 27 5 5 4 5 5 5 5 5 5 5 5 5 5 5 5 5 5 30 28 89 100 100 100 100 100 100 84 100 100 99 100 100
11 41 15 11 59 13 56 74 68 8 10 7 8 5 5 5 5 10 5 5 5 5 5 5 5 5 5 5 5 5 30 76 100 100 98 94 96 100 98 100 100 100 100
91 62 16 5 10 39 49 5 5 7 16 5 16 32 82 6 34 35 29 15 8 5 6 5 25 75 86 85 88 87 7 34 70 100 100 100 100 100 100 100 100 100 100
5 5 28 97 93 55 42 5 6 5 5 26 6 38 14 35 5 46 67 68 45 80 34 20 41 60 83 70 62 42 84 70 76 100 100 100 100 100 92 100 98 100 100
100 94 80 88 95 100 90 6 5 33 100 100 100 75 58 5 61 70 88 58 12 33 88 83 94 100 95 100 97 94 100 99 100 99 100 100 100 100 96 100 100 100 100
100 100 100 100 100 96 72 58 100 100 100 100 80 34 49 37 7 51 88 48 93 92 100 100 100 100 100 100 100 100 89 100 100 76 95 100 100 100 98 100 100 100 100
100 100 100 100 100 100 100 100 100 100 100 93 99 98 82 66 40 88 89 100 100 100 100 100 100 100 100 100 100 99 99 100 100 100 100 100 100 59 99 100 100 100 100
100 100 100 100 100 100 100 100 100 100 100 100 98 94 100 99 66 100 100 100 100 100 100 100 100 100 100 100 100 100 100 100 100 100 100 100 100 92 90 100 100 100 100
100 100 100 100 100 100 100 100 100 100 100 96 92 100 100 31 100 100 100 100 100 100 100 100 100 100 100 100 100 100 100 100 100 100 100 100 100 100 100 100 100 100 100
100 100 100 100 100 100 100 100 100 100 99 100 100 100 88 100 100 100 100 100 100 100 100 100 100 100 100 100 100 100 100 100 100 100 100 100 100 100 100 100 100 100 100
100 100 100 100 100 100 100 100 100 100 100 100 100 100 100 100 100 100 100 100 100 100 100 100 100 100 100 100 100 100 100 100 100 100 100 100 99 100 100 100 100 100 100
100 100 100 100 100 100 100 100 100 100 100 100 100 100 100 100 100 100 100 100 100 100 100 100 100 100 100 100 100 100 100 100 100 100 100 100 100 100 100 100 100 100 100
100 100 100 100 100 100 100 100 100 100 100 100 100 100 100 100 100 100 100 100 100 100 100 100 100 100 100 100 100 100 100 100 100 100 100 100 100 100 100 100 100 100 100
100 100 100 100 100 100 100 100 100 100 100 100 100 100 100 100 100 100 100 100 100 100 100 100 100 100 100 100 100 100 100 100 100 100 100 100 100 100 100 100 100 100 100

GFSGL_prec_cloud_054.txt.gz
Cloud_Cover
93 96 100 99 92 97 64 99 100 100 64 72 100 100 100 100 100 100 100 99 100 100 100 100 100 100 100 98 100 100 100 96 72 5 5 17 48 99 100 100 88 5 0
100 100 100 100 67 91 100 100 100 100 100 100 100 100 100 100 100 100 100 100 100 100 100 100 100 100 100 99 74 86 82 94 100 8 5 76 100 86 44 21 5 4 2
94 100 100 100 100 88 100 100 100 100 100 100 100 100 100 100 100 100 100 100 100 100 100 100 100 100 100 100 100 93 97 100 98 76 47 35 5 5 5 56 1 5 5
39 46 41 94 77 100 100 100 100 100 100 100 100 100 100 100 100 100 100 100 100 100 100 100 100 100 100 100 99 90 99 94 100 93 19 6 24 44 97 63 5 5 34
29 58 64 51 100 100 100 100 100 100 100 100 100 100 100 100 100 62 84 100 100 100 100 100 100 100 100 94 100 78 75 62 64 6 14 71 80 7 92 100 100 61 65
14 64 99 100 100 100 100 100 100 100 90 45 3 5 5 6 24 95 100 100 100 100 100 54 55 98 96 48 53 70 67 5 5 5 5 5 5 38 50 100 16 82 54
5 11 66 84 85 73 81 64 8 18 34 79 81 39 74 100 100 100 99 82 63 5 5 5 5 5 5 5 5 5 9 8 35 14 74 5 5 2 7 94 46 12 55
1 4 5 5 5 5 13 48 12 14 22 60 100 100 94 47 8 20 57 5 8 73 32 6 5 5 5 13 49 28 29 22 29 26 29 26 5 5 8 19 79 11 5
5 3 5 5 5 8 83 100 100 100 62 100 76 26 28 80 78 7 6 21 6 23 32 100 22 5 7 16 20 5 5 5 5 5 12 41 36 46 47 99 100 96 9
49 12 5 5 15 36 90 96 84 21 71 99 11 11 37 5 76 92 13 37 29 5 5 5 18 77 88 69 5 10 78 80 97 51 30 97 94 16 52 95 97 100 68
5 10 16 8 43 79 64 49 36 55 36 5 5 5 11 71 88 99 75 5 5 5 9 40 48 46 5 5 5 5 2 1 5 56 86 100 100 100 100 6 95 100 100
4 6 12 84 74 62 54 40 15 14 23 30 37 34 6 5 72 37 5 79 70 30 48 14 9 5 5 5 5 5 5 5 55 85 100 97 100 100 100 99 93 100 19
10 100 92 36 42 77 71 88 99 73 34 34 14 34 18 58 24 93 48 63 100 60 50 48 5 5 5 5 6 94 97 96 90 80 92 73 97 100 74 100 100 60 50
54 74 100 96 67 99 100 80 100 51 16 98 94 89 80 99 93 7 6 71 100 94 23 27 17 17 7 5 5 5 14 93 100 100 94 44 52 100 100 100 100 100 100
97 75 82 96 94 68 63 49 100 98 99 92 100 100 100 100 95 70 100 100 100 9 7 51 14 5 5 5 5 5 5 32 91 98 87 96 67 99 100 100 100 100 99
100 100 100 94 92 96 100 89 100 100 100 100 100 100 100 97 96 94 100 100 100 96 9 5 5 5 5 5 11 37 5 94 80 98 98 100 100 100 100 100 100 95 100
100 78 94 100 100 100 88 100 100 100 100 100 100 100 100 78 99 99 60 98 100 58 49 6 10 5 5 74 86 99 99 100 96 100 100 100 100 100 100 100 100 95 100
100 100 100 100 100 100 100 100 100 100 100 100 100 100 100 100 100 100 100 100 68 22 28 61 5 5 55 89 68 100 100 100 100 100 100 100 100 100 100 100 100 81 97
100 100 100 100 100 100 100 100 100 100 100 100 100 100 100 100 100 100 98 77 30 77 95 56 7 22 65 86 77 97 100 100 100 100 100 100 100 100 100 100 100 88 94
100 100 100 100 100 100 100 100 100 100 100 100 100 100 100 100 100 100 100 87 99 100 82 58 59 56 67 86 77 93 100 100 100 100 100 100 100 100 94 100 100 97 93
100 100 100 100 100 100 100 100 100 100 100 100 100 100 100 100 100 100 100 100 100 100 29 100 98 14 78 100 100 61 100 92 100 100 100 100 100 100 100 100 100 96 99
100 100 100 100 100 100 100 100 100 100 100 100 100 100 100 100 100 100 100 100 100 56 100 93 68 99 100 100 61 61 100 92 100 100 100 100 100 100 100 100 99 100 100
100 100 100 100 100 100 100 100 100 100 100 100 100 100 100 100 100 100 100 100 100 100 62 60 75 98 83 5 59 100 100 100 97 99 100 100 100 100 100 100 100 100 100
100 100 100 100 100 100 100 100 100 100 100 100 100 100 100 100 100 100 100 100 95 77 10 69 98 14 5 91 100 99 100 93 88 100 100 100 100 100 100 100 100 100 100
100 100 100 100 100 100 100 100 100 100 100 100 100 100 100 100 100 100 91 95 91 16 96 29 13 100 97 61 55 90 100 100 100 98 41 100 100 100 100 100 100 100 100
100 100 100 100 100 100 100 100 100 100 100 100 100 96 97 100 100 100 99 82 95 91 6 67 74 66 32 76 100 100 100 100 100 100 100 100 100 100 100 100 100 100 100

GFSGL_prec_cloud_057.txt.gz
Cloud_Cover
40 64 100 100 100 100 100 93 55 85 100 100 100 100 100 100 100 100 100 100 100 100 100 100 100 100 100 100 100 77 81 100 88 33 25 8 9 5 84 67 12 3 5
100 100 100 100 100 100 100 100 100 100 100 100 100 100 100 100 77 100 100 100 100 100 100 100 100 100 100 100 96 100 100 100 100 94 6 17 23 82 82 39 5 5 5
100 100 100 100 100 100 100 100 100 100 100 100 100 100 100 100 100 100 100 100 100 100 100 100 100 100 100 100 100 100 100 100 100 100 78 24 5 24 55 66 12 93 100
100 100 100 100 100 100 100 100 100 100 100 99 100 100 100 100 100 100 100 100 100 100 93 100 100 100 100 90 100 100 91 76 90 100 100 95 99 53 91 65 84 44 96
100 90 100 100 100 100 88 100 100 100 100 100 100 100 100 100 100 100 100 99 100 100 100 100 100 94 15 8 69 39 11 25 40 5 5 5 6 5 5 3 5 20 98
79 97 95 100 100 74 96 100 100 100 100 100 100 100 100 100 97 56 32 89 100 100 100 78 5 5 5 6 24 28 24 8 7 6 6 37 5 5 5 5 5 6 95
22 50 71 73 83 100 100 100 100 100 100 91 75 8 0 4 4 22 97 84 84 36 5 5 5 5 5 5 7 5 5 6 12 75 100 97 86 22 35 12 58 99 100
33 51 100 93 64 100 66 17 8 2 3 2 23 35 32 94 73 16 47 5 5 5 33 11 36 42 5 5 5 5 10 100 100 67 65 22 44 39 78 5 27 100 100
13 0 4 0 3 5 5 21 5 5 47 100 95 34 8 8 16 79 13 5 5 5 5 7 5 17 5 5 17 92 100 100 100 100 91 5 15 81 100 89 87 97 16
5 4 20 5 24 5 11 80 100 27 33 5 5 13 97 89 8 5 5 5 5 11 87 92 100 27 21 55 21 62 99 95 77 76 5 5 5 5 5 74 98 100 100
0 5 4 5 5 4 38 75 10 13 16 37 34 23 18 55 45 92 14 10 54 94 100 100 100 100 100 93 95 100 67 25 80 59 67 38 5 5 17 94 52 100 100
4 5 5 5 4 5 5 5 5 5 5 5 5 35 14 5 41 63 21 49 76 88 100 100 100 99 100 100 100 44 61 6 35 59 70 44 59 46 5 7 96 80 96
29 26 6 5 5 41 8 67 97 85 98 85 68 25 34 94 76 70 100 94 98 98 100 82 85 75 80 100 100 11 18 11 5 67 98 100 85 36 98 95 52 100 99
100 100 100 10 5 29 14 86 96 84 98 100 100 87 78 85 74 78 98 90 69 84 100 100 100 100 100 100 43 60 37 43 43 100 100 100 100 91 71 91 67 100 100
100 100 92 44 13 75 98 97 80 93 81 100 98 100 99 99 96 85 100 100 100 100 100 100 100 100 100 100 78 98 99 100 85 100 100 100 100 100 92 92 100 100 100
100 100 51 90 100 100 100 99 100 100 100 100 100 100 100 100 100 100 100 100 100 100 100 100 100 100 100 94 97 100 100 92 100 100 100 100 100 100 99 100 100 100 100
92 88 100 100 100 100 100 100 100 100 100 100 100 100 100 100 100 96 100 100 100 100 100 100 100 100 100 99 86 100 100 100 100 100 100 100 100 100 100 98 100 100 100
100 100 100 100 100 100 100 100 100 100 100 100 100 100 100 100 100 100 100 100 100 100 100 100 100 100 100 100 100 100 100 100 100 100 100 100 100 100 98 100 100 100 100
100 100 100 100 100 100 100 100 100 100 100 100 100 100 100 100 100 100 100 100 100 100 100 100 100 98 100 100 86 56 64 73 100 88 100 100 100 100 100 100 100 86 65
100 100 100 100 100 100 100 100 100 100 100 100 100 100 100 100 100 100 100 100 100 100 100 80 91 100 100 69 56 98 50 37 100 95 100 100 100 100 100 100 100 100 100
100 100 100 100 100 100 100 100 100 100 100 100 100 100 100 100 100 100 100 100 100 100 100 100 100 100 57 45 99 43 5 86 90 100 100 100 100 100 100 100 100 100 100
100 100 100 100 100 100 100 100 100 100 100 100 100 100 100 100 100 100 100 100 100 100 100 100 92 57 65 97 49 12 96 100 100 100 100 100 100 100 100 100 100 100 100
100 100 100 100 100 100 100 100 100 100 100 100 100 100 100 100 100 100 100 100 100 100 100 45 61 63 21 8 55 100 100 100 100 100 100 100 100 100 100 100 100 99 100
100 100 100 100 100 100 100 100 100 100 100 100 100 100 100 100 100 100 100 100 100 87 20 52 10 5 66 61 13 56 99 100 100 100 100 100 100 100 100 100 100 100 100
100 100 100 100 100 100 100 100 100 100 100 100 100 100 100 100 100 100 100 92 37 86 25 5 5 5 5 5 5 71 92 100 100 100 100 100 100 100 100 100 100 100 100
100 100 100 100 100 100 100 100 100 100 100 100 100 100 100 100 100 90 27 17 85 70 10 5 5 5 18 46 99 100 100 100 100 100 100 100 100 100 100 100 100 100 100

GFSGL_prec_cloud_060.txt.gz
Cloud_Cover
59 88 100 100 100 100 100 100 100 100 100 100 98 100 100 100 100 100 100 100 100 100 100 100 100 100 100 100 100 100 100 100 100 100 100 100 42 5 6 24 14 47 76
100 100 100 100 100 100 100 100 100 100 100 100 85 100 100 100 100 100 100 100 100 100 100 100 100 100 100 100 100 100 100 100 100 100 100 100 46 28 97 99 78 77 58
100 100 100 100 100 100 100 100 100 100 100 100 99 100 100 100 100 100 100 100 100 100 100 100 100 100 100 100 100 100 100 100 95 87 73 92 95 39 5 16 13 73 72
100 100 100 100 100 100 100 100 100 100 100 100 100 100 100 100 100 100 100 100 100 100 100 100 100 100 100 100 100 82 100 68 34 30 52 18 7 25 5 5 5 27 5
100 100 100 100 100 100 100 100 100 100 100 100 100 100 100 100 100 100 100 100 100 100 100 100 100 100 100 67 57 52 85 95 97 96 93 84 55 5 5 8 83 87 33
100 100 100 100 100 100 100 100 100 100 100 100 100 100 100 100 100 100 100 100 100 100 100 100 100 86 7 10 5 5 5 17 38 48 80 98 97 9 70 100 100 99 68
94 100 100 100 100 100 100 100 100 100 100 100 100 100 100 100 100 100 88 50 100 100 100 72 34 18 5 5 5 5 19 72 63 70 84 69 55 82 54 98 100 100 55
100 100 100 100 100 100 100 100 100 100 100 100 100 100 100 82 23 36 50 100 55 18 5 5 5 5 5 5 22 5 100 100 87 100 79 100 94 51 94 99 10 58 84
100 100 100 100 100 100 100 100 100 100 93 40 14 1 2 57 45 98 9 5 5 5 65 32 5 5 5 38 5 52 100 100 100 100 100 100 76 100 100 66 100 100 77
47 43 66 100 100 99 67 5 5 5 5 19 23 19 86 100 27 5 5 8 5 33 5 5 5 5 5 25 66 70 89 97 100 100 100 100 100 100 100 83 77 91 90
45 20 44 58 14 5 5 2 2 3 5 14 21 72 100 100 72 5 21 28 62 75 98 58 35 49 62 69 44 13 62 100 100 55 100 98 99 84 87 75 89 100 100
23 5 5 5 3 1 1 33 43 17 4 9 5 11 7 9 22 78 87 98 100 100 100 100 100 97 100 98 76 97 100 100 100 100 100 89 31 97 43 92 12 62 97
5 32 21 5 5 6 6 58 30 30 14 7 5 6 18 13 100 100 100 98 100 100 100 100 100 100 100 100 100 100 100 100 100 100 100 100 90 76 99 97 41 7 75
70 32 28 24 73 78 48 20 35 29 7 22 99 89 87 97 99 90 92 94 100 100 100 100 100 100 100 99 91 100 100 100 100 100 100 100 100 100 100 100 100 76 99
100 100 100 99 100 76 66 100 100 100 100 100 92 100 100 100 100 100 100 100 100 100 100 88 100 100 74 86 100 100 100 100 100 100 100 100 100 100 100 100 100 100 100
100 100 100 100 100 100 97 100 100 100 100 100 100 100 100 100 100 100 100 100 100 100 99 100 100 100 100 100 100 100 100 100 100 100 100 100 100 100 100 98 97 100 100
100 100 100 100 100 100 100 100 100 100 100 100 100 100 100 100 100 100 100 100 100 100 100 100 100 100 100 100 100 100 100 100 100 100 100 94 100 100 100 100 98 99 100
100 100 100 100 100 100 100 100 100 100 100 100 100 100 100 100 100 100 98 100 100 100 100 100 100 100 100 100 100 100 100 100 100 100 92 94 100 100 100 100 100 96 100
100 100 100 100 100 100 100 100 100 100 100 100 100 100 100 100 100 100 100 100 100 100 100 100 100 100 100 100 100 100 100 100 100 90 75 100 91 98 100 100 100 100 100
100 100 100 100 100 100 100 100 100 100 100 100 100 100 100 100 100 100 100 100 100 100 100 100 100 100 100 100 100 100 100 99 50 100 100 100 83 100 100 100 100 100 100
100 100 100 100 100 100 100 100 100 100 100 100 100 100 100 100 100 100 100 100 100 100 100 100 100 100 100 100 100 100 47 75 84 100 100 100 100 100 100 100 100 100 100
100 100 100 100 100 100 100 100 100 100 100 100 100 100 100 100 100 100 100 100 100 100 100 100 100 100 100 100 56 100 100 99 75 68 100 100 100 100 100 100 100 100 100
100 100 100 100 100 100 100 100 100 100 100 100 100 100 100 100 100 100 100 100 100 100 100 100 100 100 32 20 48 82 100 100 100 100 100 100 100 100 100 100 100 100 100
100 100 100 100 100 100 100 100 100 100 100 100 100 100 100 100 100 100 100 100 100 100 100 96 22 5 6 22 5 21 74 99 100 100 100 100 100 100 100 100 100 100 100
100 100 100 100 100 100 100 100 100 100 100 100 100 100 100 100 100 100 100 100 95 30 5 5 5 5 5 5 5 8 37 92 100 100 100 100 100 100 100 100 100 100 100
100 100 100 100 100 100 100 100 100 100 100 100 100 98 94 94 94 82 79 68 5 21 10 5 13 5 5 29 89 100 93 95 100 100 100 100 100 100 100 100 100 100 100

GFSGL_prec_cloud_063.txt.gz
Cloud_Cover
100 100 100 100 100 100 94 97 100 98 99 100 100 100 100 93 100 100 100 100 100 100 100 100 100 100 100 100 100 100 100 100 100 100 100 100 96 100 100 27 18 73 5
100 100 100 100 100 100 100 100 100 100 99 100 100 100 100 100 100 100 100 100 100 100 100 100 100 100 100 100 100 100 100 100 100 100 100 100 100 92 47 33 100 35 99
100 100 100 100 100 100 100 100 100 100 100 100 100 100 100 100 100 100 100 100 100 100 100 100 100 100 100 100 100 100 100 100 90 100 100 91 77 48 48 100 93 70 58
68 100 100 100 100 100 100 100 100 100 100 100 100 100 100 100 100 100 100 100 100 100 100 100 100 100 100 100 100 100 98 100 84 90 100 100 100 100 97 17 5 7 97
0 58 100 88 77 100 100 100 100 100 100 100 100 100 100 100 100 100 100 100 100 100 100 100 100 100 100 100 100 100 53 100 100 90 80 89 46 60 100 99 53 35 19
0 0 76 100 100 100 100 100 100 100 100 100 100 100 100 100 100 100 100 100 100 100 100 100 100 100 100 100 56 39 38 85 77 92 84 89 98 100 97 79 75 8 100
0 1 44 100 100 100 100 100 100 100 100 100 100 100 100 100 100 100 100 100 100 100 100 100 100 100 87 43 59 54 47 25 5 22 77 100 88 100 62 60 48 16 96
27 58 92 100 100 100 100 100 100 100 100 100 100 100 100 100 100 100 100 100 100 100 100 100 100 37 5 54 41 50 69 100 100 100 92 99 100 50 36 50 87 100 100
100 100 100 100 100 100 100 100 100 100 100 100 100 100 100 100 100 100 100 100 66 59 61 41 23 52 88 99 89 98 100 100 100 100 100 100 97 98 96 50 84 100 100
100 100 100 100 100 100 100 100 100 100 100 100 100 100 100 100 91 78 58 40 14 5 5 42 29 94 95 100 100 100 100 100 100 100 100 100 100 100 100 100 100 100 100
100 100 100 100 100 100 100 100 100 100 100 100 100 100 100 100 86 61 7 5 5 5 5 68 79 94 100 88 87 92 78 84 94 99 100 100 100 100 100 100 100 100 98
100 100 100 100 100 100 100 100 100 93 100 100 100 100 100 100 100 42 6 28 36 56 100 78 85 95 99 100 94 99 87 66 80 73 82 97 95 100 100 100 100 100 100
91 100 100 100 100 100 89 28 40 54 100 100 100 100 100 100 99 91 100 100 100 100 100 100 100 100 86 100 100 100 100 93 93 100 93 100 100 100 100 100 100 79 100
100 100 100 100 100 90 100 100 100 100 95 86 84 82 62 86 94 100 99 100 100 100 100 100 100 100 100 100 100 100 100 100 100 100 100 100 100 100 100 100 100 100 100
100 100 100 100 100 100 100 100 100 100 94 94 90 100 100 100 100 100 100 100 100 100 100 100 100 100 100 100 100 100 100 100 100 100 100 100 100 100 100 100 100 100 100
100 100 100 100 100 100 100 100 100 100 100 100 100 100 100 100 100 100 100 100 100 100 100 100 100 100 100 100 100 100 100 100 100 100 100 100 100 100 100 100 100 100 100
100 100 100 100 100 100 100 100 100 100 100 100 100 100 100 100 100 100 100 100 100 100 100 100 100 100 100 100 100 100 100 100 100 100 100 100 100 100 100 100 100 100 100
100 100 100 100 100 100 100 100 100 100 100 100 100 100 100 100 100 100 100 100 100 100 100 100 100 100 100 100 100 100 100 100 100 100 100 100 100 100 100 100 100 100 100
100 100 100 100 100 100 100 100 100 100 100 100 100 100 100 100 100 100 100 100 100 100 100 100 100 100 100 100 100 100 100 100 100 100 100 100 98 100 100 100 100 100 100
100 100 100 100 100 100 100 100 100 100 100 100 100 100 100 100 100 100 100 100 100 100 100 100 100 100 100 100 100 100 100 100 100 100 100 95 91 82 100 100 100 100 100
100 100 100 100 100 100 100 100 100 100 100 100 100 100 100 100 100 100 100 100 100 100 100 100 100 100 100 100 100 100 100 100 99 78 100 92 93 100 100 100 100 100 100
100 100 100 100 100 100 100 100 100 100 100 100 100 100 100 100 100 100 100 100 100 100 100 100 100 100 100 100 100 100 100 100 82 75 96 100 100 100 100 100 100 100 100
100 100 100 100 100 100 100 100 100 100 99 99 100 100 97 100 100 100 96 100 100 100 100 100 100 100 100 95 58 86 100 100 100 100 100 100 100 100 100 100 100 100 100
100 100 100 100 100 100 100 100 100 96 100 100 100 100 100 98 99 100 100 100 100 100 100 100 100 94 26 22 14 21 58 80 100 100 100 100 100 100 100 100 100 100 100
100 100 100 100 100 100 100 100 100 100 100 100 100 100 100 100 100 100 100 100 71 62 36 6 11 5 5 5 19 5 41 99 100 100 100 100 100 100 100 100 100 100 100
100 100 100 100 100 100 100 100 100 100 100 100 100 100 100 100 100 99 98 74 21 5 8 5 5 5 5 5 23 86 69 64 81 100 100 100 100 100 100 100 100 100 100

GFSGL_prec_cloud_069.txt.gz
Cloud_Cover
84 77 85 78 100 100 70 72 97 86 100 100 100 86 24 6 5 10 55 89 99 99 100 100 100 96 98 100 100 100 100 100 100 100 100 100 99 59 52 100 100 91 100
5 40 98 34 87 84 98 100 100 96 93 100 100 100 100 41 28 100 100 92 100 100 100 100 100 100 100 100 100 100 100 100 100 100 100 95 77 99 98 96 95 99 60
0 0 28 100 100 98 98 100 98 58 5 82 94 100 100 100 100 100 100 100 100 100 100 100 100 100 100 100 100 100 100 100 99 100 100 100 100 100 100 100 95 94 89
1 4 0 1 49 91 100 94 100 27 44 34 55 100 100 100 97 100 100 100 100 100 100 100 100 100 100 100 100 100 100 100 100 100 100 100 93 100 100 91 90 66 97
25 5 5 0 0 6 54 45 37 60 10 94 81 100 95 86 100 100 100 100 100 100 100 100 100 100 100 100 100 95 100 100 100 100 100 100 100 98 50 78 89 100 98
26 5 5 5 5 3 1 71 90 14 11 6 66 50 100 100 100 100 100 100 100 100 100 100 100 100 100 100 100 100 100 100 100 100 99 100 100 46 100 100 100 100 100
5 68 4 5 6 7 6 1 0 12 74 100 92 100 100 100 100 100 100 100 100 100 100 100 100 100 100 100 100 100 100 100 100 100 100 100 65 100 90 96 99 75 31
30 86 96 26 9 14 38 59 60 100 100 100 100 100 100 100 100 100 100 100 100 100 100 100 100 100 100 100 100 100 100 100 100 100 78 100 100 98 63 98 73 29 62
78 32 32 17 100 44 82 100 100 100 100 100 100 100 100 100 100 100 100 100 100 100 100 100 100 100 100 100 100 100 100 100 73 66 96 100 100 66 96 76 45 26 20
100 99 77 92 50 100 100 100 100 100 100 100 100 100 100 100 100 100 100 100 100 100 100 100 100 100 100 100 100 100 100 83 73 100 99 88 94 90 72 40 49 87 40
100 99 98 100 100 100 100 100 100 100 100 100 100 100 100 100 100 100 100 100 100 100 100 100 100 100 100 100 100 100 100 100 100 100 100 100 88 89 77 65 62 100 100
100 100 100 100 100 100 100 100 100 100 100 100 100 100 100 100 100 100 100 100 100 100 100 100 100 100 100 100 100 100 100 100 100 100 100 100 100 99 100 100 100 100 100
100 100 100 100 100 100 100 100 100 100 100 100 100 100 100 100 100 100 100 100 100 100 100 100 100 83 100 100 100 100 100 100 100 100 100 100 100 100 100 100 100 100 100
100 100 100 100 100 100 100 100 100 100 100 100 100 100 100 100 100 100 100 100 100 100 100 100 100 100 100 100 100 100 100 100 100 100 100 100 100 100 100 100 100 100 99
100 100 100 100 100 100 100 100 100 100 100 100 100 100 100 100 100 100 100 100 100 100 100 100 100 100 100 100 100 97 100 100 100 100 100 100 100 100 100 100 100 94 97
100 100 100 100 100 100 100 100 100 100 100 100 100 100 100 100 100 100 100 100 100 100 100 100 100 100 100 100 100 100 100 100 94 100 100 100 100 100 100 100 100 100 100
100 100 100 100 100 100 100 100 100 100 100 100 100 100 100 100 100 100 100 100 100 100 100 100 100 100 100 100 100 100 100 100 100 100 100 100 100 100 100 100 100 100 100
100 100 100 100 100 100 100 100 100 100 100 100 100 100 100 100 100 100 100 100 100 100 100 100 100 100 100 100 100 100 100 100 100 100 100 100 100 100 100 100 100 100 94
100 100 100 100 100 100 100 100 100 100 100 100 100 100 100 100 100 100 100 100 100 100 100 100 100 100 100 100 100 100 100 100 100 100 100 100 100 100 100 100 100 100 100
100 100 100 100 100 100 100 100 100 100 100 100 100 100 100 100 100 100 100 100 100 100 100 100 100 100 100 100 100 100 100 100 100 100 100 100 100 100 100 100 100 100 100
100 100 100 100 100 100 100 100 100 100 100 100 100 100 100 100 100 100 100 100 100 100 100 100 100 100 100 100 100 100 100 100 100 100 100 100 100 100 100 100 100 100 100
100 100 100 100 100 100 100 100 100 100 100 100 100 100 99 100 100 100 100 100 100 100 100 100 100 100 100 100 100 100 100 100 100 100 100 100 100 100 100 100 100 100 100
100 100 100 100 100 100 100 100 100 100 100 100 100 100 100 100 100 100 100 100 100 100 100 90 78 54 85 100 100 100 100 100 100 100 100 100 100 100 100 100 100 100 100
100 100 100 100 100 100 100 100 100 100 100 100 100 100 100 100 100 100 100 100 100 96 74 62 50 54 30 64 100 100 100 100 100 100 100 100 100 100 100 100 100 100 100
100 100 100 100 100 100 100 100 100 100 100 100 100 100 100 100 100 100 100 89 67 79 78 88 98 93 81 64 53 85 100 100 100 100 100 100 100 100 100 100 100 100 100
100 100 100 100 100 100 100 97 100 100 100 100 100 100 100 100 100 100 100 100 100 96 99 100 100 87 71 59 80 100 100 100 97 100 100 100 100 100 100 100 100 100 100

GFSGL_prec_cloud_072.txt.gz
Cloud_Cover
0 0 0 4 5 14 100 99 86 95 46 96 69 91 45 19 32 26 53 100 89 23 49 25 55 84 100 82 100 100 100 100 100 100 100 100 100 100 97 93 64 5 82
4 0 3 5 4 98 54 86 100 100 100 99 67 63 96 100 77 98 67 37 26 77 66 99 100 100 100 100 100 100 100 100 100 100 100 100 100 100 100 66 62 100 100
0 1 0 1 2 24 24 7 14 57 74 100 100 100 79 26 83 83 98 93 100 96 92 100 100 100 100 100 100 100 100 100 100 100 100 100 100 87 100 100 100 100 78
5 5 5 2 0 0 4 22 5 17 83 48 6 39 74 20 56 77 98 100 99 100 100 100 100 100 100 100 100 100 100 100 100 100 100 64 80 91 100 100 100 100 79
10 53 5 5 5 1 0 1 46 13 5 5 5 47 55 89 100 100 100 100 100 99 100 100 100 100 100 100 100 100 100 100 100 100 100 90 99 100 100 100 95 100 100
5 5 5 27 6 5 4 0 1 3 11 5 5 5 12 21 52 100 69 92 100 100 100 100 100 100 100 100 100 100 100 100 100 100 100 100 100 100 100 100 100 100 100
25 6 6 25 36 6 18 45 25 17 26 6 11 31 27 71 100 100 100 100 100 100 100 100 100 100 100 100 100 100 100 100 100 100 100 100 100 100 100 97 95 97 87
97 69 17 67 97 28 23 5 28 36 66 59 55 56 85 100 100 100 100 100 100 100 100 100 100 100 100 100 100 100 100 100 100 100 100 100 100 100 100 93 90 72 93
100 97 99 94 99 100 100 95 64 93 92 97 100 100 100 99 100 100 100 100 100 100 100 100 100 100 100 100 100 100 100 100 100 100 100 100 100 100 100 100 100 94 100
100 100 100 100 100 100 100 100 100 100 100 100 100 100 100 100 100 100 100 100 100 100 100 100 100 100 100 100 100 100 100 100 100 100 100 100 100 100 88 100 94 100 100
100 100 100 99 99 99 100 100 100 100 100 100 100 100 100 100 100 100 100 100 100 100 100 100 100 100 100 100 100 100 100 100 100 100 98 99 100 100 100 100 100 100 100
100 100 100 100 99 100 100 100 100 100 100 100 100 100 100 100 100 100 100 100 100 100 100 100 100 100 100 100 100 100 100 100 100 100 100 100 100 92 100 100 100 100 100
100 100 100 100 100 100 100 100 100 100 100 100 100 100 100 100 100 100 100 100 100 100 100 100 100 100 100 100 100 100 100 100 100 100 98 88 100 100 100 100 100 100 100
100 100 100 100 100 100 100 100 100 100 100 100 100 100 100 100 100 100 100 100 100 100 100 100 100 100 100 100 100 100 100 100 100 100 100 100 100 100 100 100 100 100 100
100 100 100 100 100 100 100 100 100 100 100 100 100 100 100 100 100 100 100 100 100 100 100 100 100 100 100 100 100 100 100 100 100 100 100 100 100 100 100 100 100 100 100
100 100 100 100 100 100 100 100 100 100 100 100 100 100 100 100 100 100 100 100 100 100 100 100 100 100 100 100 100 100 100 100 100 100 100 100 100 100 100 100 100 100 100
100 100 100 100 100 100 100 100 100 100 100 100 100 100 100 100 100 100 100 100 100 100 100 100 100 100 100 100 100 100 100 100 100 100 100 100 100 100 100 100 100 100 100
100 100 100 100 100 100 100 100 100 100 100 100 100 100 100 100 100 100 100 100 100 100 100 100 100 100 100 100 100 100 100 100 100 100 100 100 100 100 100 100 100 100 100
100 100 100 100 100 100 100 100 100 100 100 100 100 100 100 100 100 100 100 100 100 100 100 100 100 100 100 100 100 100 100 100 100 100 100 100 100 100 100 100 100 100 100
100 100 100 100 100 100 100 100 100 100 100 100 100 100 100 100 100 100 100 100 100 100 100 100 100 100 100 100 100 100 100 100 100 100 100 100 100 100 100 100 100 100 100
100 100 100 100 100 100 100 100 100 100 100 100 100 100 100 100 100 100 100 100 100 100 100 100 100 100 100 100 100 100 100 100 100 100 100 100 100 100 100 100 100 100 100
100 100 100 100 100 100 100 100 100 100 100 100 100 100 100 100 100 100 100 100 100 100 100 100 100 100 100 100 100 100 100 100 100 100 100 100 100 100 100 100 100 100 100
100 100 100 100 100 100 100 100 100 100 100 100 100 100 100 100 100 100 100 100 100 100 100 100 100 100 100 100 100 100 100 100 100 100 100 100 100 100 100 100 100 100 100
100 100 100 100 100 100 100 100 100 100 100 100 100 100 100 100 100 100 100 100 100 100 100 100 100 100 100 100 100 100 100 100 100 100 100 100 100 100 100 100 100 100 100
100 100 100 100 100 100 100 100 100 100 100 100 100 100 100 100 100 100 100 100 100 100 100 100 100 100 100 100 100 100 100 100 100 100 100 100 100 100 100 100 100 100 100
100 98 100 100 100 100 100 100 100 100 100 100 100 100 100 100 100 100 100 100 100 100 100 100 100 100 100 100 100 100 100 100 100 100 100 100 100 100 100 100 100 100 100

GFSGL_prec_cloud_075.txt.gz
Cloud_Cover
0 0 0 0 5 29 3 34 44 100 100 100 100 100 100 100 100 100 100 100 100 100 100 100 100 100 75 64 100 45 100 100 100 100 100 99 100 100 100 100 100 100 94
0 0 0 0 0 0 2 22 3 0 30 49 78 81 100 100 97 69 53 90 100 99 88 79 70 87 98 100 93 100 100 100 100 100 100 100 100 100 100 100 100 100 74
5 1 4 1 3 0 0 0 0 18 3 34 48 67 97 82 29 50 100 100 85 63 98 98 100 99 90 100 100 100 100 100 100 100 100 100 100 100 100 100 100 100 100
27 5 23 0 1 5 5 3 0 2 11 12 39 43 6 13 79 100 100 100 85 99 99 100 100 100 100 100 100 100 100 100 100 100 100 100 100 100 100 100 100 100 100
44 19 15 5 5 0 5 7 41 3 0 0 3 2 3 5 27 98 100 100 100 100 100 100 98 100 100 100 100 100 100 100 100 100 100 100 100 100 100 100 100 100 100
100 100 85 5 5 5 4 5 8 30 5 5 5 1 0 1 2 5 63 100 100 100 100 100 100 100 100 100 100 100 100 100 100 100 100 100 100 100 100 100 100 100 100
100 100 100 100 92 23 4 5 38 7 5 6 6 5 5 5 5 5 21 90 70 86 100 100 100 100 100 100 100 100 100 100 100 100 100 100 100 100 100 100 100 100 100
100 100 100 100 68 50 7 5 5 5 12 95 57 53 5 5 15 45 44 88 93 66 94 100 100 100 100 100 100 100 100 100 100 100 100 100 100 100 100 99 98 100 100
100 100 100 100 100 69 34 91 58 24 18 91 100 99 100 92 100 100 100 99 100 100 100 100 100 100 100 100 100 100 100 100 100 100 100 100 100 100 100 100 100 100 100
100 100 100 100 100 100 100 100 61 100 100 98 100 100 100 100 100 100 100 100 100 100 100 100 100 100 100 100 100 100 100 100 100 100 100 100 100 100 100 100 100 100 100
100 100 100 100 100 100 100 100 100 98 100 100 100 100 100 100 100 100 100 100 100 100 100 100 100 100 100 100 100 100 100 100 100 100 100 100 100 100 100 100 100 100 100
100 100 100 100 100 100 100 100 100 100 100 100 100 100 100 100 100 100 100 100 100 100 100 100 100 100 100 100 100 100 100 100 100 100 100 100 100 100 100 100 100 100 100
100 100 100 100 100 100 100 100 100 100 100 100 100 100 100 100 100 100 100 100 100 100 100 100 100 100 100 100 100 100 100 100 100 100 100 100 100 100 100 100 100 100 100
100 100 100 100 100 100 100 100 100 100 100 100 100 100 100 100 100 100 100 100 100 100 100 100 100 100 100 100 100 100 100 100 100 100 100 100 100 100 100 100 100 100 100
100 100 100 100 100 100 100 100 100 100 100 100 100 100 100 100 100 100 100 100 100 100 100 100 100 100 100 100 100 100 100 100 100 100 100 100 100 100 100 100 100 100 100
100 100 100 100 100 100 100 100 100 100 100 100 100 100 100 100 100 100 100 100 100 100 100 100 100 100 100 100 100 100 100 100 100 100 100 100 100 100 100 100 100 100 100
100 100 100 100 100 100 100 100 100 100 100 100 100 100 100 100 100 100 100 100 100 100 100 100 100 100 100 100 100 100 100 100 100 100 100 100 100 100 100 100 100 100 100
100 100 100 100 100 100 100 100 100 100 100 100 100 100 100 100 100 100 100 100 100 100 100 100 100 100 100 100 100 100 100 100 100 100 100 100 100 100 100 100 100 100 100
100 100 100 100 100 100 100 100 100 100 100 100 100 100 100 100 100 100 100 100 100 100 100 100 100 100 100 100 100 100 100 100 100 100 100 100 100 100 100 100 100 100 100
100 100 100 100 100 100 100 100 100 100 100 100 100 100 100 100 100 100 100 100 100 100 100 100 100 100 100 100 100 100 100 100 100 100 100 100 100 100 100 100 100 100 100
100 100 100 100 100 100 100 100 100 100 100 100 100 100 100 100 100 100 100 100 100 100 100 100 100 100 100 100 100 100 100 100 100 100 100 100 100 100 100 100 100 100 100
100 100 100 100 100 100 100 100 100 100 100 100 100 100 100 100 100 100 100 100 100 100 100 100 100 100 100 100 100 100 100 100 100 100 100 100 100 100 100 100 100 100 100
100 100 100 100 100 100 100 100 100 100 100 100 100 100 100 100 100 100 100 100 100 100 100 100 100 100 100 100 100 100 100 100 100 100 100 100 100 100 100 100 100 100 100
100 100 100 100 100 100 100 100 100 100 100 100 100 100 100 100 100 100 100 100 100 100 100 100 100 100 100 100 100 100 100 100 100 100 100 100 100 100 100 100 100 100 100
100 100 100 100 100 100 100 100 100 100 100 100 100 100 100 100 100 100 100 100 100 100 100 100 100 100 100 100 100 100 100 100 99 100 100 100 100 100 100 100 100 100 100
100 100 100 100 100 100 100 100 100 100 100 100 100 100 100 100 100 100 100 100 100 100 100 100 100 100 100 100 100 100 80 100 100 100 100 100 100 100 100 100 100 100 100

GFSGL_prec_cloud_078.txt.gz
Cloud_Cover
100 40 0 26 64 100 100 100 100 100 47 98 100 100 100 100 100 100 100 100 100 100 100 100 100 100 100 100 100 89 94 100 46 18 100 100 100 100 100 100 100 100 100
100 100 4 0 0 0 31 2 19 42 44 3 64 100 100 100 100 100 100 100 100 100 100 100 100 100 100 97 100 39 10 79 51 58 86 100 100 98 100 100 100 100 100
9 100 33 1 0 0 0 14 0 0 0 15 3 27 20 4 5 21 93 100 92 99 100 100 100 82 100 96 46 45 97 68 94 99 100 100 100 100 100 100 100 100 100
5 12 54 50 5 5 1 0 5 2 10 16 4 14 14 4 0 4 5 5 5 33 100 65 28 64 99 96 94 100 95 99 98 100 100 100 100 100 100 100 100 100 100
5 5 4 5 5 72 86 3 1 8 18 8 19 8 2 0 1 2 5 5 5 12 93 99 93 97 100 100 100 99 100 100 100 100 100 100 100 100 100 100 100 100 100
5 5 5 5 5 34 100 100 100 5 0 2 12 41 24 5 5 5 5 5 5 67 86 100 99 100 80 100 100 100 100 100 100 100 100 100 100 100 100 100 100 100 100
5 6 5 5 85 100 72 100 100 100 11 5 5 23 60 80 92 95 78 20 93 98 45 70 27 97 100 100 100 100 100 100 100 100 100 100 100 100 100 100 100 100 100
83 100 99 88 50 96 93 71 100 95 100 99 15 5 28 74 45 100 88 92 99 99 95 92 88 100 100 100 100 100 100 100 100 100 100 100 100 100 100 100 100 100 100
50 85 100 100 97 100 69 100 100 87 100 99 57 61 80 28 98 100 100 100 99 96 100 100 100 100 100 100 100 100 100 100 100 100 100 100 100 100 100 100 100 100 100
100 97 100 100 100 96 96 100 100 100 100 100 100 100 100 100 100 100 100 100 100 100 100 100 100 100 100 100 100 100 100 100 100 100 100 100 100 100 100 100 100 100 100
95 96 100 85 100 100 98 89 94 100 100 100 100 100 100 100 100 100 100 100 100 100 100 100 100 100 100 100 100 100 100 100 100 100 100 100 100 100 100 100 100 100 100
100 100 100 100 98 100 100 100 96 95 100 100 100 100 100 100 100 100 100 100 100 100 100 100 100 100 100 100 100 100 100 100 100 100 100 100 100 100 100 100 100 100 100
100 100 100 100 100 100 100 100 100 100 100 100 100 100 100 100 100 100 100 100 100 100 100 100 100 100 100 100 100 100 100 100 100 100 100 100 92 100 100 100 100 100 100
100 100 100 100 100 100 100 100 100 100 100 100 100 100 100 100 100 100 100 100 100 100 100 100 100 100 100 100 100 100 100 100 100 100 100 100 100 98 92 68 89 100 100
100 100 100 100 100 100 100 100 100 100 100 100 100 100 100 100 100 100 100 100 100 100 100 100 100 100 100 100 100 100 100 100 100 100 100 100 100 100 100 100 100 99 100
98 100 100 100 100 100 100 100 100 100 100 100 100 100 100 100 100 100 100 100 100 100 100 100 100 100 100 100 100 100 100 100 100 100 100 100 100 100 100 100 100 100 100
96 100 100 100 100 100 100 100 100 100 100 100 100 100 100 100 100 100 100 100 100 100 100 100 100 100 100 100 100 100 100 100 100 100 100 100 100 100 100 100 100 100 100
98 96 100 100 100 100 100 100 100 100 100 100 100 100 100 100 100 100 100 100 100 100 100 100 100 100 100 100 100 100 100 100 100 100 100 100 100 100 100 100 100 100 100
94 100 100 100 100 100 100 100 100 100 100 100 100 100 100 100 100 100 100 100 100 100 100 100 100 100 100 100 100 100 100 100 100 100 100 100 100 100 100 100 100 100 97
100 100 100 100 100 100 100 100 100 100 100 100 100 100 100 100 100 100 100 100 100 100 100 100 100 100 100 100 100 100 100 100 100 98 100 100 100 100 100 100 100 100 100
100 100 100 100 100 100 100 100 100 100 100 100 100 100 100 100 100 100 100 100 100 100 100 100 100 100 100 100 100 100 100 100 100 100 100 100 100 100 99 100 100 100 100
100 100 100 100 100 100 100 100 100 100 100 100 100 100 100 100 100 100 100 100 100 100 100 100 100 100 100 100 100 100 100 100 100 100 100 96 91 83 84 88 79 71 86
100 100 100 99 92 98 100 100 100 100 100 100 100 100 100 100 100 100 100 100 100 100 100 100 100 100 100 86 99 100 100 100 100 94 13 6 5 67 19 67 96 72 80
100 100 100 98 84 80 96 100 100 100 100 100 100 100 100 100 100 100 100 100 100 100 100 100 100 100 41 46 98 87 100 37 42 13 72 58 14 5 14 56 62 94 100
99 85 66 98 100 100 97 88 98 76 82 87 93 100 100 100 100 98 100 100 100 100 96 100 62 91 93 57 100 100 36 83 12 5 40 83 81 5 34 100 100 99 64
58 70 93 81 69 85 87 86 93 51 83 87 99 99 92 91 100 100 100 69 28 99 100 99 100 36 55 100 98 65 5 12 40 82 80 69 68 89 100 77 13 49 77

GFSGL_prec_cloud_081.txt.gz
Cloud_Cover
5 12 11 71 97 90 100 90 100 99 100 50 2 20 38 42 76 86 91 100 100 100 100 100 100 99 100 100 100 100 100 100 100 100 100 82 68 69 100 99 99 100 100
50 5 0 4 16 100 100 100 100 100 100 88 22 12 0 2 62 72 100 99 100 50 100 100 100 100 100 100 100 100 97 97 100 100 100 100 48 91 100 100 100 100 100
5 5 5 5 0 0 38 91 94 100 100 100 93 7 0 4 1 2 46 36 63 78 96 100 100 100 95 67 84 100 99 77 73 96 100 85 100 100 100 100 100 100 100
24 5 5 5 5 2 2 0 0 4 34 26 5 7 0 0 0 4 4 5 5 5 5 5 5 5 42 58 72 100 100 100 99 100 100 100 92 100 100 100 100 100 100
5 7 6 10 5 12 6 5 0 0 4 5 4 11 7 14 2 2 5 5 5 5 5 5 36 62 46 57 73 5 99 100 100 100 100 100 100 100 100 100 100 100 100
95 72 29 13 32 20 8 8 5 1 13 36 100 100 98 16 26 33 17 28 23 6 7 12 8 61 31 88 64 18 98 22 100 100 100 100 100 100 100 100 100 100 100
100 94 60 35 5 5 69 83 82 80 23 5 64 100 100 100 93 78 22 26 28 6 4 5 7 28 60 93 100 100 100 100 100 100 100 100 100 100 100 100 100 100 100
5 73 100 95 56 26 5 5 5 5 5 5 25 8 47 83 100 100 86 89 65 32 7 43 36 55 100 99 100 100 100 100 100 100 100 100 100 100 100 100 100 100 100
60 94 99 87 100 100 98 78 90 54 60 91 88 100 98 92 100 100 100 100 100 100 100 100 100 100 100 100 100 100 100 100 100 100 100 100 100 100 100 100 100 100 100
100 100 100 100 100 100 100 100 100 100 100 100 100 100 100 100 100 100 100 100 100 100 100 100 100 100 100 100 100 100 100 100 100 100 100 100 100 100 100 100 100 100 100
89 99 100 100 100 100 100 89 99 100 93 100 100 100 100 100 100 100 100 100 100 100 100 100 100 100 100 100 100 100 100 100 100 100 100 100 100 100 100 100 100 100 100
97 95 100 100 100 100 100 100 100 90 100 100 100 100 100 100 100 100 100 100 100 100 100 100 100 100 100 100 100 100 100 100 100 100 100 100 100 100 100 100 100 100 100
100 100 100 100 48 98 100 100 100 100 100 100 100 100 100 100 100 100 100 100 100 100 100 100 100 100 100 100 100 100 100 100 100 100 100 100 100 100 100 100 100 100 100
100 100 100 100 100 100 100 100 100 100 100 100 100 100 100 100 100 100 100 100 100 100 100 100 100 100 100 100 100 100 100 100 100 100 100 100 100 100 100 100 100 100 100
100 99 100 99 88 100 100 100 100 100 100 100 100 100 100 100 100 100 100 100 100 100 100 100 100 100 100 100 100 100 100 100 100 100 100 100 100 100 100 100 100 100 100
100 100 98 97 100 100 100 100 100 100 100 100 100 100 100 100 100 100 100 100 100 100 100 100 100 100 100 100 100 100 100 100 100 100 100 100 100 100 100 100 100 100 100
100 100 92 95 100 100 100 98 100 100 100 100 100 100 100 100 100 100 100 100 100 100 100 100 100 100 100 100 100 100 100 100 100 100 100 100 100 100 100 100 100 100 100
96 85 95 93 97 100 100 100 100 100 100 100 100 100 100 100 100 100 100 100 100 100 100 100 100 100 100 100 100 100 100 100 100 100 100 100 100 100 100 100 100 100 96
100 94 90 98 100 100 100 100 100 100 100 100 100 100 100 100 100 100 100 100 100 100 100 100 100 100 100 100 100 100 100 100 100 100 100 100 100 100 100 99 55 43 61
94 91 91 100 100 100 100 100 100 100 100 100 100 100 100 100 100 100 100 100 100 100 100 100 100 100 100 100 100 100 100 100 100 100 100 100 93 100 100 100 100 100 100
91 84 100 100 100 100 100 100 100 100 100 100 100 100 100 100 100 100 100 100 100 100 100 100 100 100 100 100 100 100 100 100 89 100 100 100 100 100 100 100 100 100 100
96 100 100 100 100 100 100 100 100 100 100 100 100 100 100 100 100 100 100 100 100 100 100 100 100 100 100 100 100 100 100 100 100 100 100 100 100 100 100 92 98 73 26
100 100 100 100 100 97 100 100 100 100 100 100 100 100 100 100 100 100 100 100 100 100 95 100 100 100 100 100 100 100 100 100 100 100 100 100 100 88 83 57 27 27 24
100 100 100 100 100 100 100 100 100 100 100 100 96 100 100 100 100 100 100 77 97 100 100 100 100 100 100 74 99 100 100 100 100 100 100 100 99 81 70 48 55 78 97
100 100 100 100 100 100 100 69 82 75 84 89 98 90 98 100 100 100 100 100 100 100 100 100 100 100 100 100 94 100 100 92 69 97 89 21 44 65 68 95 90 32 5
100 100 100 100 100 90 72 75 92 40 31 84 98 95 60 86 99 96 99 96 100 96 100 98 90 81 91 100 100 26 6 63 76 41 78 85 100 86 65 61 43 77 65

GFSGL_prec_cloud_084.txt.gz
Cloud_Cover
0 5 6 100 100 100 100 100 100 100 100 86 56 54 44 65 50 45 40 67 100 100 100 100 100 100 100 100 100 100 100 100 100 100 100 99 100 100 100 100 100 100 99
3 14 5 38 100 100 100 38 81 100 100 100 100 92 22 21 0 0 0 5 95 36 45 93 92 98 100 97 100 100 100 100 100 100 100 98 42 88 100 100 100 99 61
100 80 32 40 81 56 65 99 100 100 100 100 100 100 97 20 4 5 3 0 20 4 8 32 22 78 86 26 13 18 100 94 86 100 100 100 100 100 100 100 100 100 99
100 100 88 31 13 7 5 5 44 87 100 100 100 100 100 97 46 34 7 3 5 5 5 5 5 4 3 5 5 16 79 100 99 100 100 86 90 80 89 78 100 100 100
100 100 100 68 12 31 5 12 30 43 5 39 30 57 95 99 17 10 38 56 31 6 5 5 5 5 25 64 86 7 50 82 54 48 22 68 100 100 100 96 100 100 100
100 100 100 100 100 100 40 38 5 56 29 32 13 16 4 5 5 5 5 32 80 57 93 72 67 79 52 86 98 100 90 65 25 33 34 68 100 100 73 100 100 100 100
17 85 97 100 100 100 100 99 61 66 83 56 55 69 59 72 74 70 65 55 69 54 100 90 97 24 38 54 86 99 100 96 85 75 61 84 98 100 100 100 100 100 100
88 97 93 74 98 100 100 100 100 100 100 100 100 71 36 100 100 97 66 73 78 98 100 93 98 100 100 100 96 92 92 100 100 100 100 89 100 100 100 100 100 100 100
72 92 99 100 100 99 100 100 100 100 100 100 100 100 100 100 100 100 100 100 94 100 100 100 100 100 100 100 100 100 100 100 100 100 100 100 100 100 100 100 100 100 100
100 97 100 100 100 100 100 100 100 100 100 100 100 100 100 100 100 100 100 100 100 100 100 100 100 100 100 100 100 100 100 100 100 100 100 100 100 100 100 100 100 100 100
46 93 100 100 100 100 100 100 100 100 100 100 100 100 100 100 100 100 100 100 100 100 100 100 100 100 100 100 100 100 100 100 100 100 100 100 100 100 100 100 100 100 100
82 69 39 56 75 98 100 100 100 100 100 100 100 100 100 100 100 100 100 100 100 100 100 100 100 100 100 100 100 100 100 100 100 100 100 100 100 100 100 100 100 100 100
100 99 69 97 100 100 98 81 97 100 100 100 100 100 100 100 100 100 100 100 100 100 100 100 100 100 100 100 100 100 100 100 100 100 100 100 100 100 100 100 100 100 100
100 100 100 100 93 100 100 100 100 100 100 100 100 100 100 100 100 100 100 100 100 100 100 100 100 100 100 100 100 100 100 100 100 100 100 100 100 100 100 100 100 100 100
100 100 100 100 100 100 100 100 100 100 100 100 100 100 100 100 100 100 100 100 100 100 100 100 100 100 100 100 100 100 100 100 100 100 100 100 100 100 100 100 100 100 100
99 100 100 100 100 100 100 91 90 94 97 91 100 100 100 100 100 100 100 100 100 100 100 100 100 100 100 100 100 100 100 100 100 100 100 100 100 100 100 100 100 100 100
89 94 100 99 98 99 98 98 100 63 73 100 100 100 100 100 100 100 100 100 100 100 100 100 100 100 100 100 100 100 100 100 100 100 100 100 100 100 100 100 100 100 100
96 98 98 100 100 99 100 100 100 98 87 98 100 100 100 100 100 100 100 100 100 100 100 100 100 100 100 100 100 100 100 100 100 100 100 100 100 100 100 100 100 100 100
96 99 93 87 83 77 89 90 92 96 97 100 100 100 100 100 100 100 100 100 100 100 100 100 100 100 100 100 100 100 100 100 100 100 100 100 100 100 100 100 100 100 100
92 69 81 79 68 77 85 86 83 94 91 100 100 100 100 100 100 100 100 100 100 100 100 100 100 100 100 100 100 100 100 100 100 100 100 100 100 100 100 100 100 100 55
83 70 64 90 100 100 100 100 100 100 100 100 100 100 100 100 100 100 100 100 100 100 100 100 100 100 100 100 100 100 100 100 100 100 100 100 100 100 90 79 92 42 5
98 100 100 100 100 100 100 100 100 100 100 100 100 100 100 100 100 100 100 100 100 100 100 100 100 100 100 100 100 100 100 100 100 100 100 100 83 37 53 58 34 66 51
76 86 100 100 100 99 100 100 100 100 100 100 100 100 100 100 100 100 100 100 100 100 100 100 100 100 100 100 100 100 100 100 100 100 100 100 100 100 88 60 71 78 92
99 100 100 100 100 100 99 100 100 100 100 100 100 100 100 98 42 76 99 100 100 100 100 100 100 100 100 100 100 100 100 100 100 100 88 92 68 14 49 66 95 99 63
89 100 100 100 100 96 98 98 100 100 100 100 100 98 95 95 100 83 94 66 64 69 84 98 100 57 76 94 92 96 100 97 41 23 64 96 81 100 100 88 80 34 37
100 100 96 78 86 94 86 88 69 83 98 96 100 100 98 95 53 66 31 18 67 90 88 84 76 23 5 12 7 53 85 85 54 17 28 6 60 65 49 82 63 90 66

GFSGL_prec_cloud_087.txt.gz
Cloud_Cover
100 99 76 59 59 99 100 80 92 43 0 0 0 10 11 62 97 100 76 99 100 100 99 92 91 100 100 100 100 100 100 100 100 100 100 100 100 99 98 100 100 100 100
100 100 51 42 33 100 100 100 100 100 93 92 26 0 3 60 52 21 93 94 88 11 97 100 100 100 100 100 100 100 100 100 100 100 93 100 100 99 100 100 100 96 100
100 100 98 58 85 61 100 100 100 100 100 100 100 86 16 2 0 0 0 4 10 8 5 12 58 95 24 56 99 100 98 100 100 100 62 98 44 99 100 100 100 97 96
100 100 100 100 100 94 98 100 98 85 100 99 100 100 100 100 90 20 1 0 0 66 79 32 5 4 5 5 21 27 91 100 86 100 100 30 94 100 87 60 29 55 71
100 100 100 100 100 100 100 100 99 83 58 12 6 33 96 100 100 100 100 84 18 4 5 16 65 98 80 20 5 5 79 67 70 100 100 100 100 100 100 69 59 96 100
100 100 100 100 100 100 100 100 100 100 94 83 48 45 64 82 48 11 57 80 37 34 85 65 100 52 60 24 84 100 55 46 13 57 100 100 99 99 99 99 88 98 100
100 100 100 100 100 100 100 100 100 100 100 100 100 99 99 100 100 100 92 9 74 33 45 67 86 88 69 59 97 69 100 99 99 100 100 88 100 100 99 100 100 100 98
100 100 100 100 100 100 100 100 100 100 100 100 100 100 100 100 100 100 100 100 100 74 78 88 100 96 90 89 73 92 64 95 99 100 100 100 100 100 100 100 100 100 100
100 100 98 86 59 97 100 100 100 100 100 100 100 100 100 100 100 100 100 100 100 100 100 100 100 99 98 99 100 100 100 100 100 100 100 100 100 100 100 100 100 100 100
100 100 100 100 100 100 96 100 100 100 100 100 100 100 100 100 100 100 100 100 100 100 100 100 100 100 100 100 100 100 100 100 100 100 100 100 100 100 100 100 100 100 100
100 100 100 100 100 99 98 99 91 100 100 100 100 100 100 100 100 100 100 100 100 100 100 100 100 100 100 100 100 100 100 100 100 100 100 100 100 100 100 100 100 100 100
89 73 99 93 100 100 100 100 100 95 100 100 100 100 100 100 100 100 100 100 100 100 100 100 100 100 100 100 100 100 100 100 100 100 100 100 100 100 100 100 100 100 100
61 99 60 88 100 100 100 100 100 100 100 100 100 99 100 100 100 100 100 100 100 100 100 100 100 100 100 100 100 100 100 100 100 100 100 100 100 100 100 100 100 100 100
65 90 59 98 85 96 100 100 100 100 100 100 100 89 71 98 97 100 100 100 100 100 100 100 100 100 100 100 100 100 100 100 100 100 100 100 100 100 100 100 100 100 100
100 100 86 88 90 96 100 100 100 100 100 100 100 99 75 98 100 98 100 100 100 100 100 100 100 100 100 100 100 100 100 100 100 100 100 100 100 100 100 100 100 100 100
100 100 86 100 83 86 96 99 100 100 100 100 100 100 100 100 100 100 100 100 100 100 100 100 100 100 100 100 100 100 100 100 100 100 100 100 100 100 100 100 100 100 100
100 100 100 100 100 100 100 100 100 100 100 100 100 100 100 100 100 99 98 100 100 100 100 100 100 100 100 100 100 100 100 100 100 100 100 100 100 100 100 100 100 100 100
97 100 100 100 100 96 100 98 96 100 100 100 100 100 100 100 100 100 97 81 100 100 100 100 100 100 100 100 100 100 100 100 100 100 100 100 100 100 100 100 100 100 100
100 99 76 76 68 67 67 83 81 95 100 100 52 28 99 100 100 100 94 83 100 100 100 100 100 100 100 100 100 100 100 100 100 100 100 100 100 100 100 100 100 100 100
85 50 70 82 68 70 75 90 95 100 100 100 100 100 70 95 66 91 90 94 98 100 100 100 100 100 100 100 100 100 100 100 100 100 100 100 100 100 100 100 100 100 100
94 85 65 94 100 100 100 100 100 100 100 100 100 100 78 90 100 100 100 100 100 100 100 100 100 100 100 100 100 100 100 100 100 100 100 100 100 100 90 100 100 100 100
91 100 100 100 100 100 100 96 99 98 98 98 94 66 100 100 100 100 98 100 90 88 100 100 100 100 100 100 100 100 100 100 100 100 100 100 100 100 100 100 100 100 100
22 39 78 92 84 84 96 99 97 93 99 99 100 100 100 100 100 100 100 100 100 100 100 100 100 100 99 100 100 100 100 100 100 100 100 100 100 100 100 100 100 100 100
52 60 66 70 71 88 98 100 100 100 100 100 100 100 100 100 100 100 100 100 100 100 100 100 100 100 96 31 69 94 100 98 100 100 100 93 100 100 99 65 77 85 58
93 100 100 94 93 88 100 100 100 100 100 100 99 88 100 100 95 99 99 87 58 98 100 84 90 69 56 54 65 45 68 91 54 43 36 7 51 29 52 15 63 7 26
100 100 100 100 100 100 100 100 100 100 100 100 100 100 94 100 100 99 96 90 59 84 98 96 75 73 95 36 63 81 16 42 8 15 52 9 13 33 15 47 54 90 49

GFSGL_prec_cloud_090.txt.gz
Cloud_Cover
100 100 100 100 99 64 100 64 18 2 9 18 0 13 16 5 26 78 90 100 85 91 100 100 100 100 100 100 100 100 100 100 100 100 100 100 100 100 100 94 98 100 100
100 100 100 100 99 45 100 100 93 13 5 35 22 6 16 49 61 95 95 97 100 20 29 27 11 74 45 100 74 100 100 100 100 100 100 100 100 100 100 100 100 88 100
100 100 100 100 100 83 99 100 100 100 100 96 33 25 19 51 83 99 100 52 36 23 5 5 5 5 5 6 76 96 100 100 100 100 100 99 100 98 54 66 96 100 78
98 100 100 100 100 100 100 88 100 100 100 100 100 98 100 100 88 63 82 94 100 74 19 5 5 4 5 5 5 34 80 91 96 100 100 99 87 100 88 91 9 30 20
100 100 100 100 100 100 100 100 100 99 99 100 98 87 85 88 97 43 7 8 38 42 67 70 58 22 53 46 38 16 74 88 85 88 76 59 98 99 100 100 67 82 85
100 100 100 100 100 100 100 100 100 100 100 100 93 100 100 100 100 100 100 56 86 100 100 98 85 46 11 45 11 5 68 100 100 99 96 76 99 99 90 100 100 100 100
100 100 100 100 100 100 100 100 100 100 100 100 100 100 100 100 100 100 100 100 100 100 100 100 86 72 88 93 41 39 89 100 100 100 100 100 100 100 100 100 100 100 100
100 100 100 100 100 100 100 100 100 100 100 100 100 100 100 100 100 100 100 100 100 100 100 100 100 100 100 99 97 100 100 100 100 100 100 100 100 100 100 100 100 100 100
100 100 100 100 100 100 100 100 100 100 100 100 100 100 100 100 100 100 100 100 100 100 100 100 100 100 100 100 100 100 100 100 100 100 100 100 100 100 100 100 100 100 100
100 100 100 100 100 100 100 100 100 100 100 100 100 100 100 100 100 100 100 100 100 100 100 100 100 100 100 100 100 100 100 100 100 100 100 100 100 100 100 100 100 100 100
100 100 100 100 100 100 100 100 100 100 100 100 100 100 100 100 100 100 100 100 100 100 100 100 100 100 100 100 100 100 100 100 100 100 100 100 100 100 100 100 100 100 100
100 100 100 100 100 100 100 100 100 100 100 100 100 100 100 100 100 100 100 100 100 100 100 100 100 100 100 100 100 100 100 100 100 100 100 100 100 100 100 100 100 100 100
100 100 100 100 100 100 100 100 100 100 100 100 100 100 100 94 77 80 100 100 100 100 100 99 100 100 100 100 100 100 100 100 100 100 100 100 100 100 100 100 100 100 100
100 100 100 100 100 100 95 100 100 100 100 100 100 100 100 100 100 78 83 77 93 84 99 98 90 95 100 100 100 100 100 100 100 100 100 100 100 100 100 100 100 100 100
100 98 98 100 99 99 99 100 100 100 100 100 100 100 100 100 100 100 98 83 90 67 98 98 100 100 100 100 100 100 100 100 100 100 100 100 100 100 100 100 100 100 100
100 100 100 100 100 100 100 100 100 100 100 100 100 100 100 100 100 100 95 88 71 95 100 100 100 100 96 99 97 100 100 100 100 97 100 100 100 100 100 100 100 100 100
94 96 94 82 100 92 80 96 100 100 100 100 100 100 100 100 100 100 100 89 53 99 80 100 100 100 100 100 92 100 100 100 100 100 100 100 89 99 100 100 100 100 100
100 100 100 93 87 80 90 100 100 100 100 96 97 100 100 100 100 100 95 100 94 83 100 100 100 100 100 100 100 99 87 77 95 100 100 100 100 100 100 100 100 100 100
74 73 75 97 100 96 66 70 73 89 100 100 99 88 93 100 100 99 99 92 100 100 100 100 100 100 100 100 100 96 78 97 100 100 100 100 100 100 100 100 100 100 100
76 96 86 57 57 50 51 66 70 76 87 100 100 100 83 100 84 81 83 86 99 100 100 100 100 97 99 90 68 86 100 100 100 100 100 100 100 100 100 100 100 100 100
80 60 56 76 96 97 100 99 89 89 100 100 100 92 39 72 95 94 100 100 100 99 89 98 97 88 98 100 100 100 100 100 100 100 100 100 100 100 100 100 100 100 100
75 80 80 97 77 76 80 66 61 60 76 84 78 39 94 100 100 88 74 100 100 100 96 100 98 99 100 100 100 100 100 100 100 100 100 100 100 100 100 100 100 100 100
74 70 74 72 84 81 78 78 68 38 51 55 52 62 80 99 100 100 100 100 100 100 78 90 97 98 96 100 100 100 100 82 84 100 100 100 100 100 100 100 96 98 100
74 66 65 57 54 64 78 81 68 59 73 85 86 79 71 100 100 100 100 93 100 72 79 55 16 84 52 14 10 31 60 62 18 31 52 21 16 52 6 5 6 5 52
100 100 96 81 76 59 60 64 65 57 47 57 85 48 50 51 72 100 100 79 95 100 99 94 75 41 57 49 53 63 73 82 29 41 19 6 6 19 6 6 37 39 39
100 100 98 93 85 72 60 76 100 62 87 100 100 84 88 80 71 70 79 69 95 98 79 22 6 35 88 92 94 73 26 59 13 46 73 13 15 7 46 42 16 47 30

GFSGL_prec_cloud_096.txt.gz
Cloud_Cover
100 100 100 100 100 100 100 66 98 98 100 99 100 100 100 100 100 100 100 100 100 100 100 100 100 78 83 67 82 96 100 98 90 99 94 91 93 89 14 56 32 35 54
100 100 100 73 100 100 100 100 100 89 100 100 96 100 100 90 100 100 100 100 100 59 11 100 100 100 43 88 100 92 55 93 100 100 100 100 97 67 18 87 33 52 46
100 100 100 100 100 100 100 91 72 87 80 96 95 94 100 100 100 100 94 44 61 67 71 95 100 94 100 55 71 100 100 100 100 94 14 33 29 20 18 5 5 5 5
100 100 100 100 100 100 100 84 100 100 100 100 100 100 99 98 100 100 100 96 99 98 100 100 100 100 100 100 100 43 55 88 100 100 31 35 40 5 18 5 5 5 21
100 100 100 100 100 100 100 100 100 100 100 100 100 100 100 100 100 100 100 100 100 100 100 100 100 100 100 100 90 36 66 74 72 96 100 70 25 60 70 8 65 98 98
100 100 100 100 100 100 100 100 100 100 100 100 100 100 100 100 100 100 100 100 100 100 100 76 46 38 56 99 100 100 100 100 100 100 100 100 70 100 100 70 75 100 99
100 100 100 100 100 100 100 100 100 100 100 100 100 100 100 100 100 98 79 64 96 100 100 100 100 100 100 100 100 100 100 100 100 100 100 100 100 100 100 100 100 100 100
100 100 100 100 100 100 100 100 100 100 100 100 100 100 100 100 100 100 100 100 100 100 100 100 100 100 100 100 100 100 100 100 100 100 100 100 100 100 100 100 100 100 100
100 100 100 100 100 100 100 100 100 100 100 100 100 100 100 100 100 100 100 100 100 100 100 100 100 100 100 100 100 100 100 100 100 100 100 100 100 100 100 100 100 100 100
100 100 100 100 100 100 100 100 100 100 100 100 100 100 100 100 100 100 100 100 100 100 100 100 100 100 100 100 100 100 100 100 100 100 100 100 100 100 100 100 100 100 100
100 100 100 100 100 100 100 100 100 100 100 100 100 100 100 100 100 100 100 100 100 100 100 100 100 100 100 100 100 100 100 100 100 100 100 100 100 100 100 100 100 100 100
100 100 100 100 100 100 100 100 100 100 100 100 100 100 100 100 100 100 100 100 100 100 100 100 100 100 100 100 100 100 100 100 100 100 100 100 100 100 100 100 100 100 100
100 100 100 100 100 100 100 100 100 100 100 100 100 100 100 100 100 100 100 100 100 100 100 100 100 100 100 92 95 88 92 94 96 99 91 100 100 100 100 100 100 96 81
100 100 100 100 100 100 100 100 100 100 100 100 100 100 100 100 100 100 100 100 100 100 100 100 97 100 100 100 100 100 100 100 100 100 100 100 100 100 100 100 100 100 95
100 100 100 100 100 100 100 100 100 100 100 100 100 100 100 100 100 100 100 100 100 100 100 100 100 100 100 100 100 100 100 100 100 100 100 100 100 100 95 96 81 5 5
100 100 100 100 100 100 100 100 100 100 100 100 100 100 100 100 100 98 98 96 87 99 89 100 100 100 100 100 100 100 98 96 95 97 94 87 74 58 26 5 5 5 5
100 100 100 100 100 100 100 100 100 100 100 100 100 100 100 100 100 99 94 82 92 100 90 100 100 100 100 99 95 92 100 70 49 7 8 52 91 10 5 5 10 5 5
91 100 100 100 100 100 100 100 100 100 100 100 100 100 100 100 100 98 100 100 100 100 100 100 100 99 96 90 65 59 82 90 70 52 82 96 95 69 18 5 37 74 75
100 100 100 100 100 100 100 100 100 100 100 100 100 100 99 100 100 100 100 100 100 100 98 98 100 100 100 99 100 100 100 83 83 100 100 100 100 69 74 84 46 7 79
94 91 98 100 100 100 100 100 100 100 100 100 100 100 100 99 100 100 100 100 97 94 85 74 93 99 100 98 100 100 98 94 97 84 100 100 100 100 95 91 95 91 12
100 100 90 100 100 100 100 100 100 100 100 100 75 83 19 28 66 76 84 100 100 100 100 100 100 100 100 99 100 100 94 100 98 100 100 100 100 100 100 100 100 78 5
100 100 100 100 100 100 99 100 98 57 6 19 73 22 71 94 82 87 100 100 100 100 100 100 100 100 100 100 100 100 100 100 100 100 100 100 100 100 100 100 100 100 99
100 100 100 100 100 73 96 89 100 95 93 98 94 94 99 100 100 100 100 100 100 100 100 100 100 100 100 100 100 100 100 100 100 100 100 100 100 100 100 100 100 100 100
100 100 96 100 100 100 100 100 94 61 96 100 100 100 100 100 100 100 100 100 100 100 100 100 100 97 99 100 100 100 100 100 100 100 100 100 100 92 100 100 100 100 100
100 100 100 100 100 100 100 100 100 100 100 100 100 100 100 100 100 100 100 100 100 100 100 100 100 100 100 100 100 100 94 100 94 62 100 100 100 100 100 100 100 100 100
100 100 100 100 100 100 100 100 100 100 100 100 100 100 100 100 100 100 100 100 100 100 100 100 100 100 100 100 99 100 100 100 79 88 92 100 100 100 100 100 100 100 100

GFSGL_prec_cloud_099.txt.gz
Cloud_Cover
100 100 100 100 33 5 61 100 100 100 100 100 100 100 100 100 100 100 100 100 100 100 100 100 100 100 100 100 100 100 100 100 54 77 8 92 66 100 100 99 100 72 19
100 100 100 100 90 53 100 83 100 100 96 100 100 100 100 100 100 100 100 100 100 100 100 100 100 100 100 100 100 100 77 100 93 63 5 10 100 47 62 77 8 81 5
100 100 100 100 100 88 100 100 100 93 100 100 86 100 100 100 100 100 100 100 100 100 100 100 100 100 100 65 100 6 17 32 5 31 13 78 19 5 5 5 5 5 5
100 100 100 100 85 100 100 84 100 67 82 91 98 93 97 100 100 93 100 100 100 100 100 97 100 39 100 78 95 100 97 78 99 91 11 42 15 4 5 5 28 5 6
100 100 100 100 100 100 80 71 100 100 100 81 99 91 99 99 100 100 100 97 65 46 52 96 80 98 100 100 100 100 100 100 100 100 100 100 38 43 40 32 79 52 65
100 100 100 100 100 100 100 100 96 100 100 100 100 100 100 100 100 100 100 100 100 100 100 100 100 100 100 100 100 100 100 100 100 100 99 55 65 44 52 100 100 100 100
100 100 100 100 100 100 100 100 100 100 100 100 100 100 100 100 100 100 100 100 100 100 100 100 98 100 100 99 93 93 99 100 100 100 100 100 100 100 100 100 100 100 100
100 100 100 100 100 100 100 100 100 100 100 100 100 100 100 100 100 100 100 98 100 100 100 100 100 100 100 100 100 100 100 100 100 100 100 100 100 100 100 100 100 100 100
100 100 100 100 100 100 100 100 100 100 100 100 100 100 100 100 100 100 100 100 100 100 100 100 100 100 100 100 100 100 100 100 100 100 100 100 100 100 100 100 100 100 100
100 100 100 100 100 100 100 100 100 100 100 100 100 100 100 100 100 100 100 100 100 100 100 100 100 100 100 100 100 100 100 100 100 100 100 100 100 100 100 100 100 100 100
100 100 100 100 100 100 100 100 100 100 100 100 100 100 100 100 100 100 100 100 100 100 100 100 100 100 100 100 100 100 100 100 100 100 100 100 100 100 100 100 100 100 86
100 100 100 100 100 100 100 100 100 100 100 100 100 100 100 100 100 100 100 100 100 100 100 100 100 100 100 100 100 100 100 100 100 100 100 100 100 100 100 100 100 100 100
100 100 100 100 100 100 100 100 100 100 100 100 100 100 100 100 100 100 100 100 100 100 100 100 100 100 100 100 100 100 100 100 100 100 100 100 100 100 100 100 100 99 100
100 100 100 100 100 100 100 100 100 100 100 100 100 100 100 100 100 100 100 100 100 100 100 100 100 100 100 100 100 100 100 100 100 100 100 100 100 100 97 91 84 81 74
100 100 100 100 100 100 100 100 100 100 100 100 100 100 100 100 100 100 100 100 100 100 100 100 100 100 100 100 100 100 100 100 100 100 100 100 100 100 93 60 29 5 11
100 100 100 100 100 100 100 100 100 100 100 100 100 100 100 100 100 100 100 100 100 100 100 100 100 100 100 100 100 100 99 100 97 99 99 97 79 22 63 25 36 7 7
100 100 100 100 100 100 100 100 100 100 100 100 100 100 100 100 100 100 100 100 100 100 100 100 100 100 100 100 100 100 100 96 84 97 98 99 95 65 48 22 82 14 5
100 100 100 100 100 100 100 100 100 100 100 100 100 100 100 100 100 100 100 100 100 100 100 100 98 100 99 98 100 100 100 100 100 100 100 100 100 100 97 42 43 59 12
100 100 100 100 100 100 100 100 100 100 100 100 100 100 95 97 100 100 100 100 100 100 99 100 100 100 100 100 100 100 100 100 100 100 100 100 100 100 100 96 100 22 12
100 99 100 100 100 100 100 100 100 100 100 100 100 100 100 100 100 100 100 100 100 100 100 100 100 100 100 100 100 100 100 100 100 100 100 100 100 100 100 100 100 83 71
100 100 100 100 100 100 100 100 100 100 100 100 97 72 41 100 100 100 100 100 100 100 100 100 100 100 100 100 100 100 100 100 100 100 100 100 100 100 100 100 100 100 89
100 100 100 100 100 100 100 100 100 100 100 100 100 67 90 100 100 100 100 100 100 100 100 100 100 100 100 100 100 100 100 100 100 100 100 100 100 100 100 100 100 100 100
100 100 100 100 100 95 100 100 100 100 100 100 100 100 100 100 100 100 100 100 100 100 100 100 100 100 100 100 100 100 100 100 100 100 100 100 100 100 100 100 100 100 100
100 100 100 99 100 100 100 100 94 40 100 100 100 100 100 100 100 100 100 100 100 100 100 100 100 100 96 100 100 100 100 100 100 100 100 100 100 100 100 100 100 100 100
100 100 100 100 100 100 100 100 100 100 100 100 100 100 100 100 100 100 100 100 100 100 100 100 100 100 100 100 100 100 100 100 100 78 100 100 100 100 100 100 100 100 100
100 100 100 100 100 100 100 100 100 100 100 100 100 100 100 100 100 100 100 100 100 100 100 100 100 100 100 100 98 100 100 100 100 100 83 100 100 100 100 100 100 100 100

GFSGL_prec_cloud_102.txt.gz
Cloud_Cover
100 37 6 100 100 98 71 20 6 26 76 98 97 100 100 100 100 100 100 100 100 100 100 100 100 97 100 100 100 100 100 100 100 100 100 100 100 94 73 99 75 97 89
99 20 97 100 100 88 100 97 88 43 39 96 100 100 100 100 100 100 100 100 100 100 100 100 100 100 100 100 100 100 100 100 100 100 100 100 59 100 89 40 61 33 7
100 100 100 100 100 100 100 57 100 100 100 94 100 100 100 100 100 100 100 100 100 100 100 100 100 100 100 100 100 100 100 100 100 100 99 39 4 13 15 8 10 6 10
100 100 100 100 100 100 100 100 100 100 100 91 80 93 100 100 100 100 100 100 100 100 100 100 100 100 100 100 100 100 100 100 100 83 5 5 5 36 79 92 59 76 100
100 100 100 100 100 100 100 100 100 100 100 100 100 92 96 100 100 100 100 100 100 100 100 100 100 100 100 100 100 100 100 97 16 99 98 100 98 100 100 100 79 88 80
100 100 100 100 100 100 100 100 100 100 100 100 100 100 100 100 100 100 100 100 100 100 100 100 100 100 100 100 100 99 100 100 100 100 100 100 100 100 92 98 100 100 100
100 100 100 100 100 100 100 100 100 100 100 100 100 100 100 100 100 100 100 100 100 100 100 100 100 100 100 100 100 100 100 100 100 100 100 100 100 100 100 99 100 100 100
100 100 100 100 100 100 100 100 100 100 100 100 100 100 100 100 100 100 100 100 100 100 100 100 100 100 100 100 100 100 100 100 100 100 100 100 100 100 100 100 100 100 100
100 100 100 100 100 100 100 100 100 100 100 100 100 100 100 100 100 100 100 100 100 100 100 100 100 100 100 100 100 100 100 100 100 100 100 100 100 100 100 100 100 100 100
100 100 100 100 100 100 100 100 100 100 100 100 100 100 100 100 100 100 100 100 100 100 100 100 100 100 100 100 100 100 100 100 100 100 100 100 100 100 100 100 100 75 96
100 100 100 100 100 100 100 100 100 100 100 100 100 100 100 100 100 100 100 100 100 100 100 100 100 100 100 100 100 100 100 100 100 100 100 100 100 100 100 100 100 100 99
100 100 100 100 100 100 100 100 100 100 100 100 100 100 100 100 100 100 100 100 100 100 100 100 100 100 100 100 100 100 100 100 100 100 100 100 100 100 99 100 86 69 97
100 100 100 100 100 100 100 100 100 100 100 100 100 100 100 100 100 100 100 100 100 100 100 100 100 100 100 100 100 100 100 100 100 100 100 100 100 100 100 100 85 99 87
100 100 100 100 100 100 100 100 100 100 100 100 100 100 100 100 100 100 100 100 100 100 100 100 100 100 100 100 100 100 100 100 100 100 100 100 100 100 100 100 100 70 60
100 100 100 100 100 100 100 100 100 100 100 100 100 100 100 100 100 100 100 100 100 100 100 100 100 100 100 100 100 100 100 100 100 100 100 100 100 54 9 38 48 46 51
100 100 100 100 100 100 100 100 100 100 100 100 100 100 100 100 100 100 100 100 100 100 100 100 100 100 100 100 100 100 100 100 100 99 59 100 100 100 56 98 96 100 17
100 100 100 100 100 100 100 100 100 100 100 100 100 100 100 100 100 100 100 100 100 100 100 100 100 100 100 100 100 100 100 100 100 100 100 92 100 100 100 100 100 89 89
100 100 100 100 100 100 100 100 100 100 100 100 100 100 100 100 100 100 100 100 100 100 100 100 100 100 100 100 100 100 100 100 100 100 100 100 97 100 100 94 61 32 67
97 100 100 100 100 100 100 100 100 100 100 100 100 100 100 100 100 100 100 100 100 100 100 100 100 100 100 100 100 100 100 100 100 97 100 99 99 96 8 14 30 5 5
98 100 100 100 100 100 100 100 100 100 77 83 100 100 100 100 96 100 100 100 100 100 100 100 100 100 100 100 99 100 100 96 32 25 68 25 39 6 85 13 24 29 18
84 70 100 100 100 100 100 100 100 100 100 100 100 100 100 100 100 78 99 100 100 98 79 58 19 36 31 49 100 37 9 43 5 96 62 39 98 68 81 93 5 79 100
100 100 75 60 5 37 98 95 99 100 100 100 94 100 100 100 100 100 93 90 62 97 100 93 99 94 97 96 23 81 87 74 68 7 5 62 96 88 8 100 99 5 90
98 46 100 88 100 100 42 66 99 100 99 100 100 100 86 44 71 99 86 100 98 52 19 5 25 6 96 100 98 9 16 43 94 99 6 30 87 75 66 100 92 100 20
61 98 93 50 25 71 100 94 77 31 86 96 100 96 100 100 100 95 62 39 100 48 34 99 92 18 5 28 43 56 5 5 90 5 42 98 99 66 5 6 67 19 33
100 94 99 96 97 99 99 100 100 100 100 100 100 100 100 100 100 100 84 76 35 97 100 99 9 43 14 100 64 5 5 5 7 5 5 5 83 79 100 100 100 84 8
95 87 100 100 100 100 99 100 100 100 100 100 100 100 100 100 95 90 100 98 5 88 100 99 100 7 74 100 86 5 67 98 12 5 6 62 100 85 73 22 14 47 6

GFSGL_prec_cloud_105.txt.gz
Cloud_Cover
100 100 100 100 79 99 100 100 69 18 38 99 100 100 100 100 100 100 100 100 100 100 100 100 100 100 100 100 100 100 100 100 100 100 100 100 100 100 97 100 100 82 93
100 99 100 100 99 97 100 100 82 12 72 100 100 100 100 95 100 100 100 100 100 100 100 100 100 100 100 100 100 100 100 100 100 100 100 100 100 94 100 100 100 98 18
100 100 100 100 94 84 96 100 100 56 100 100 100 100 100 88 100 100 100 100 100 100 100 100 100 100 100 100 100 100 100 100 100 100 100 100 100 100 100 100 100 100 98
100 100 100 89 59 100 100 100 100 100 100 100 97 100 100 100 81 100 100 100 100 100 100 100 100 100 100 100 100 100 100 100 100 100 100 100 100 100 100 97 92 72 60
100 100 100 100 100 100 100 100 100 100 100 100 100 100 100 100 100 100 100 100 100 100 100 100 100 100 100 100 100 100 100 100 100 100 100 100 100 100 92 100 90 94 100
100 100 100 100 100 100 100 100 100 100 100 100 100 100 100 100 100 100 100 100 100 100 100 100 100 100 100 100 100 100 100 100 100 100 100 100 74 100 100 100 100 100 92
100 100 100 100 100 100 100 100 100 100 100 100 100 100 100 100 100 100 100 100 100 100 100 100 100 100 100 100 100 100 100 100 100 100 100 100 100 100 100 100 100 100 100
100 100 100 100 100 100 100 100 100 100 100 100 100 100 100 100 100 100 100 100 100 100 100 100 100 100 100 100 100 100 100 100 100 100 100 100 100 100 100 100 100 100 100
100 100 100 100 100 100 100 100 100 100 100 100 100 100 100 100 100 100 100 100 100 100 100 100 100 100 100 100 100 100 100 100 100 100 100 100 100 100 100 100 100 100 100
100 100 100 100 100 100 100 100 100 100 100 100 100 100 100 100 100 100 100 100 100 100 100 100 100 100 100 100 100 100 100 100 100 100 100 100 100 100 100 100 100 100 100
100 100 100 100 100 100 100 100 100 100 100 100 100 100 100 100 100 100 100 100 100 100 100 100 100 100 100 100 100 100 100 100 100 100 100 100 100 100 100 98 72 87 65
100 100 100 100 100 100 100 100 100 100 100 100 100 100 100 100 100 100 100 100 100 100 100 100 100 100 100 100 100 100 100 100 100 100 100 100 100 100 100 100 100 100 100
100 100 100 100 100 100 100 100 100 100 100 100 100 100 100 100 100 100 100 100 100 100 100 100 100 100 100 100 100 100 100 100 100 100 100 100 100 100 100 100 100 100 100
100 100 100 100 100 100 100 100 100 100 100 100 100 100 100 100 100 100 100 100 100 100 100 100 100 100 100 100 100 100 100 100 100 100 100 100 100 100 100 100 100 100 100
100 100 100 100 100 100 100 100 100 100 100 100 100 100 100 100 100 100 100 100 100 100 100 100 100 100 100 100 100 100 100 100 100 100 100 100 100 100 96 95 100 97 100
100 100 100 100 100 100 100 100 100 100 100 100 100 100 100 100 100 100 100 100 100 100 100 100 100 100 100 100 100 100 100 100 100 100 100 100 100 100 100 100 100 100 100
100 100 97 99 100 100 100 100 100 100 100 100 100 100 100 100 100 100 100 100 100 100 100 100 100 100 100 100 100 100 100 100 100 100 100 100 100 100 100 100 100 100 100
100 100 100 100 100 100 96 97 100 100 100 100 100 100 100 100 100 100 100 100 100 100 100 100 100 100 100 100 100 100 100 100 100 100 100 100 100 100 100 100 100 100 100
98 99 96 100 100 99 98 84 75 98 100 100 100 100 100 100 100 100 100 100 100 100 100 100 100 100 100 100 100 100 100 100 100 100 100 100 100 100 100 100 100 100 100
87 78 100 100 94 99 100 87 46 74 97 19 77 99 100 100 100 100 100 99 100 100 100 100 100 100 100 100 100 100 100 100 100 100 100 100 100 100 100 100 100 100 100
100 80 62 67 90 97 100 83 71 5 52 5 72 100 80 90 100 100 100 100 100 100 100 100 100 99 100 100 100 100 100 100 100 100 100 100 100 100 100 100 100 94 35
90 100 96 8 5 99 73 75 90 73 74 11 37 72 100 84 74 94 100 96 93 98 100 100 100 100 100 100 100 100 100 100 100 100 100 100 94 55 97 51 55 5 5
36 85 100 95 86 96 77 98 80 62 80 88 59 51 28 50 60 44 95 88 64 77 72 35 12 70 74 31 33 30 13 96 93 26 71 95 92 7 49 68 80 56 56
61 99 97 53 94 92 83 64 66 91 99 88 97 74 66 82 53 40 14 86 63 32 71 48 5 5 16 61 88 13 5 7 5 5 11 67 74 94 40 71 68 34 6
36 89 99 100 100 99 100 100 100 100 98 100 100 100 100 100 77 78 40 5 40 79 95 30 5 40 56 49 15 14 32 79 9 5 6 38 90 94 79 84 81 83 5
23 76 98 100 100 100 100 100 100 100 98 100 90 96 88 80 97 98 52 30 5 82 100 100 78 48 62 80 24 78 5 16 5 5 21 64 92 10 66 24 29 46 32

GFSGL_prec_cloud_108.txt.gz
Cloud_Cover
100 100 100 100 100 100 100 100 100 100 100 100 100 64 100 100 100 100 100 100 100 100 100 100 100 100 100 100 100 100 100 100 100 100 100 100 100 100 100 100 100 100 99
100 100 100 100 100 100 100 100 100 100 100 100 100 74 100 100 100 100 100 100 100 100 100 100 100 100 100 100 100 100 100 100 100 100 100 100 100 100 100 100 100 97 97
100 100 100 100 99 100 100 100 100 100 100 100 100 94 100 100 100 100 100 100 100 100 100 100 100 100 100 100 100 100 100 100 100 100 100 100 100 100 100 100 100 99 100
100 100 100 100 100 100 100 100 99 100 100 100 99 100 100 100 100 100 100 100 100 100 100 100 100 100 100 100 100 100 100 100 100 100 100 100 100 100 100 100 100 100 100
100 100 100 100 100 100 100 94 100 100 90 100 100 100 100 100 100 100 100 100 100 100 100 100 100 100 100 100 100 100 100 100 100 100 100 88 95 100 100 100 100 100 100
100 99 100 100 100 100 100 100 100 100 100 100 100 100 100 100 100 100 100 100 100 100 100 100 100 100 100 100 100 100 100 100 100 100 100 100 100 100 100 100 100 100 100
100 100 100 100 100 100 100 100 100 100 100 100 100 100 100 100 100 100 100 100 100 100 100 100 100 100 100 100 100 100 100 100 100 100 100 100 100 100 100 100 100 100 100
100 100 100 100 100 100 100 100 100 100 100 100 100 100 100 100 100 100 100 100 100 100 100 100 100 100 100 100 100 100 100 100 100 100 100 100 100 100 100 100 100 100 100
100 100 100 100 100 100 100 100 100 100 100 100 100 100 100 100 100 100 100 100 100 100 100 100 100 100 100 100 100 100 100 100 100 100 100 100 100 100 100 100 100 100 100
100 100 94 100 100 100 100 100 100 100 100 100 100 100 100 100 100 100 100 100 100 100 100 100 100 100 100 100 100 100 100 100 100 100 100 100 100 100 100 100 100 100 100
67 76 73 87 100 100 100 100 100 100 100 100 100 100 100 100 100 100 100 100 100 100 100 100 100 100 100 100 100 100 100 100 100 100 100 100 100 100 100 100 100 100 100
56 24 89 94 100 100 100 100 100 100 100 100 100 100 100 100 100 100 100 100 100 100 100 100 100 100 100 100 100 100 100 100 100 100 100 100 100 100 100 100 97 100 100
5 11 40 31 100 100 100 100 100 100 100 100 100 100 100 100 100 100 100 100 100 100 100 100 100 100 100 100 100 100 100 100 100 100 100 100 100 100 100 100 100 100 100
18 5 5 79 100 100 100 100 100 100 100 100 100 100 100 100 100 100 100 100 100 100 100 100 100 100 100 100 100 100 100 100 100 100 100 100 100 100 100 100 100 100 100
76 91 51 24 100 100 100 100 100 100 100 100 100 100 100 100 100 100 100 100 100 100 100 100 100 100 100 100 100 100 100 100 100 100 100 100 100 100 100 100 100 100 100
89 91 100 100 98 100 100 100 100 100 100 100 100 100 100 100 100 100 100 100 100 100 100 100 100 100 100 100 100 100 100 100 100 100 100 100 100 100 100 100 100 100 100
38 47 83 100 100 100 100 100 100 100 100 100 100 100 100 100 100 100 100 100 100 100 100 100 100 100 100 100 100 100 100 100 100 100 100 100 100 100 100 100 100 100 100
73 48 85 91 91 98 100 100 100 100 100 100 100 100 100 100 100 100 100 100 100 100 100 100 100 100 100 100 100 100 100 100 100 100 100 100 100 100 100 100 100 100 100
89 95 79 81 78 89 78 70 94 100 100 100 100 100 100 100 100 100 100 100 100 100 100 100 100 100 100 100 100 100 100 100 100 100 100 100 100 100 100 100 100 100 100
43 27 50 70 97 83 78 72 20 5 17 90 100 100 100 100 100 100 95 95 100 100 100 100 100 100 100 88 97 100 100 100 100 99 100 100 100 100 100 100 100 100 100
100 71 20 5 82 88 74 60 53 5 44 98 100 87 100 100 100 85 99 100 100 100 100 100 100 100 100 100 100 100 100 100 100 100 100 100 100 100 100 100 100 100 100
52 100 97 77 48 98 79 82 96 73 33 62 92 74 61 80 77 50 73 89 90 78 66 41 100 100 94 98 97 86 67 98 79 86 100 99 83 51 87 96 96 85 51
74 81 51 70 99 93 90 100 100 100 98 93 68 62 62 75 85 99 100 100 45 10 8 5 24 66 24 14 5 5 16 92 60 60 63 51 53 88 100 100 100 100 57
61 62 82 82 80 98 78 90 96 88 80 79 98 96 60 54 66 98 100 73 100 100 51 5 9 9 5 54 9 43 5 21 5 22 50 98 98 69 71 10 12 68 40
38 94 100 100 100 100 100 98 81 80 96 100 100 98 100 98 78 65 65 52 82 99 76 53 28 9 5 5 6 5 27 86 9 31 36 81 99 34 5 20 57 23 33
74 43 73 100 100 100 100 100 100 100 98 92 89 82 83 98 99 92 44 79 96 94 87 66 40 5 5 10 9 30 5 9 7 7 32 16 93 33 5 34 5 26 23

GFSGL_prec_cloud_111.txt.gz
Cloud_Cover
100 100 100 100 100 100 97 100 85 100 100 100 100 100 100 100 100 100 100 100 100 100 100 100 100 100 100 100 100 100 100 100 100 100 100 100 100 100 100 100 100 100 100
100 100 100 100 100 100 100 100 100 98 97 100 100 100 100 88 100 100 100 100 100 100 100 100 100 100 100 100 100 100 100 100 100 100 100 100 100 100 100 100 100 100 100
100 100 100 100 100 100 100 100 100 100 100 100 100 100 100 100 97 100 100 100 100 100 100 100 100 100 100 100 100 100 100 100 100 100 100 100 100 100 100 100 100 100 100
100 100 100 100 100 100 100 100 100 100 100 100 100 100 100 100 100 100 100 100 100 100 100 100 100 100 100 100 100 100 100 100 100 100 100 100 100 100 100 100 100 100 100
100 100 100 100 100 100 100 100 100 100 100 100 100 100 100 100 100 100 100 100 100 100 100 100 100 100 100 100 100 100 100 100 100 100 100 100 100 100 100 100 100 100 100
100 100 100 100 100 100 100 100 100 100 100 100 100 100 100 100 100 100 100 100 100 100 100 98 100 100 100 100 100 100 100 100 100 100 100 100 100 100 100 100 100 100 100
100 98 100 100 100 100 89 100 100 100 100 100 100 100 100 100 100 100 100 100 100 100 100 100 100 100 100 100 100 100 100 100 100 100 100 100 100 100 100 100 100 100 100
100 100 100 100 100 100 100 100 100 100 100 100 100 100 100 100 100 100 100 100 100 100 100 100 100 100 100 100 100 100 100 100 100 100 100 100 100 100 100 100 100 100 100
94 100 100 100 100 100 100 100 100 100 100 100 100 100 100 100 100 100 100 100 100 100 100 100 100 100 100 100 100 100 100 100 100 100 100 100 100 100 100 100 100 100 100
100 100 100 100 100 97 98 100 100 100 100 100 100 100 100 100 100 100 100 100 100 100 100 100 100 100 100 100 100 100 100 100 100 100 100 100 100 100 100 100 100 100 100
100 100 100 100 100 100 100 100 99 99 100 100 100 100 100 100 100 100 100 100 100 100 100 100 100 100 100 100 100 100 100 100 100 100 100 100 100 100 100 100 100 100 100
27 21 80 99 100 100 100 100 97 90 86 100 100 100 100 100 100 100 100 100 100 100 100 100 100 100 100 100 100 100 100 100 100 100 100 100 100 100 100 100 100 100 100
5 7 20 51 80 84 80 43 61 78 98 100 100 100 100 100 100 100 100 100 100 100 100 100 100 100 100 100 100 100 100 100 100 100 100 100 100 100 100 100 100 100 100
99 5 5 40 83 91 91 100 89 79 99 100 100 100 100 100 100 100 100 100 100 100 100 100 100 100 100 100 100 100 100 100 100 100 100 100 100 100 100 100 100 100 100
57 100 20 5 5 45 92 100 97 100 100 100 100 100 100 100 100 100 100 100 100 100 100 100 100 100 100 100 100 100 100 100 100 100 100 100 100 100 100 100 100 100 100
93 93 95 77 10 5 5 52 96 96 96 100 100 100 100 100 100 100 100 100 100 100 100 100 99 100 100 100 100 100 100 100 100 100 100 100 100 100 100 100 100 100 100
100 92 92 77 88 5 32 39 57 53 80 94 100 100 100 100 100 100 100 100 100 99 100 100 100 100 100 98 100 100 100 100 100 100 100 100 100 100 100 100 100 100 100
44 85 99 94 76 77 86 63 61 70 78 55 81 100 100 100 100 100 100 100 100 100 100 100 100 100 100 100 100 100 100 100 100 100 100 100 100 100 100 100 100 100 100
35 72 76 83 85 95 95 66 60 55 69 81 53 20 97 100 100 100 100 100 100 100 100 100 100 100 100 100 100 100 100 100 100 100 100 100 100 100 100 100 100 100 100
48 30 6 66 75 89 68 38 19 58 73 67 59 76 36 45 83 100 100 100 100 100 100 100 100 100 100 100 100 100 100 100 100 100 100 100 100 100 100 100 100 100 100
81 79 31 58 70 88 67 47 57 64 95 100 100 92 33 27 87 98 100 100 100 100 100 100 100 100 100 100 100 100 100 100 100 100 100 100 100 100 100 100 100 100 100
61 54 72 70 74 64 83 96 83 72 68 93 100 76 61 57 26 46 59 100 91 92 89 100 100 98 100 100 100 98 100 100 100 100 100 100 100 100 100 100 100 100 100
62 37 32 68 78 78 80 85 95 92 85 70 70 60 61 100 100 99 100 94 6 11 42 25 71 60 77 72 50 71 30 23 48 42 64 75 84 96 100 100 95 96 45
64 66 51 86 88 86 98 100 96 97 92 90 94 81 72 99 100 100 100 100 100 88 70 57 28 38 17 67 63 42 5 18 8 14 84 100 62 14 27 5 6 69 69
70 93 82 91 86 88 100 99 100 99 98 100 100 100 89 98 100 100 100 100 100 100 100 100 100 80 41 5 14 5 29 90 40 21 56 78 31 5 49 7 64 5 15
58 76 89 83 76 95 100 100 100 100 100 100 97 99 98 97 81 61 79 96 100 100 99 77 44 5 5 10 8 41 11 61 36 15 56 23 29 27 36 51 35 43 34

GFSGL_prec_cloud_114.txt.gz
Cloud_Cover
98 100 100 100 100 100 100 100 100 100 100 100 100 100 100 100 100 100 100 100 100 100 100 100 100 100 100 100 100 100 100 100 100 100 100 100 100 100 100 100 100 100 100
100 100 100 100 100 100 100 100 100 100 100 100 100 100 100 100 100 100 100 100 100 100 100 71 100 100 100 100 100 100 100 100 100 100 100 100 100 100 100 100 100 100 100
100 100 100 100 100 100 100 100 100 100 100 100 100 100 100 100 100 100 100 100 82 100 100 100 100 100 100 100 100 100 100 100 100 100 100 100 100 100 86 100 100 100 100
100 100 100 100 100 100 100 100 100 100 100 100 100 100 100 100 100 100 100 67 100 100 100 100 100 100 100 100 100 100 100 100 100 100 100 100 100 100 100 100 100 100 100
100 100 100 100 100 100 100 100 100 100 100 100 100 100 100 100 100 100 100 100 100 100 100 100 100 100 100 89 100 100 100 100 100 100 100 100 100 100 100 100 100 100 100
97 100 100 100 100 100 100 100 100 100 100 100 100 100 100 100 100 100 100 100 100 100 100 100 97 100 100 100 100 100 100 100 100 100 100 100 100 100 100 100 100 100 100
100 100 94 100 100 100 100 100 100 100 100 100 100 100 100 100 100 100 100 100 100 100 100 100 100 100 100 100 100 100 100 100 100 100 100 100 100 100 100 100 100 100 100
100 100 100 93 99 99 100 100 100 100 100 100 100 100 100 100 100 100 100 100 100 100 100 100 100 100 100 100 100 100 100 100 100 100 100 100 100 100 100 100 100 100 100
100 100 100 100 100 100 99 100 100 100 100 100 100 100 100 100 100 100 100 100 100 100 100 100 100 100 100 99 100 100 100 100 100 100 100 100 100 100 100 100 100 100 100
100 100 100 100 100 100 99 100 100 100 100 100 100 100 100 100 100 100 100 100 100 100 100 100 100 100 100 100 100 100 100 100 100 100 100 100 100 100 100 100 100 100 100
100 100 100 100 100 100 100 100 100 100 100 100 100 100 100 100 100 100 100 100 100 100 100 100 100 100 100 100 100 100 100 100 100 100 100 100 100 100 100 100 100 100 100
100 100 100 100 100 100 100 100 100 100 100 100 100 100 100 100 100 100 100 100 100 100 100 100 100 100 100 100 100 100 100 100 100 100 100 100 100 100 100 100 100 100 100
27 99 100 100 100 100 100 100 100 100 100 100 100 100 100 100 100 99 100 100 100 100 100 100 100 100 100 100 100 100 100 100 100 100 100 100 100 100 100 100 100 100 100
100 68 5 22 78 100 100 100 100 100 100 100 100 96 86 84 78 65 75 93 100 100 100 100 100 100 100 100 100 100 100 100 100 100 100 100 100 100 100 100 100 100 100
100 100 84 5 5 31 80 100 100 100 100 100 100 100 100 97 100 100 83 81 91 100 100 100 100 100 100 100 100 100 100 100 100 100 100 100 100 100 100 100 100 100 100
99 99 95 93 5 5 5 8 76 100 100 100 100 100 100 100 100 92 94 87 98 100 100 100 100 100 100 100 100 100 100 100 100 100 97 100 100 100 100 100 100 100 100
98 85 86 81 94 90 26 5 45 5 24 94 99 100 100 100 100 100 98 87 100 100 100 100 100 100 100 100 100 100 100 100 100 100 100 100 100 100 100 100 100 100 100
56 44 99 93 86 66 56 59 62 80 77 27 10 86 99 100 100 98 38 5 46 100 100 100 100 100 100 100 100 100 100 100 100 100 100 100 100 100 100 100 100 100 100
10 34 68 87 91 85 57 44 63 56 54 44 9 6 6 82 74 78 32 57 94 100 100 100 100 100 100 100 100 100 100 100 100 100 100 100 100 100 100 100 100 100 100
57 30 60 73 98 72 52 56 58 57 54 56 60 82 34 5 44 67 59 34 77 98 100 100 100 100 100 100 100 100 100 100 100 100 100 100 100 100 100 100 100 100 100
70 65 69 62 68 92 93 70 63 66 92 100 100 90 6 28 89 96 96 96 79 80 80 79 99 100 100 100 100 100 100 100 100 100 100 100 93 67 20 97 100 100 100
76 60 82 81 57 66 91 100 100 75 74 86 96 56 36 13 5 5 30 97 100 83 82 78 82 80 98 100 100 100 100 100 100 100 100 100 100 100 100 100 60 14 6
78 75 71 63 29 57 86 98 100 96 81 97 63 47 62 100 98 50 77 99 100 98 98 95 95 96 100 99 92 80 74 94 100 100 100 100 100 100 100 100 100 100 100
68 70 60 74 85 82 93 100 100 100 90 92 98 87 88 100 100 100 100 100 89 100 100 100 100 97 87 86 67 59 54 26 13 65 100 47 15 16 21 19 56 52 31
73 99 99 100 100 100 86 92 100 100 100 98 100 99 100 100 94 100 100 100 100 100 100 100 98 97 88 80 78 67 45 60 9 46 71 60 5 19 5 5 5 5 21
57 76 82 73 79 100 100 99 93 97 100 100 100 100 100 100 100 100 100 87 100 98 100 100 86 74 56 31 51 74 47 59 10 6 75 49 16 27 54 16 12 52 23

GFSGL_prec_cloud_117.txt.gz
Cloud_Cover
100 100 100 100 100 100 100 100 100 100 100 100 100 100 100 100 100 100 100 100 100 100 100 100 100 100 100 100 100 100 100 100 100 100 100 100 100 100 100 99 100 100 100
100 100 100 100 100 100 100 100 100 100 100 100 100 100 100 100 100 100 100 100 100 100 100 100 100 100 100 100 100 100 100 100 100 100 100 100 100 100 100 100 100 100 100
100 100 100 100 100 100 100 100 100 100 100 100 100 100 100 100 100 100 100 100 100 100 100 100 100 100 89 99 100 100 100 100 100 100 100 100 100 100 100 100 100 100 100
100 100 100 100 100 100 100 100 100 100 100 100 100 100 100 100 100 100 100 100 100 100 100 100 98 73 97 100 100 100 100 100 100 100 100 100 100 100 100 100 100 100 100
96 100 100 100 100 100 100 100 100 100 100 100 100 100 100 100 100 100 100 100 100 100 100 100 100 97 91 100 100 100 100 100 100 100 100 100 100 100 100 100 100 100 100
100 100 100 93 100 100 100 100 100 100 100 100 100 100 100 100 100 100 100 100 100 100 100 100 100 100 100 100 100 100 100 100 100 100 100 100 100 100 100 100 100 100 100
100 100 100 100 90 100 100 100 100 100 100 100 100 100 100 100 100 100 100 100 100 100 100 100 100 100 100 100 100 100 100 100 100 100 100 100 100 100 100 100 100 100 100
100 100 100 100 100 100 100 100 100 100 100 100 100 100 100 100 100 100 100 100 100 100 100 100 100 100 100 100 100 100 100 100 100 100 100 100 100 100 100 100 100 100 100
100 100 100 100 100 100 100 100 100 100 100 100 100 100 100 100 100 100 100 100 100 100 100 100 100 100 100 100 100 100 100 100 100 100 100 100 100 100 100 100 100 100 100
100 100 100 100 100 92 100 100 100 100 100 100 100 100 100 100 100 100 100 100 100 100 100 100 100 100 100 100 100 100 100 100 100 100 100 100 100 100 100 100 100 100 100
100 100 100 100 100 100 100 100 100 100 100 100 100 100 100 100 100 100 100 100 100 100 100 100 100 100 100 100 100 100 100 100 100 100 100 100 100 100 100 100 100 100 100
100 93 95 99 100 100 100 100 100 100 100 100 100 100 100 100 100 100 100 100 100 100 100 100 100 100 100 100 100 100 100 100 100 100 100 100 100 100 100 100 100 100 100
87 60 56 90 92 97 100 100 100 99 100 100 100 100 100 100 100 100 100 100 100 100 100 100 100 100 100 100 100 100 100 100 100 100 100 100 100 100 100 100 100 100 100
96 93 76 69 87 94 100 100 100 100 100 100 100 100 100 100 100 100 100 100 100 100 100 100 100 100 100 100 100 100 100 100 100 100 100 100 100 100 100 100 100 100 100
99 100 98 87 72 40 83 99 100 100 100 100 100 100 100 100 100 100 100 100 100 100 100 100 100 100 100 100 100 100 100 100 100 100 100 100 100 100 100 100 100 100 100
72 85 80 99 98 56 5 16 58 99 100 98 100 100 100 99 100 99 100 100 97 100 93 99 100 100 100 100 100 100 100 100 100 100 100 100 100 100 100 100 100 100 100
72 51 76 88 100 63 5 5 5 6 43 30 92 98 100 100 100 100 83 47 7 7 88 100 100 100 100 98 94 100 100 100 100 100 100 100 100 100 100 100 100 100 100
16 25 14 98 100 66 8 54 87 82 67 5 6 79 99 100 100 96 6 5 32 74 98 99 100 99 93 91 90 97 100 99 100 100 100 100 100 100 100 100 100 100 100
98 84 56 91 100 15 16 61 63 28 33 33 5 5 24 91 76 79 86 94 100 100 100 100 100 100 100 98 100 100 100 100 100 100 100 100 100 100 100 100 100 100 100
58 26 53 99 99 98 80 82 72 75 76 82 52 52 34 7 85 98 100 100 100 100 100 100 100 100 100 100 100 100 100 100 100 100 100 100 100 100 100 100 100 100 100
100 100 68 100 100 100 100 100 100 100 100 100 93 49 87 34 99 100 100 100 100 100 100 100 100 100 99 94 91 100 100 100 100 100 100 100 100 100 100 100 100 100 100
100 100 100 100 100 100 100 100 100 100 100 100 100 63 16 80 88 97 96 98 100 100 100 95 52 87 98 100 99 100 100 100 100 100 100 100 100 100 100 100 100 100 100
100 100 100 100 98 91 100 100 100 100 100 100 100 100 100 100 100 100 100 100 95 100 86 99 97 99 100 100 100 100 100 100 100 100 100 100 100 100 100 100 100 100 100
99 100 99 99 98 97 100 100 100 100 100 100 100 100 100 100 100 100 100 100 100 98 96 98 100 100 100 100 100 100 100 100 100 100 100 100 100 93 100 100 99 89 100
10 50 87 100 100 100 100 100 100 100 100 100 100 100 100 100 100 100 100 100 100 100 94 87 99 100 100 100 100 100 100 100 100 100 100 100 95 88 62 75 83 79 54
6 60 61 82 100 98 98 100 100 100 100 100 100 100 100 100 100 100 100 95 100 100 100 100 96 74 92 97 98 100 100 100 99 100 91 100 99 77 76 82 57 100 92

GFSGL_prec_cloud_120.txt.gz
Cloud_Cover
100 100 100 100 100 100 100 100 100 100 100 100 100 100 100 100 100 100 100 100 100 100 100 100 100 100 100 100 100 79 61 100 100 100 100 100 100 100 100 100 100 100 89
100 100 100 100 100 100 100 100 100 98 100 100 100 100 100 100 100 100 100 100 100 100 100 100 100 100 100 100 100 100 100 99 100 100 100 100 100 100 100 100 100 100 100
100 99 100 100 100 100 100 100 100 100 100 100 100 100 100 100 100 100 100 100 100 100 100 100 100 100 100 100 100 100 100 48 95 100 100 100 100 100 100 100 100 100 100
100 100 100 100 100 100 100 100 100 100 100 100 100 100 100 100 100 100 100 100 100 100 100 100 100 100 100 100 100 100 87 100 100 100 100 100 100 100 100 100 100 100 100
100 100 100 100 100 100 100 100 100 100 100 100 100 100 100 100 100 100 100 100 100 100 100 100 100 100 100 100 100 100 86 100 100 100 100 100 100 100 100 100 100 100 100
100 100 100 100 100 100 100 100 100 100 100 100 100 100 100 100 100 100 100 100 100 100 100 100 100 100 100 100 100 100 100 100 100 100 100 100 100 100 100 100 100 100 100
100 100 100 100 100 99 100 100 100 100 92 100 100 100 100 100 100 100 100 100 100 100 100 100 100 100 100 100 100 100 100 100 100 100 100 100 100 100 99 100 100 100 100
100 100 100 100 100 100 100 100 100 100 100 100 100 100 100 100 100 100 100 100 100 100 100 100 100 100 100 100 100 100 100 100 100 100 100 100 100 100 100 100 100 100 100
100 100 100 100 100 100 100 100 100 100 100 100 100 100 100 100 100 100 100 100 100 100 100 100 100 100 100 100 100 100 100 100 100 100 100 100 100 100 100 100 100 100 100
100 100 100 100 100 100 100 100 100 100 100 100 100 100 100 100 100 100 100 100 100 100 100 100 100 100 100 100 100 100 100 100 100 100 100 100 100 100 100 100 100 100 100
100 100 100 100 100 100 100 100 100 100 100 100 100 100 100 100 100 100 100 100 100 100 100 100 100 100 100 100 100 100 100 100 100 100 100 100 100 100 100 100 100 100 100
100 100 100 100 100 100 100 100 100 100 100 100 100 100 100 100 100 100 100 100 100 100 100 100 100 100 100 100 100 100 100 100 100 100 100 100 100 100 100 100 100 100 100
86 78 92 100 100 100 100 100 100 100 100 100 100 100 100 100 100 100 100 100 100 100 100 100 100 100 100 100 100 100 100 100 100 100 100 100 100 100 100 100 100 100 100
5 5 5 6 5 25 5 77 96 98 100 100 100 100 100 100 100 100 100 100 100 100 100 100 100 100 100 100 100 100 100 100 100 100 100 100 100 100 100 100 100 100 100
12 59 12 13 5 5 13 27 66 99 99 100 100 100 100 100 100 100 100 100 96 92 100 100 100 100 100 100 100 100 100 100 100 100 100 100 100 100 100 100 100 100 100
9 5 32 66 5 5 5 5 34 9 73 97 99 100 100 100 100 100 100 100 100 100 100 100 100 100 100 100 100 100 100 100 100 100 100 100 100 100 100 100 100 100 100
98 60 83 80 98 95 81 94 91 100 96 53 22 92 100 100 100 100 100 100 100 100 100 100 100 100 100 98 96 100 100 100 100 100 100 100 100 100 100 100 100 100 100
100 100 100 100 100 100 100 100 100 100 100 100 91 22 52 100 100 100 89 98 97 82 100 100 100 100 100 100 100 100 100 100 100 100 100 100 100 100 100 100 100 100 100
92 100 100 100 100 96 100 100 100 100 100 100 100 87 78 77 100 98 98 100 100 100 100 100 100 100 100 100 100 100 100 100 100 100 100 100 100 100 99 64 100 100 100
99 100 100 100 100 100 100 100 100 100 100 100 100 100 72 95 100 100 100 100 100 100 100 100 100 100 100 100 100 100 100 100 100 100 100 100 100 100 93 73 47 27 68
100 100 95 100 100 100 100 100 100 100 100 100 100 78 15 100 100 100 100 100 100 100 100 100 100 100 100 100 100 100 100 100 100 100 100 100 100 100 100 100 57 5 5
100 100 100 100 100 100 100 100 100 100 100 100 100 100 39 100 100 100 100 100 100 100 100 100 100 100 100 100 100 100 100 100 100 100 100 100 100 100 100 100 100 100 55
100 100 100 100 100 100 100 100 100 100 100 100 100 100 100 100 100 100 100 100 100 100 100 100 100 100 100 100 100 100 100 100 100 100 100 100 100 100 100 100 100 100 100
100 100 100 100 100 100 100 100 100 100 100 100 100 100 100 100 100 100 100 100 100 100 100 100 100 90 94 100 100 100 100 100 100 100 100 100 100 100 100 100 100 100 99
100 100 100 100 100 100 100 100 100 100 100 100 100 100 100 100 100 100 100 100 100 100 100 100 100 100 98 99 100 100 100 100 100 100 100 100 100 100 100 100 100 100 83
100 100 100 100 100 100 100 100 100 100 100 100 100 100 100 100 100 100 100 100 100 100 100 100 100 100 100 100 97 84 96 100 100 100 100 100 100 100 100 100 100 100 93

GFSGL_prec_cloud_123.txt.gz
Cloud_Cover
100 100 100 100 100 100 100 100 100 100 100 100 100 100 100 100 100 100 100 100 100 100 100 100 100 100 100 100 100 100 100 92 92 100 47 50 26 43 98 97 100 100 95
100 100 100 100 100 100 100 100 100 100 100 100 100 100 100 100 100 100 100 100 100 100 100 100 100 100 100 100 100 100 100 100 100 52 91 100 43 21 49 100 100 100 100
99 100 100 100 100 100 100 100 100 100 100 100 100 100 100 100 100 100 100 100 100 100 100 100 100 100 100 100 100 100 100 100 97 100 84 100 100 84 100 100 100 100 100
100 100 100 100 100 100 100 100 100 100 100 100 100 100 100 100 100 100 100 100 100 100 100 100 100 100 100 100 100 100 100 100 100 74 100 100 100 100 100 100 100 100 100
100 100 100 100 100 100 100 100 100 100 100 100 100 100 100 100 100 100 100 100 100 100 100 100 100 100 100 100 100 100 100 100 100 100 100 100 100 100 100 100 100 100 100
100 100 100 82 98 76 89 100 99 100 100 100 100 100 100 100 100 99 100 100 100 100 100 100 100 100 100 100 100 100 100 100 100 100 100 100 100 100 100 100 100 100 100
100 100 100 100 100 100 100 100 100 100 100 100 100 100 100 100 90 96 87 100 100 100 100 100 100 100 100 100 100 100 100 100 100 100 100 100 100 100 100 100 100 100 100
100 100 100 100 100 100 100 100 100 100 100 100 100 100 100 100 100 96 74 95 100 100 100 100 100 100 100 100 100 100 100 100 100 100 100 100 100 100 100 100 100 100 100
100 100 100 100 100 100 100 100 100 100 100 100 100 100 100 100 100 97 98 95 100 100 100 100 100 100 100 100 100 100 100 100 100 100 100 100 100 100 100 100 100 100 100
100 100 100 100 100 100 100 100 100 100 100 100 100 100 100 100 100 100 100 100 100 86 100 100 100 100 100 100 100 100 100 100 100 100 100 100 100 100 100 100 100 100 100
100 100 100 100 100 100 100 100 100 100 100 100 100 100 100 100 100 100 100 100 100 100 100 100 100 100 100 100 100 100 100 100 100 100 100 100 100 100 100 100 100 100 100
100 100 100 100 100 100 100 100 100 100 100 100 100 100 100 100 100 100 100 100 100 100 100 100 100 100 82 100 97 100 100 100 100 100 100 100 100 100 100 100 100 100 100
99 99 95 100 100 100 100 100 100 100 100 100 100 100 100 100 100 97 100 100 100 100 100 100 100 100 100 100 100 100 100 100 100 100 100 100 100 100 100 100 100 100 100
62 50 11 10 14 24 94 100 100 100 100 100 98 99 100 100 100 99 77 82 92 100 100 100 100 100 100 100 100 100 100 100 100 100 100 100 100 100 100 100 100 100 100
100 90 53 66 76 26 24 6 56 80 80 66 91 100 100 100 100 100 98 74 58 100 100 100 100 100 100 100 100 100 100 100 100 100 100 100 100 100 100 100 100 100 100
82 94 100 100 100 64 38 79 85 38 6 15 13 74 99 100 100 100 99 96 9 56 100 100 100 100 100 100 100 100 100 100 100 100 100 100 100 100 100 100 100 100 100
89 90 76 99 100 100 100 100 100 99 100 92 13 77 100 99 96 69 20 88 75 41 99 100 100 100 100 100 100 100 100 100 100 100 100 100 100 100 100 100 100 100 100
80 98 100 100 100 100 100 100 100 100 100 100 100 79 70 100 97 83 15 22 100 97 100 100 100 100 100 100 100 100 100 100 100 100 100 100 100 100 100 100 100 100 100
90 100 100 100 100 100 100 100 100 100 100 100 100 100 74 59 100 100 100 100 100 100 100 100 100 100 100 100 100 100 100 100 100 100 100 100 100 100 100 100 100 100 100
97 89 98 100 100 100 100 100 100 100 100 100 100 100 48 56 100 100 100 100 100 100 100 100 100 100 100 100 100 100 100 100 100 100 100 100 100 100 100 100 100 100 100
100 100 100 100 100 100 100 100 100 100 100 100 100 86 34 62 100 100 100 100 100 100 100 100 100 100 100 100 100 100 100 100 100 100 100 100 100 100 100 100 100 83 47
99 100 100 100 100 100 100 100 100 100 100 100 100 100 90 100 100 100 100 100 100 100 100 100 100 100 100 100 100 100 100 100 100 100 100 100 100 100 100 100 100 100 100
100 100 100 100 100 100 100 100 100 100 100 100 100 100 100 100 100 100 100 100 100 100 100 100 100 100 100 100 100 100 100 100 100 100 100 100 100 100 100 100 100 100 100
100 100 100 100 100 100 100 100 100 100 100 100 100 100 100 100 100 100 100 100 100 100 100 100 100 97 100 100 100 100 100 100 100 100 100 100 100 100 100 100 100 100 100
100 100 100 100 100 100 100 100 100 100 100 100 100 100 100 100 100 100 100 100 100 100 100 100 100 100 100 100 100 100 84 92 96 100 100 100 100 100 100 100 100 100 100
100 100 100 100 100 100 100 100 100 100 100 100 100 100 100 100 100 100 100 100 100 100 100 100 100 99 73 100 96 64 81 44 42 95 100 100 100 100 100 100 100 100 100

GFSGL_prec_cloud_126.txt.gz
Cloud_Cover
100 100 100 100 100 100 100 100 100 100 100 100 100 100 100 100 100 100 100 100 100 100 100 100 76 100 100 100 100 100 100 100 100 100 100 100 100 28 42 15 7 54 88
100 100 100 100 100 100 100 100 100 100 100 100 100 100 100 100 100 100 100 100 100 100 100 100 100 100 100 100 100 100 100 100 100 100 100 100 100 100 86 46 83 80 96
100 100 84 100 100 100 100 100 100 100 100 100 100 100 100 100 100 100 100 100 100 100 100 100 100 100 98 100 100 100 93 75 100 98 100 100 100 100 54 55 89 100 81
100 100 100 100 100 100 100 100 100 100 100 100 100 100 100 100 100 100 100 100 100 100 100 100 100 100 100 100 100 100 100 100 100 100 100 100 100 100 100 81 100 100 100
100 100 100 100 100 100 100 100 100 100 100 100 100 100 100 100 100 100 100 100 100 100 100 100 100 100 100 100 100 100 100 100 100 100 100 100 100 100 100 100 100 100 100
100 100 100 100 100 100 100 100 100 100 100 100 100 100 100 100 100 100 100 100 100 100 100 100 100 100 100 100 100 100 100 100 100 100 100 100 100 100 100 100 100 100 100
100 100 100 100 100 100 100 100 100 100 100 100 100 100 100 100 100 100 100 100 100 100 100 99 100 100 100 100 100 100 100 100 100 100 100 100 100 100 99 100 100 100 100
100 100 100 100 100 100 100 100 100 100 100 100 100 100 100 100 100 100 100 99 100 100 90 100 100 100 100 93 86 100 100 100 100 100 100 100 100 100 100 100 100 100 100
100 95 100 100 100 100 100 100 100 100 100 100 100 100 100 100 100 100 100 100 100 100 100 100 100 100 100 81 100 100 100 100 100 100 100 100 100 100 100 100 100 100 100
100 100 100 100 100 100 100 100 100 100 100 100 100 100 100 100 100 100 100 100 100 100 100 100 100 100 100 76 97 100 100 100 96 100 100 100 100 100 100 100 100 100 100
100 100 100 100 100 100 66 84 100 75 27 72 100 100 100 100 100 100 100 100 100 100 100 100 100 100 100 100 98 100 96 90 99 100 100 100 100 100 100 100 100 100 100
100 100 100 100 100 94 82 100 100 100 96 48 82 100 100 100 100 100 100 100 100 100 100 100 100 100 78 35 64 81 88 100 99 100 97 100 100 100 100 100 100 100 100
100 100 100 100 100 100 100 100 100 100 100 100 100 100 100 100 100 100 100 100 100 100 100 100 100 100 99 65 79 80 51 79 98 100 100 100 100 100 100 100 100 100 100
100 100 100 95 100 100 100 100 100 100 100 100 97 90 87 75 75 79 93 97 100 93 100 100 100 100 100 100 80 67 94 98 100 98 98 86 100 100 100 100 100 100 100
100 100 100 100 100 92 88 29 8 55 81 86 96 100 99 100 96 99 100 99 95 100 100 100 100 91 73 91 96 40 57 63 89 97 96 94 100 100 100 100 100 100 100
35 87 100 100 100 100 94 100 65 18 8 64 85 28 35 74 100 98 70 98 50 77 94 94 99 95 99 97 85 99 81 63 76 86 100 87 97 100 100 100 100 100 100
75 96 12 6 93 63 43 100 81 42 95 100 98 62 5 8 100 100 11 80 100 16 76 85 18 88 100 99 61 9 18 32 82 93 70 85 100 98 94 100 100 100 100
10 91 5 21 35 87 98 92 95 96 88 86 100 94 5 1 81 100 100 8 13 9 55 100 75 27 81 99 50 94 100 93 79 99 88 69 95 98 100 100 100 100 100
24 72 5 10 16 90 59 77 86 78 100 99 100 60 5 4 41 100 70 5 45 100 33 99 100 9 89 96 100 100 100 100 100 100 100 100 100 96 68 100 100 100 100
5 45 5 5 81 46 5 56 9 5 98 86 98 95 26 5 18 96 100 72 37 98 95 98 100 100 5 89 100 100 95 80 75 96 100 97 100 100 96 99 95 76 72
8 98 10 5 20 84 59 5 6 92 77 67 81 100 87 5 62 100 100 100 78 100 100 100 100 100 32 8 5 82 100 98 5 81 100 99 100 100 100 100 100 100 100
38 37 5 14 79 21 19 41 100 68 57 100 75 81 100 100 100 88 100 100 100 100 100 73 100 99 61 99 100 73 92 100 98 50 96 100 100 96 99 100 100 100 100
1 57 45 82 47 89 12 90 97 67 99 100 100 100 99 100 100 99 100 100 92 17 100 88 98 17 5 68 100 60 5 52 81 99 100 100 100 100 100 100 100 100 100
5 75 89 96 90 94 99 100 100 98 100 99 100 100 100 100 100 100 100 100 81 14 34 100 91 96 15 5 5 12 5 5 5 7 79 100 100 100 100 100 100 100 100
24 20 100 100 100 100 100 100 100 100 100 100 100 100 100 100 100 100 100 100 100 88 91 100 100 98 47 75 27 5 24 5 9 5 62 91 100 100 100 100 100 100 100
94 100 100 100 100 100 100 100 100 100 100 74 9 5 57 99 100 100 100 100 100 100 97 98 100 100 92 94 26 6 5 5 5 65 87 98 98 98 100 100 100 100 100